Time,TemperatureF,DewpointF,PressureIn,WindDirection,WindDirectionDegrees,WindSpeedMPH,WindSpeedGustMPH,Humidity,HourlyPrecipIn,Conditions,Clouds,dailyrainin,SoftwareType,DateUTC
2013-07-30 00:00:00,72.6,70.2,30.18,SW,221,0.0,0.0,92,0.00,,---,0.08,VWS V14.01,2013-07-30 04:00:00,
2013-07-30 00:01:00,72.6,70.2,30.18,SW,221,0.0,0.0,92,0.00,,---,0.00,VWS V14.01,2013-07-30 04:01:00,
2013-07-30 00:02:00,72.5,70.1,30.18,SW,221,0.0,0.0,92,0.00,,---,0.00,VWS V14.01,2013-07-30 04:02:00,
2013-07-30 00:03:00,72.4,69.9,30.18,SW,221,0.0,0.0,92,0.00,,---,0.00,VWS V14.01,2013-07-30 04:03:00,
2013-07-30 00:04:00,72.4,69.9,30.18,SW,221,0.0,0.0,92,0.00,,---,0.00,VWS V14.01,2013-07-30 04:04:00,
2013-07-30 00:05:00,72.4,69.9,30.18,SW,221,0.0,0.0,92,0.00,,---,0.00,VWS V14.01,2013-07-30 04:05:00,
2013-07-30 00:06:00,72.3,69.8,30.18,SW,221,0.0,0.0,92,0.00,,---,0.00,VWS V14.01,2013-07-30 04:06:00,
2013-07-30 00:07:00,72.3,69.8,30.18,SW,221,0.0,0.0,92,0.00,,---,0.00,VWS V14.01,2013-07-30 04:07:00,
2013-07-30 00:08:00,72.3,69.8,30.18,SW,221,0.0,0.0,92,0.00,,---,0.00,VWS V14.01,2013-07-30 04:08:00,
2013-07-30 00:09:00,72.2,69.8,30.18,SW,221,0.0,0.0,92,0.00,,---,0.00,VWS V14.01,2013-07-30 04:09:00,
2013-07-30 00:10:00,72.2,69.8,30.18,SW,221,0.0,0.0,92,0.00,,---,0.00,VWS V14.01,2013-07-30 04:10:00,
2013-07-30 00:11:00,72.1,69.7,30.18,SW,221,0.0,0.0,92,0.00,,---,0.00,VWS V14.01,2013-07-30 04:11:00,
2013-07-30 00:12:00,72.1,69.7,30.18,SW,221,0.0,0.0,92,0.00,,---,0.00,VWS V14.01,2013-07-30 04:12:00,
2013-07-30 00:13:00,72.1,69.7,30.18,SW,221,0.0,0.0,92,0.00,,---,0.00,VWS V14.01,2013-07-30 04:13:00,
2013-07-30 00:14:00,72.1,69.7,30.18,SW,221,0.0,0.0,92,0.00,,---,0.00,VWS V14.01,2013-07-30 04:14:00,
2013-07-30 00:15:00,72.0,69.6,30.18,SW,221,0.0,0.0,92,0.00,,---,0.00,VWS V14.01,2013-07-30 04:15:00,
2013-07-30 00:16:00,72.0,69.6,30.18,SW,221,0.0,0.0,92,0.00,,---,0.00,VWS V14.01,2013-07-30 04:16:00,
2013-07-30 00:17:00,71.9,69.4,30.18,SW,221,0.0,0.0,92,0.00,,---,0.00,VWS V14.01,2013-07-30 04:17:00,
2013-07-30 00:18:00,71.9,69.4,30.18,SW,221,0.0,0.0,92,0.00,,---,0.00,VWS V14.01,2013-07-30 04:18:00,
2013-07-30 00:19:00,71.9,69.4,30.18,SW,221,0.0,0.0,92,0.00,,---,0.00,VWS V14.01,2013-07-30 04:19:00,
2013-07-30 00:20:00,71.9,69.4,30.18,SW,221,0.0,0.0,92,0.00,,---,0.00,VWS V14.01,2013-07-30 04:20:00,
2013-07-30 00:21:00,71.9,69.4,30.18,SW,221,0.0,0.0,92,0.00,,---,0.00,VWS V14.01,2013-07-30 04:21:00,
2013-07-30 00:22:00,71.9,69.4,30.18,SW,221,0.0,0.0,92,0.00,,---,0.00,VWS V14.01,2013-07-30 04:22:00,
2013-07-30 00:23:00,71.9,69.4,30.18,SW,221,0.0,0.0,92,0.00,,---,0.00,VWS V14.01,2013-07-30 04:23:00,
2013-07-30 00:24:00,71.9,69.4,30.18,SW,221,0.0,0.0,92,0.00,,---,0.00,VWS V14.01,2013-07-30 04:24:00,
2013-07-30 00:25:00,71.9,69.4,30.18,SW,221,0.0,0.0,92,0.00,,---,0.00,VWS V14.01,2013-07-30 04:25:00,
2013-07-30 00:26:00,71.8,69.3,30.18,SW,221,0.0,0.0,92,0.00,,---,0.00,VWS V14.01,2013-07-30 04:26:00,
2013-07-30 00:27:00,71.8,69.4,30.18,SW,221,0.0,0.0,92,0.00,,---,0.00,VWS V14.01,2013-07-30 04:27:00,
2013-07-30 00:28:00,71.7,69.3,30.18,SW,221,0.0,0.0,92,0.00,,---,0.00,VWS V14.01,2013-07-30 04:28:00,
2013-07-30 00:29:00,71.7,69.3,30.18,SW,221,0.0,0.0,92,0.00,,---,0.00,VWS V14.01,2013-07-30 04:29:00,
2013-07-30 00:30:00,71.6,69.2,30.18,SW,221,0.0,0.0,92,0.00,,---,0.00,VWS V14.01,2013-07-30 04:30:00,
2013-07-30 00:31:00,71.6,69.2,30.18,SW,221,0.0,0.0,92,0.00,,---,0.00,VWS V14.01,2013-07-30 04:31:00,
2013-07-30 00:32:00,71.6,69.2,30.18,SW,221,0.0,0.0,92,0.00,,---,0.00,VWS V14.01,2013-07-30 04:32:00,
2013-07-30 00:33:00,71.5,69.1,30.18,SW,221,0.0,0.0,92,0.00,,---,0.00,VWS V14.01,2013-07-30 04:33:00,
2013-07-30 00:34:00,71.5,69.1,30.18,SW,221,0.0,0.0,92,0.00,,---,0.00,VWS V14.01,2013-07-30 04:34:00,
2013-07-30 00:35:00,71.4,69.0,30.18,SW,221,1.0,1.0,92,0.00,,---,0.00,VWS V14.01,2013-07-30 04:35:00,
2013-07-30 00:36:00,71.4,69.0,30.18,SW,221,0.0,0.0,92,0.00,,---,0.00,VWS V14.01,2013-07-30 04:36:00,
2013-07-30 00:37:00,71.4,68.6,30.18,SW,221,0.0,0.0,91,0.00,,---,0.00,VWS V14.01,2013-07-30 04:37:00,
2013-07-30 00:38:00,71.3,68.5,30.18,SSW,213,1.0,1.0,91,0.00,,---,0.00,VWS V14.01,2013-07-30 04:38:00,
2013-07-30 00:39:00,71.4,68.6,30.18,South,174,1.0,1.0,91,0.00,,---,0.00,VWS V14.01,2013-07-30 04:39:00,
2013-07-30 00:40:00,71.4,69.0,30.18,ESE,106,1.0,2.0,92,0.00,,---,0.00,VWS V14.01,2013-07-30 04:40:00,
2013-07-30 00:41:00,71.4,68.3,30.18,ESE,106,1.0,1.0,90,0.00,,---,0.00,VWS V14.01,2013-07-30 04:41:00,
2013-07-30 00:42:00,71.5,68.4,30.18,ESE,107,1.0,1.0,90,0.00,,---,0.00,VWS V14.01,2013-07-30 04:42:00,
2013-07-30 00:43:00,71.5,68.4,30.19,ESE,106,0.0,1.0,90,0.00,,---,0.00,VWS V14.01,2013-07-30 04:43:00,
2013-07-30 00:44:00,71.6,68.5,30.19,ESE,106,0.0,0.0,90,0.00,,---,0.00,VWS V14.01,2013-07-30 04:44:00,
2013-07-30 00:45:00,71.6,68.2,30.19,ESE,106,0.0,0.0,89,0.00,,---,0.00,VWS V14.01,2013-07-30 04:45:00,
2013-07-30 00:46:00,71.7,68.3,30.19,ESE,106,0.0,0.0,89,0.00,,---,0.00,VWS V14.01,2013-07-30 04:46:00,
2013-07-30 00:47:00,71.7,68.3,30.19,ESE,106,0.0,0.0,89,0.00,,---,0.00,VWS V14.01,2013-07-30 04:47:00,
2013-07-30 00:48:00,71.7,68.3,30.19,ESE,106,0.0,0.0,89,0.00,,---,0.00,VWS V14.01,2013-07-30 04:48:00,
2013-07-30 00:49:00,71.7,68.3,30.19,ESE,106,0.0,0.0,89,0.00,,---,0.00,VWS V14.01,2013-07-30 04:49:00,
2013-07-30 00:50:00,71.7,68.3,30.19,ESE,106,0.0,0.0,89,0.00,,---,0.00,VWS V14.01,2013-07-30 04:50:00,
2013-07-30 00:51:00,71.7,68.0,30.19,ESE,107,0.0,0.0,88,0.00,,---,0.00,VWS V14.01,2013-07-30 04:51:00,
2013-07-30 00:52:00,71.7,68.0,30.19,ESE,106,0.0,0.0,88,0.00,,---,0.00,VWS V14.01,2013-07-30 04:52:00,
2013-07-30 00:53:00,71.7,68.0,30.19,ESE,107,0.0,0.0,88,0.00,,---,0.00,VWS V14.01,2013-07-30 04:53:00,
2013-07-30 00:54:00,71.7,68.3,30.19,ESE,106,0.0,0.0,89,0.00,,---,0.00,VWS V14.01,2013-07-30 04:54:00,
2013-07-30 00:55:00,71.6,68.2,30.19,ESE,106,0.0,0.0,89,0.00,,---,0.00,VWS V14.01,2013-07-30 04:55:00,
2013-07-30 00:56:00,71.6,67.9,30.19,ESE,106,0.0,0.0,88,0.00,,---,0.00,VWS V14.01,2013-07-30 04:56:00,
2013-07-30 00:57:00,71.5,67.8,30.19,ESE,106,0.0,0.0,88,0.00,,---,0.00,VWS V14.01,2013-07-30 04:57:00,
2013-07-30 00:58:00,71.5,68.1,30.19,ESE,106,0.0,0.0,89,0.00,,---,0.00,VWS V14.01,2013-07-30 04:58:00,
2013-07-30 00:59:00,71.5,68.1,30.19,ESE,106,1.0,1.0,89,0.00,,---,0.00,VWS V14.01,2013-07-30 04:59:00,
2013-07-30 01:00:00,71.5,68.1,30.19,ESE,106,0.0,0.0,89,0.00,,---,0.00,VWS V14.01,2013-07-30 05:00:00,
2013-07-30 01:01:00,71.5,68.1,30.19,ESE,106,0.0,0.0,89,0.00,,---,0.00,VWS V14.01,2013-07-30 05:01:00,
2013-07-30 01:02:00,71.5,68.1,30.19,ESE,106,0.0,0.0,89,0.00,,---,0.00,VWS V14.01,2013-07-30 05:02:00,
2013-07-30 01:03:00,71.4,68.0,30.19,ESE,106,0.0,0.0,89,0.00,,---,0.00,VWS V14.01,2013-07-30 05:03:00,
2013-07-30 01:04:00,71.4,68.0,30.19,ESE,106,0.0,0.0,89,0.00,,---,0.00,VWS V14.01,2013-07-30 05:04:00,
2013-07-30 01:05:00,71.3,67.9,30.19,ESE,106,0.0,0.0,89,0.00,,---,0.00,VWS V14.01,2013-07-30 05:05:00,
2013-07-30 01:06:00,71.3,67.9,30.19,ESE,106,0.0,0.0,89,0.00,,---,0.00,VWS V14.01,2013-07-30 05:06:00,
2013-07-30 01:07:00,71.2,67.8,30.19,ESE,106,0.0,0.0,89,0.00,,---,0.00,VWS V14.01,2013-07-30 05:07:00,
2013-07-30 01:08:00,71.2,67.8,30.19,ESE,106,0.0,0.0,89,0.00,,---,0.00,VWS V14.01,2013-07-30 05:08:00,
2013-07-30 01:09:00,71.2,67.8,30.19,ESE,106,0.0,0.0,89,0.00,,---,0.00,VWS V14.01,2013-07-30 05:09:00,
2013-07-30 01:10:00,71.2,67.8,30.19,ESE,106,0.0,0.0,89,0.00,,---,0.00,VWS V14.01,2013-07-30 05:10:00,
2013-07-30 01:11:00,71.1,67.7,30.19,ESE,106,0.0,0.0,89,0.00,,---,0.00,VWS V14.01,2013-07-30 05:11:00,
2013-07-30 01:12:00,71.1,67.7,30.19,ESE,106,0.0,0.0,89,0.00,,---,0.00,VWS V14.01,2013-07-30 05:12:00,
2013-07-30 01:13:00,71.1,68.0,30.19,ESE,106,0.0,0.0,90,0.00,,---,0.00,VWS V14.01,2013-07-30 05:13:00,
2013-07-30 01:14:00,71.1,68.0,30.19,ESE,106,0.0,0.0,90,0.00,,---,0.00,VWS V14.01,2013-07-30 05:14:00,
2013-07-30 01:15:00,71.1,68.0,30.19,ESE,106,0.0,0.0,90,0.00,,---,0.00,VWS V14.01,2013-07-30 05:15:00,
2013-07-30 01:16:00,71.1,68.0,30.19,ESE,106,0.0,0.0,90,0.00,,---,0.00,VWS V14.01,2013-07-30 05:16:00,
2013-07-30 01:17:00,71.0,67.9,30.19,ESE,106,0.0,0.0,90,0.00,,---,0.00,VWS V14.01,2013-07-30 05:17:00,
2013-07-30 01:18:00,71.0,67.9,30.19,ESE,106,0.0,0.0,90,0.00,,---,0.00,VWS V14.01,2013-07-30 05:18:00,
2013-07-30 01:19:00,71.0,67.6,30.19,ESE,106,0.0,0.0,89,0.00,,---,0.00,VWS V14.01,2013-07-30 05:19:00,
2013-07-30 01:20:00,71.0,67.6,30.19,ESE,106,0.0,0.0,89,0.00,,---,0.00,VWS V14.01,2013-07-30 05:20:00,
2013-07-30 01:21:00,71.0,67.3,30.19,ESE,107,0.0,0.0,88,0.00,,---,0.00,VWS V14.01,2013-07-30 05:21:00,
2013-07-30 01:22:00,71.1,67.4,30.19,ESE,106,0.0,0.0,88,0.00,,---,0.00,VWS V14.01,2013-07-30 05:22:00,
2013-07-30 01:23:00,71.2,67.1,30.19,ESE,106,0.0,0.0,87,0.00,,---,0.00,VWS V14.01,2013-07-30 05:23:00,
2013-07-30 01:24:00,71.3,66.9,30.19,ESE,106,0.0,0.0,86,0.00,,---,0.00,VWS V14.01,2013-07-30 05:24:00,
2013-07-30 01:25:00,71.4,67.0,30.19,ESE,106,0.0,0.0,86,0.00,,---,0.00,VWS V14.01,2013-07-30 05:25:00,
2013-07-30 01:26:00,71.6,67.2,30.19,ESE,106,0.0,0.0,86,0.00,,---,0.00,VWS V14.01,2013-07-30 05:26:00,
2013-07-30 01:27:00,71.6,67.2,30.19,ESE,106,0.0,0.0,86,0.00,,---,0.00,VWS V14.01,2013-07-30 05:27:00,
2013-07-30 01:28:00,71.8,67.4,30.19,ESE,106,0.0,0.0,86,0.00,,---,0.00,VWS V14.01,2013-07-30 05:28:00,
2013-07-30 01:29:00,71.8,67.1,30.19,ESE,106,0.0,0.0,85,0.00,,---,0.00,VWS V14.01,2013-07-30 05:29:00,
2013-07-30 01:30:00,71.8,67.1,30.19,ESE,106,0.0,0.0,85,0.00,,---,0.00,VWS V14.01,2013-07-30 05:30:00,
2013-07-30 01:31:00,71.9,67.2,30.19,ESE,106,0.0,0.0,85,0.00,,---,0.00,VWS V14.01,2013-07-30 05:31:00,
2013-07-30 01:32:00,71.9,67.5,30.19,ESE,106,0.0,0.0,86,0.00,,---,0.00,VWS V14.01,2013-07-30 05:32:00,
2013-07-30 01:33:00,71.9,67.5,30.19,ESE,106,0.0,0.0,86,0.00,,---,0.00,VWS V14.01,2013-07-30 05:33:00,
2013-07-30 01:34:00,71.9,67.5,30.19,ESE,106,0.0,0.0,86,0.00,,---,0.00,VWS V14.01,2013-07-30 05:34:00,
2013-07-30 01:35:00,71.9,67.5,30.19,ESE,106,1.0,1.0,86,0.00,,---,0.00,VWS V14.01,2013-07-30 05:35:00,
2013-07-30 01:36:00,71.9,67.5,30.19,ESE,106,1.0,1.0,86,0.00,,---,0.00,VWS V14.01,2013-07-30 05:36:00,
2013-07-30 01:37:00,71.9,67.5,30.19,ESE,106,1.0,1.0,86,0.00,,---,0.00,VWS V14.01,2013-07-30 05:37:00,
2013-07-30 01:38:00,71.8,67.7,30.19,ESE,106,1.0,1.0,87,0.00,,---,0.00,VWS V14.01,2013-07-30 05:38:00,
2013-07-30 01:39:00,71.8,67.7,30.19,ESE,106,1.0,1.0,87,0.00,,---,0.00,VWS V14.01,2013-07-30 05:39:00,
2013-07-30 01:40:00,71.8,67.7,30.19,NE,40,2.0,2.0,87,0.00,,---,0.00,VWS V14.01,2013-07-30 05:40:00,
2013-07-30 01:41:00,71.8,67.7,30.18,NE,39,2.0,2.0,87,0.00,,---,0.00,VWS V14.01,2013-07-30 05:41:00,
2013-07-30 01:42:00,71.8,67.7,30.18,NE,39,1.0,2.0,87,0.00,,---,0.00,VWS V14.01,2013-07-30 05:42:00,
2013-07-30 01:43:00,71.7,67.6,30.18,NE,39,1.0,2.0,87,0.00,,---,0.00,VWS V14.01,2013-07-30 05:43:00,
2013-07-30 01:44:00,71.7,67.6,30.18,NE,39,1.0,2.0,87,0.00,,---,0.00,VWS V14.01,2013-07-30 05:44:00,
2013-07-30 01:45:00,71.7,67.6,30.18,NE,38,0.0,1.0,87,0.00,,---,0.00,VWS V14.01,2013-07-30 05:45:00,
2013-07-30 01:46:00,71.6,67.5,30.19,NE,39,0.0,1.0,87,0.00,,---,0.00,VWS V14.01,2013-07-30 05:46:00,
2013-07-30 01:47:00,71.6,67.5,30.19,NE,38,1.0,1.0,87,0.00,,---,0.00,VWS V14.01,2013-07-30 05:47:00,
2013-07-30 01:48:00,71.6,67.5,30.18,NE,39,0.0,1.0,87,0.00,,---,0.00,VWS V14.01,2013-07-30 05:48:00,
2013-07-30 01:49:00,71.5,67.1,30.19,NE,39,0.0,1.0,86,0.00,,---,0.00,VWS V14.01,2013-07-30 05:49:00,
2013-07-30 01:50:00,71.5,67.1,30.19,NE,39,0.0,0.0,86,0.00,,---,0.00,VWS V14.01,2013-07-30 05:50:00,
2013-07-30 01:51:00,71.5,67.1,30.19,NE,38,0.0,0.0,86,0.00,,---,0.00,VWS V14.01,2013-07-30 05:51:00,
2013-07-30 01:52:00,71.5,67.1,30.19,NE,39,0.0,0.0,86,0.00,,---,0.00,VWS V14.01,2013-07-30 05:52:00,
2013-07-30 01:53:00,71.5,67.1,30.18,NE,38,0.0,0.0,86,0.00,,---,0.00,VWS V14.01,2013-07-30 05:53:00,
2013-07-30 01:54:00,71.5,67.1,30.18,NE,39,0.0,0.0,86,0.00,,---,0.00,VWS V14.01,2013-07-30 05:54:00,
2013-07-30 01:55:00,71.5,67.1,30.18,NE,39,0.0,0.0,86,0.00,,---,0.00,VWS V14.01,2013-07-30 05:55:00,
2013-07-30 01:56:00,71.5,67.1,30.19,NE,39,0.0,0.0,86,0.00,,---,0.00,VWS V14.01,2013-07-30 05:56:00,
2013-07-30 01:57:00,71.5,67.1,30.19,NE,39,0.0,0.0,86,0.00,,---,0.00,VWS V14.01,2013-07-30 05:57:00,
2013-07-30 01:58:00,71.5,67.1,30.19,NE,39,0.0,0.0,86,0.00,,---,0.00,VWS V14.01,2013-07-30 05:58:00,
2013-07-30 01:59:00,71.5,67.1,30.18,NE,39,0.0,0.0,86,0.00,,---,0.00,VWS V14.01,2013-07-30 05:59:00,
2013-07-30 02:00:00,71.6,67.2,30.18,NE,39,0.0,0.0,86,0.00,,---,0.00,VWS V14.01,2013-07-30 06:00:00,
2013-07-30 02:01:00,71.6,67.2,30.18,NE,38,0.0,0.0,86,0.00,,---,0.00,VWS V14.01,2013-07-30 06:01:00,
2013-07-30 02:02:00,71.6,67.2,30.18,NE,39,0.0,0.0,86,0.00,,---,0.00,VWS V14.01,2013-07-30 06:02:00,
2013-07-30 02:03:00,71.6,67.2,30.19,NE,39,0.0,0.0,86,0.00,,---,0.00,VWS V14.01,2013-07-30 06:03:00,
2013-07-30 02:04:00,71.6,67.2,30.18,NE,38,0.0,0.0,86,0.00,,---,0.00,VWS V14.01,2013-07-30 06:04:00,
2013-07-30 02:05:00,71.6,67.5,30.18,NE,38,0.0,0.0,87,0.00,,---,0.00,VWS V14.01,2013-07-30 06:05:00,
2013-07-30 02:06:00,71.6,67.5,30.18,NE,39,0.0,0.0,87,0.00,,---,0.00,VWS V14.01,2013-07-30 06:06:00,
2013-07-30 02:07:00,71.6,67.5,30.18,NE,39,0.0,0.0,87,0.00,,---,0.00,VWS V14.01,2013-07-30 06:07:00,
2013-07-30 02:08:00,71.6,67.5,30.18,NE,38,0.0,0.0,87,0.00,,---,0.00,VWS V14.01,2013-07-30 06:08:00,
2013-07-30 02:09:00,71.6,67.5,30.18,NE,39,0.0,0.0,87,0.00,,---,0.00,VWS V14.01,2013-07-30 06:09:00,
2013-07-30 02:10:00,71.6,67.5,30.18,NE,39,0.0,0.0,87,0.00,,---,0.00,VWS V14.01,2013-07-30 06:10:00,
2013-07-30 02:11:00,71.6,67.5,30.18,NE,39,0.0,0.0,87,0.00,,---,0.00,VWS V14.01,2013-07-30 06:11:00,
2013-07-30 02:12:00,71.6,67.2,30.18,NE,38,0.0,0.0,86,0.00,,---,0.00,VWS V14.01,2013-07-30 06:12:00,
2013-07-30 02:13:00,71.6,67.2,30.18,NE,38,0.0,0.0,86,0.00,,---,0.00,VWS V14.01,2013-07-30 06:13:00,
2013-07-30 02:14:00,71.6,67.2,30.18,NE,38,0.0,0.0,86,0.00,,---,0.00,VWS V14.01,2013-07-30 06:14:00,
2013-07-30 02:15:00,71.6,67.2,30.18,NE,39,0.0,0.0,86,0.00,,---,0.00,VWS V14.01,2013-07-30 06:15:00,
2013-07-30 02:16:00,71.6,67.2,30.18,NE,39,0.0,0.0,86,0.00,,---,0.00,VWS V14.01,2013-07-30 06:16:00,
2013-07-30 02:17:00,71.6,67.2,30.18,NE,39,0.0,0.0,86,0.00,,---,0.00,VWS V14.01,2013-07-30 06:17:00,
2013-07-30 02:18:00,71.6,66.9,30.18,NE,38,0.0,0.0,85,0.00,,---,0.00,VWS V14.01,2013-07-30 06:18:00,
2013-07-30 02:19:00,71.6,66.9,30.18,NE,39,0.0,0.0,85,0.00,,---,0.00,VWS V14.01,2013-07-30 06:19:00,
2013-07-30 02:20:00,71.6,66.9,30.18,NE,38,0.0,0.0,85,0.00,,---,0.00,VWS V14.01,2013-07-30 06:20:00,
2013-07-30 02:21:00,71.7,66.9,30.18,NE,39,0.0,0.0,85,0.00,,---,0.00,VWS V14.01,2013-07-30 06:21:00,
2013-07-30 02:22:00,71.7,67.0,30.18,NE,39,0.0,0.0,85,0.00,,---,0.00,VWS V14.01,2013-07-30 06:22:00,
2013-07-30 02:23:00,71.7,67.0,30.18,NE,39,0.0,0.0,85,0.00,,---,0.00,VWS V14.01,2013-07-30 06:23:00,
2013-07-30 02:24:00,71.7,67.0,30.18,NE,47,0.0,0.0,85,0.00,,---,0.00,VWS V14.01,2013-07-30 06:24:00,
2013-07-30 02:25:00,71.7,67.0,30.18,NE,47,0.0,0.0,85,0.00,,---,0.00,VWS V14.01,2013-07-30 06:25:00,
2013-07-30 02:26:00,71.7,66.9,30.18,NE,47,0.0,0.0,85,0.00,,---,0.00,VWS V14.01,2013-07-30 06:26:00,
2013-07-30 02:27:00,71.7,67.0,30.18,NE,47,0.0,0.0,85,0.00,,---,0.00,VWS V14.01,2013-07-30 06:27:00,
2013-07-30 02:28:00,71.7,67.0,30.18,NE,47,0.0,0.0,85,0.00,,---,0.00,VWS V14.01,2013-07-30 06:28:00,
2013-07-30 02:29:00,71.7,67.0,30.18,NE,47,0.0,0.0,85,0.00,,---,0.00,VWS V14.01,2013-07-30 06:29:00,
2013-07-30 02:30:00,71.7,67.0,30.18,NE,47,0.0,0.0,85,0.00,,---,0.00,VWS V14.01,2013-07-30 06:30:00,
2013-07-30 02:31:00,71.7,66.9,30.18,NE,47,0.0,0.0,85,0.00,,---,0.00,VWS V14.01,2013-07-30 06:31:00,
2013-07-30 02:32:00,71.7,67.0,30.18,NE,47,0.0,0.0,85,0.00,,---,0.00,VWS V14.01,2013-07-30 06:32:00,
2013-07-30 02:33:00,71.7,66.6,30.18,NE,49,0.0,0.0,84,0.00,,---,0.00,VWS V14.01,2013-07-30 06:33:00,
2013-07-30 02:34:00,71.7,66.6,30.18,ENE,57,1.0,2.0,84,0.00,,---,0.00,VWS V14.01,2013-07-30 06:34:00,
2013-07-30 02:35:00,71.7,66.6,30.18,ENE,57,1.0,2.0,84,0.00,,---,0.00,VWS V14.01,2013-07-30 06:35:00,
2013-07-30 02:36:00,71.7,66.6,30.18,ENE,57,2.0,2.0,84,0.00,,---,0.00,VWS V14.01,2013-07-30 06:36:00,
2013-07-30 02:37:00,71.7,66.6,30.18,ENE,57,2.0,2.0,84,0.00,,---,0.00,VWS V14.01,2013-07-30 06:37:00,
2013-07-30 02:38:00,71.7,66.6,30.18,ENE,57,2.0,2.0,84,0.00,,---,0.00,VWS V14.01,2013-07-30 06:38:00,
2013-07-30 02:39:00,71.7,66.6,30.18,ENE,57,2.0,2.0,84,0.00,,---,0.00,VWS V14.01,2013-07-30 06:39:00,
2013-07-30 02:40:00,71.7,66.6,30.18,ENE,57,1.0,2.0,84,0.00,,---,0.00,VWS V14.01,2013-07-30 06:40:00,
2013-07-30 02:41:00,71.6,66.5,30.18,ENE,57,1.0,1.0,84,0.00,,---,0.00,VWS V14.01,2013-07-30 06:41:00,
2013-07-30 02:42:00,71.6,66.5,30.18,ENE,57,0.0,1.0,84,0.00,,---,0.00,VWS V14.01,2013-07-30 06:42:00,
2013-07-30 02:43:00,71.6,66.5,30.18,ENE,57,0.0,0.0,84,0.00,,---,0.00,VWS V14.01,2013-07-30 06:43:00,
2013-07-30 02:44:00,71.6,66.5,30.18,ENE,57,0.0,1.0,84,0.00,,---,0.00,VWS V14.01,2013-07-30 06:44:00,
2013-07-30 02:45:00,71.5,66.4,30.18,ENE,57,1.0,1.0,84,0.00,,---,0.00,VWS V14.01,2013-07-30 06:45:00,
2013-07-30 02:46:00,71.5,66.8,30.18,ENE,57,1.0,1.0,85,0.00,,---,0.00,VWS V14.01,2013-07-30 06:46:00,
2013-07-30 02:47:00,71.5,66.8,30.18,ENE,57,1.0,1.0,85,0.00,,---,0.00,VWS V14.01,2013-07-30 06:47:00,
2013-07-30 02:48:00,71.5,66.8,30.18,ENE,57,2.0,2.0,85,0.00,,---,0.00,VWS V14.01,2013-07-30 06:48:00,
2013-07-30 02:49:00,71.4,66.7,30.18,ENE,57,2.0,2.0,85,0.00,,---,0.00,VWS V14.01,2013-07-30 06:49:00,
2013-07-30 02:50:00,71.4,66.7,30.18,ENE,57,1.0,2.0,85,0.00,,---,0.00,VWS V14.01,2013-07-30 06:50:00,
2013-07-30 02:51:00,71.4,66.7,30.18,ENE,57,1.0,2.0,85,0.00,,---,0.00,VWS V14.01,2013-07-30 06:51:00,
2013-07-30 02:52:00,71.4,66.7,30.18,ENE,57,1.0,2.0,85,0.00,,---,0.00,VWS V14.01,2013-07-30 06:52:00,
2013-07-30 02:53:00,71.4,66.7,30.19,ENE,57,1.0,1.0,85,0.00,,---,0.00,VWS V14.01,2013-07-30 06:53:00,
2013-07-30 02:54:00,71.4,66.7,30.18,ENE,57,1.0,1.0,85,0.00,,---,0.00,VWS V14.01,2013-07-30 06:54:00,
2013-07-30 02:55:00,71.3,66.6,30.18,ENE,57,1.0,1.0,85,0.00,,---,0.00,VWS V14.01,2013-07-30 06:55:00,
2013-07-30 02:56:00,71.2,66.5,30.18,ENE,57,0.0,0.0,85,0.00,,---,0.00,VWS V14.01,2013-07-30 06:56:00,
2013-07-30 02:57:00,71.2,66.5,30.18,ENE,57,0.0,0.0,85,0.00,,---,0.00,VWS V14.01,2013-07-30 06:57:00,
2013-07-30 02:58:00,71.2,66.5,30.18,ENE,57,0.0,0.0,85,0.00,,---,0.00,VWS V14.01,2013-07-30 06:58:00,
2013-07-30 02:59:00,71.2,66.5,30.18,ENE,57,0.0,0.0,85,0.00,,---,0.00,VWS V14.01,2013-07-30 06:59:00,
2013-07-30 03:00:00,71.1,66.4,30.18,ENE,57,0.0,0.0,85,0.00,,---,0.00,VWS V14.01,2013-07-30 07:00:00,
2013-07-30 03:01:00,71.1,66.4,30.18,ENE,57,0.0,0.0,85,0.00,,---,0.00,VWS V14.01,2013-07-30 07:01:00,
2013-07-30 03:02:00,71.0,66.3,30.18,ENE,57,0.0,0.0,85,0.00,,---,0.00,VWS V14.01,2013-07-30 07:02:00,
2013-07-30 03:03:00,71.0,66.3,30.18,ENE,57,0.0,0.0,85,0.00,,---,0.00,VWS V14.01,2013-07-30 07:03:00,
2013-07-30 03:04:00,70.9,66.2,30.18,ENE,57,0.0,0.0,85,0.00,,---,0.00,VWS V14.01,2013-07-30 07:04:00,
2013-07-30 03:05:00,70.9,66.2,30.18,ENE,57,0.0,0.0,85,0.00,,---,0.00,VWS V14.01,2013-07-30 07:05:00,
2013-07-30 03:06:00,70.9,66.5,30.18,ENE,57,0.0,0.0,86,0.00,,---,0.00,VWS V14.01,2013-07-30 07:06:00,
2013-07-30 03:07:00,70.9,66.5,30.18,ENE,57,0.0,0.0,86,0.00,,---,0.00,VWS V14.01,2013-07-30 07:07:00,
2013-07-30 03:08:00,70.8,66.4,30.18,ENE,57,0.0,0.0,86,0.00,,---,0.00,VWS V14.01,2013-07-30 07:08:00,
2013-07-30 03:09:00,70.8,66.4,30.18,ENE,57,0.0,0.0,86,0.00,,---,0.00,VWS V14.01,2013-07-30 07:09:00,
2013-07-30 03:10:00,70.8,66.4,30.18,ENE,57,0.0,0.0,86,0.00,,---,0.00,VWS V14.01,2013-07-30 07:10:00,
2013-07-30 03:11:00,70.7,66.3,30.18,ENE,57,0.0,0.0,86,0.00,,---,0.00,VWS V14.01,2013-07-30 07:11:00,
2013-07-30 03:12:00,70.6,66.2,30.18,ENE,57,0.0,0.0,86,0.00,,---,0.00,VWS V14.01,2013-07-30 07:12:00,
2013-07-30 03:13:00,70.6,66.6,30.18,ENE,57,0.0,0.0,87,0.00,,---,0.00,VWS V14.01,2013-07-30 07:13:00,
2013-07-30 03:14:00,70.6,66.6,30.18,ENE,57,0.0,0.0,87,0.00,,---,0.00,VWS V14.01,2013-07-30 07:14:00,
2013-07-30 03:15:00,70.5,66.4,30.18,ENE,57,0.0,0.0,87,0.00,,---,0.00,VWS V14.01,2013-07-30 07:15:00,
2013-07-30 03:16:00,70.5,66.4,30.18,ENE,57,0.0,0.0,87,0.00,,---,0.00,VWS V14.01,2013-07-30 07:16:00,
2013-07-30 03:17:00,70.5,66.4,30.18,ENE,57,0.0,0.0,87,0.00,,---,0.00,VWS V14.01,2013-07-30 07:17:00,
2013-07-30 03:18:00,70.4,66.3,30.18,ENE,57,0.0,0.0,87,0.00,,---,0.00,VWS V14.01,2013-07-30 07:18:00,
2013-07-30 03:19:00,70.4,66.0,30.18,ENE,57,0.0,0.0,86,0.00,,---,0.00,VWS V14.01,2013-07-30 07:19:00,
2013-07-30 03:20:00,70.3,65.9,30.18,ENE,57,0.0,0.0,86,0.00,,---,0.00,VWS V14.01,2013-07-30 07:20:00,
2013-07-30 03:21:00,70.3,65.9,30.18,ENE,57,0.0,0.0,86,0.00,,---,0.00,VWS V14.01,2013-07-30 07:21:00,
2013-07-30 03:22:00,70.3,65.9,30.18,ENE,57,0.0,0.0,86,0.00,,---,0.00,VWS V14.01,2013-07-30 07:22:00,
2013-07-30 03:23:00,70.3,66.2,30.18,ENE,57,0.0,0.0,87,0.00,,---,0.00,VWS V14.01,2013-07-30 07:23:00,
2013-07-30 03:24:00,70.3,66.2,30.18,ENE,57,0.0,0.0,87,0.00,,---,0.00,VWS V14.01,2013-07-30 07:24:00,
2013-07-30 03:25:00,70.3,66.2,30.18,ENE,57,0.0,0.0,87,0.00,,---,0.00,VWS V14.01,2013-07-30 07:25:00,
2013-07-30 03:26:00,70.3,66.2,30.18,ENE,57,0.0,0.0,87,0.00,,---,0.00,VWS V14.01,2013-07-30 07:26:00,
2013-07-30 03:27:00,70.3,66.2,30.18,ENE,57,0.0,0.0,87,0.00,,---,0.00,VWS V14.01,2013-07-30 07:27:00,
2013-07-30 03:28:00,70.2,66.2,30.18,ENE,57,0.0,0.0,87,0.00,,---,0.00,VWS V14.01,2013-07-30 07:28:00,
2013-07-30 03:29:00,70.2,66.2,30.18,ENE,57,0.0,0.0,87,0.00,,---,0.00,VWS V14.01,2013-07-30 07:29:00,
2013-07-30 03:30:00,70.2,66.2,30.18,ENE,57,0.0,0.0,87,0.00,,---,0.00,VWS V14.01,2013-07-30 07:30:00,
2013-07-30 03:31:00,70.1,66.1,30.17,ENE,57,0.0,0.0,87,0.00,,---,0.00,VWS V14.01,2013-07-30 07:31:00,
2013-07-30 03:32:00,70.1,66.1,30.18,ENE,57,0.0,0.0,87,0.00,,---,0.00,VWS V14.01,2013-07-30 07:32:00,
2013-07-30 03:33:00,70.1,66.1,30.18,ENE,57,0.0,0.0,87,0.00,,---,0.00,VWS V14.01,2013-07-30 07:33:00,
2013-07-30 03:34:00,70.0,66.0,30.18,ENE,57,0.0,0.0,87,0.00,,---,0.00,VWS V14.01,2013-07-30 07:34:00,
2013-07-30 03:35:00,70.0,66.0,30.18,ENE,57,0.0,0.0,87,0.00,,---,0.00,VWS V14.01,2013-07-30 07:35:00,
2013-07-30 03:36:00,70.0,66.0,30.18,ENE,57,0.0,0.0,87,0.00,,---,0.00,VWS V14.01,2013-07-30 07:36:00,
2013-07-30 03:37:00,69.9,65.9,30.18,ENE,57,0.0,0.0,87,0.00,,---,0.00,VWS V14.01,2013-07-30 07:37:00,
2013-07-30 03:38:00,69.9,65.9,30.18,ENE,57,0.0,0.0,87,0.00,,---,0.00,VWS V14.01,2013-07-30 07:38:00,
2013-07-30 03:39:00,69.9,65.9,30.18,ENE,57,0.0,0.0,87,0.00,,---,0.00,VWS V14.01,2013-07-30 07:39:00,
2013-07-30 03:40:00,69.8,65.8,30.18,ENE,57,0.0,0.0,87,0.00,,---,0.00,VWS V14.01,2013-07-30 07:40:00,
2013-07-30 03:41:00,69.8,65.8,30.18,ENE,57,0.0,0.0,87,0.00,,---,0.00,VWS V14.01,2013-07-30 07:41:00,
2013-07-30 03:42:00,69.8,65.8,30.18,ENE,57,0.0,0.0,87,0.00,,---,0.00,VWS V14.01,2013-07-30 07:42:00,
2013-07-30 03:43:00,69.8,65.4,30.18,ENE,57,0.0,0.0,86,0.00,,---,0.00,VWS V14.01,2013-07-30 07:43:00,
2013-07-30 03:44:00,69.7,65.3,30.17,ENE,57,0.0,0.0,86,0.00,,---,0.00,VWS V14.01,2013-07-30 07:44:00,
2013-07-30 03:45:00,69.7,65.3,30.17,ENE,57,0.0,0.0,86,0.00,,---,0.00,VWS V14.01,2013-07-30 07:45:00,
2013-07-30 03:46:00,69.8,65.4,30.17,ENE,57,0.0,0.0,86,0.00,,---,0.00,VWS V14.01,2013-07-30 07:46:00,
2013-07-30 03:47:00,69.8,65.4,30.17,ENE,57,0.0,0.0,86,0.00,,---,0.00,VWS V14.01,2013-07-30 07:47:00,
2013-07-30 03:48:00,69.8,65.4,30.17,ENE,57,0.0,0.0,86,0.00,,---,0.00,VWS V14.01,2013-07-30 07:48:00,
2013-07-30 03:49:00,69.8,65.4,30.17,ENE,57,0.0,0.0,86,0.00,,---,0.00,VWS V14.01,2013-07-30 07:49:00,
2013-07-30 03:50:00,69.8,65.4,30.17,ENE,57,0.0,0.0,86,0.00,,---,0.00,VWS V14.01,2013-07-30 07:50:00,
2013-07-30 03:51:00,69.8,65.4,30.17,ENE,57,0.0,0.0,86,0.00,,---,0.00,VWS V14.01,2013-07-30 07:51:00,
2013-07-30 03:52:00,69.8,65.4,30.17,ENE,57,0.0,0.0,86,0.00,,---,0.00,VWS V14.01,2013-07-30 07:52:00,
2013-07-30 03:53:00,69.8,65.4,30.17,ENE,57,0.0,0.0,86,0.00,,---,0.00,VWS V14.01,2013-07-30 07:53:00,
2013-07-30 03:54:00,69.8,65.4,30.17,ENE,57,0.0,0.0,86,0.00,,---,0.00,VWS V14.01,2013-07-30 07:54:00,
2013-07-30 03:55:00,69.7,65.3,30.17,ENE,57,0.0,0.0,86,0.00,,---,0.00,VWS V14.01,2013-07-30 07:55:00,
2013-07-30 03:56:00,69.7,65.3,30.17,ENE,57,0.0,0.0,86,0.00,,---,0.00,VWS V14.01,2013-07-30 07:56:00,
2013-07-30 03:57:00,69.7,65.3,30.17,ENE,57,0.0,0.0,86,0.00,,---,0.00,VWS V14.01,2013-07-30 07:57:00,
2013-07-30 03:58:00,69.7,65.3,30.17,ENE,57,0.0,0.0,86,0.00,,---,0.00,VWS V14.01,2013-07-30 07:58:00,
2013-07-30 03:59:00,69.7,65.3,30.17,ENE,57,0.0,0.0,86,0.00,,---,0.00,VWS V14.01,2013-07-30 07:59:00,
2013-07-30 04:00:00,69.6,65.2,30.17,ENE,57,0.0,0.0,86,0.00,,---,0.00,VWS V14.01,2013-07-30 08:00:00,
2013-07-30 04:01:00,69.6,65.2,30.17,ENE,57,0.0,0.0,86,0.00,,---,0.00,VWS V14.01,2013-07-30 08:01:00,
2013-07-30 04:02:00,69.6,64.9,30.17,ENE,57,0.0,0.0,85,0.00,,---,0.00,VWS V14.01,2013-07-30 08:02:00,
2013-07-30 04:03:00,69.6,64.9,30.17,ENE,57,0.0,0.0,85,0.00,,---,0.00,VWS V14.01,2013-07-30 08:03:00,
2013-07-30 04:04:00,69.6,64.9,30.17,ENE,57,0.0,0.0,85,0.00,,---,0.00,VWS V14.01,2013-07-30 08:04:00,
2013-07-30 04:05:00,69.5,64.8,30.17,ENE,57,0.0,0.0,85,0.00,,---,0.00,VWS V14.01,2013-07-30 08:05:00,
2013-07-30 04:06:00,69.5,64.8,30.17,ENE,57,0.0,0.0,85,0.00,,---,0.00,VWS V14.01,2013-07-30 08:06:00,
2013-07-30 04:07:00,69.5,64.8,30.17,ENE,57,0.0,0.0,85,0.00,,---,0.00,VWS V14.01,2013-07-30 08:07:00,
2013-07-30 04:08:00,69.5,64.8,30.17,ENE,57,0.0,0.0,85,0.00,,---,0.00,VWS V14.01,2013-07-30 08:08:00,
2013-07-30 04:09:00,69.5,64.8,30.17,ENE,57,0.0,0.0,85,0.00,,---,0.00,VWS V14.01,2013-07-30 08:09:00,
2013-07-30 04:10:00,69.5,64.8,30.17,ENE,57,0.0,0.0,85,0.00,,---,0.00,VWS V14.01,2013-07-30 08:10:00,
2013-07-30 04:11:00,69.5,64.8,30.17,ENE,57,0.0,0.0,85,0.00,,---,0.00,VWS V14.01,2013-07-30 08:11:00,
2013-07-30 04:12:00,69.5,64.8,30.17,ENE,57,0.0,0.0,85,0.00,,---,0.00,VWS V14.01,2013-07-30 08:12:00,
2013-07-30 04:13:00,69.5,64.8,30.17,ENE,57,0.0,0.0,85,0.00,,---,0.00,VWS V14.01,2013-07-30 08:13:00,
2013-07-30 04:14:00,69.5,64.5,30.17,ENE,57,0.0,0.0,84,0.00,,---,0.00,VWS V14.01,2013-07-30 08:14:00,
2013-07-30 04:15:00,69.5,64.5,30.17,ENE,57,0.0,0.0,84,0.00,,---,0.00,VWS V14.01,2013-07-30 08:15:00,
2013-07-30 04:16:00,69.5,64.5,30.17,ENE,57,0.0,0.0,84,0.00,,---,0.00,VWS V14.01,2013-07-30 08:16:00,
2013-07-30 04:17:00,69.5,64.8,30.17,ENE,57,0.0,0.0,85,0.00,,---,0.00,VWS V14.01,2013-07-30 08:17:00,
2013-07-30 04:18:00,69.4,64.4,30.17,ENE,57,0.0,0.0,84,0.00,,---,0.00,VWS V14.01,2013-07-30 08:18:00,
2013-07-30 04:19:00,69.4,64.4,30.17,ENE,57,0.0,0.0,84,0.00,,---,0.00,VWS V14.01,2013-07-30 08:19:00,
2013-07-30 04:20:00,69.4,64.4,30.17,ENE,57,0.0,0.0,84,0.00,,---,0.00,VWS V14.01,2013-07-30 08:20:00,
2013-07-30 04:21:00,69.4,64.4,30.17,ENE,57,0.0,0.0,84,0.00,,---,0.00,VWS V14.01,2013-07-30 08:21:00,
2013-07-30 04:22:00,69.4,64.4,30.17,ENE,57,0.0,0.0,84,0.00,,---,0.00,VWS V14.01,2013-07-30 08:22:00,
2013-07-30 04:23:00,69.3,64.3,30.17,ENE,57,0.0,0.0,84,0.00,,---,0.00,VWS V14.01,2013-07-30 08:23:00,
2013-07-30 04:24:00,69.3,64.3,30.17,ENE,57,0.0,0.0,84,0.00,,---,0.00,VWS V14.01,2013-07-30 08:24:00,
2013-07-30 04:25:00,69.3,64.3,30.17,ENE,57,0.0,0.0,84,0.00,,---,0.00,VWS V14.01,2013-07-30 08:25:00,
2013-07-30 04:26:00,69.3,64.3,30.17,ENE,57,0.0,0.0,84,0.00,,---,0.00,VWS V14.01,2013-07-30 08:26:00,
2013-07-30 04:27:00,69.3,64.3,30.17,ENE,57,0.0,0.0,84,0.00,,---,0.00,VWS V14.01,2013-07-30 08:27:00,
2013-07-30 04:28:00,69.3,64.3,30.17,ENE,57,0.0,0.0,84,0.00,,---,0.00,VWS V14.01,2013-07-30 08:28:00,
2013-07-30 04:29:00,69.2,64.2,30.17,ENE,57,0.0,0.0,84,0.00,,---,0.00,VWS V14.01,2013-07-30 08:29:00,
2013-07-30 04:30:00,69.2,64.2,30.17,ENE,57,0.0,0.0,84,0.00,,---,0.00,VWS V14.01,2013-07-30 08:30:00,
2013-07-30 04:31:00,69.2,64.2,30.17,ENE,57,0.0,0.0,84,0.00,,---,0.00,VWS V14.01,2013-07-30 08:31:00,
2013-07-30 04:32:00,69.2,64.5,30.17,ENE,57,0.0,0.0,85,0.00,,---,0.00,VWS V14.01,2013-07-30 08:32:00,
2013-07-30 04:33:00,69.2,64.5,30.17,ENE,57,0.0,0.0,85,0.00,,---,0.00,VWS V14.01,2013-07-30 08:33:00,
2013-07-30 04:34:00,69.2,64.5,30.17,ENE,57,0.0,0.0,85,0.00,,---,0.00,VWS V14.01,2013-07-30 08:34:00,
2013-07-30 04:35:00,69.1,64.4,30.17,ENE,57,0.0,0.0,85,0.00,,---,0.00,VWS V14.01,2013-07-30 08:35:00,
2013-07-30 04:36:00,69.1,64.4,30.18,ENE,57,0.0,0.0,85,0.00,,---,0.00,VWS V14.01,2013-07-30 08:36:00,
2013-07-30 04:37:00,69.0,64.3,30.18,ENE,57,0.0,0.0,85,0.00,,---,0.00,VWS V14.01,2013-07-30 08:37:00,
2013-07-30 04:38:00,69.0,64.3,30.18,ENE,57,0.0,0.0,85,0.00,,---,0.00,VWS V14.01,2013-07-30 08:38:00,
2013-07-30 04:39:00,69.0,64.6,30.18,ENE,57,0.0,0.0,86,0.00,,---,0.00,VWS V14.01,2013-07-30 08:39:00,
2013-07-30 04:40:00,68.9,64.5,30.18,ENE,57,0.0,0.0,86,0.00,,---,0.00,VWS V14.01,2013-07-30 08:40:00,
2013-07-30 04:41:00,68.8,64.4,30.18,ENE,57,0.0,0.0,86,0.00,,---,0.00,VWS V14.01,2013-07-30 08:41:00,
2013-07-30 04:42:00,68.7,64.3,30.18,ENE,57,0.0,0.0,86,0.00,,---,0.00,VWS V14.01,2013-07-30 08:42:00,
2013-07-30 04:43:00,68.7,64.3,30.18,ENE,57,0.0,0.0,86,0.00,,---,0.00,VWS V14.01,2013-07-30 08:43:00,
2013-07-30 04:44:00,68.6,64.2,30.18,ENE,57,0.0,0.0,86,0.00,,---,0.00,VWS V14.01,2013-07-30 08:44:00,
2013-07-30 04:45:00,68.5,64.2,30.18,ENE,57,0.0,0.0,86,0.00,,---,0.00,VWS V14.01,2013-07-30 08:45:00,
2013-07-30 04:46:00,68.5,64.2,30.18,ENE,57,0.0,0.0,86,0.00,,---,0.00,VWS V14.01,2013-07-30 08:46:00,
2013-07-30 04:47:00,68.4,64.1,30.18,ENE,57,0.0,0.0,86,0.00,,---,0.00,VWS V14.01,2013-07-30 08:47:00,
2013-07-30 04:48:00,68.4,64.1,30.18,ENE,57,0.0,0.0,86,0.00,,---,0.00,VWS V14.01,2013-07-30 08:48:00,
2013-07-30 04:49:00,68.3,64.0,30.18,ENE,57,0.0,0.0,86,0.00,,---,0.00,VWS V14.01,2013-07-30 08:49:00,
2013-07-30 04:50:00,68.3,64.0,30.18,ENE,57,0.0,0.0,86,0.00,,---,0.00,VWS V14.01,2013-07-30 08:50:00,
2013-07-30 04:51:00,68.2,63.9,30.18,ENE,57,0.0,0.0,86,0.00,,---,0.00,VWS V14.01,2013-07-30 08:51:00,
2013-07-30 04:52:00,68.1,63.8,30.18,ENE,57,0.0,0.0,86,0.00,,---,0.00,VWS V14.01,2013-07-30 08:52:00,
2013-07-30 04:53:00,68.1,63.8,30.18,ENE,57,0.0,0.0,86,0.00,,---,0.00,VWS V14.01,2013-07-30 08:53:00,
2013-07-30 04:54:00,68.1,63.8,30.18,ENE,57,0.0,0.0,86,0.00,,---,0.00,VWS V14.01,2013-07-30 08:54:00,
2013-07-30 04:55:00,68.1,63.8,30.18,ENE,57,0.0,0.0,86,0.00,,---,0.00,VWS V14.01,2013-07-30 08:55:00,
2013-07-30 04:56:00,68.1,63.8,30.18,ENE,57,0.0,0.0,86,0.00,,---,0.00,VWS V14.01,2013-07-30 08:56:00,
2013-07-30 04:57:00,68.1,63.8,30.18,ENE,57,0.0,0.0,86,0.00,,---,0.00,VWS V14.01,2013-07-30 08:57:00,
2013-07-30 04:58:00,68.1,63.8,30.18,ENE,57,0.0,0.0,86,0.00,,---,0.00,VWS V14.01,2013-07-30 08:58:00,
2013-07-30 04:59:00,68.1,63.8,30.18,ENE,57,0.0,0.0,86,0.00,,---,0.00,VWS V14.01,2013-07-30 08:59:00,
2013-07-30 05:00:00,68.1,63.8,30.18,ENE,57,0.0,0.0,86,0.00,,---,0.00,VWS V14.01,2013-07-30 09:00:00,
2013-07-30 05:01:00,68.1,63.8,30.18,ENE,57,0.0,0.0,86,0.00,,---,0.00,VWS V14.01,2013-07-30 09:01:00,
2013-07-30 05:02:00,68.1,63.8,30.18,ENE,57,0.0,0.0,86,0.00,,---,0.00,VWS V14.01,2013-07-30 09:02:00,
2013-07-30 05:03:00,68.1,63.8,30.18,ENE,57,0.0,0.0,86,0.00,,---,0.00,VWS V14.01,2013-07-30 09:03:00,
2013-07-30 05:04:00,68.1,63.8,30.18,ENE,57,0.0,0.0,86,0.00,,---,0.00,VWS V14.01,2013-07-30 09:04:00,
2013-07-30 05:05:00,68.2,63.9,30.18,ENE,57,0.0,0.0,86,0.00,,---,0.00,VWS V14.01,2013-07-30 09:05:00,
2013-07-30 05:06:00,68.2,63.9,30.18,ENE,57,0.0,0.0,86,0.00,,---,0.00,VWS V14.01,2013-07-30 09:06:00,
2013-07-30 05:07:00,68.3,64.0,30.18,ENE,57,0.0,0.0,86,0.00,,---,0.00,VWS V14.01,2013-07-30 09:07:00,
2013-07-30 05:08:00,68.3,64.0,30.18,ENE,57,0.0,0.0,86,0.00,,---,0.00,VWS V14.01,2013-07-30 09:08:00,
2013-07-30 05:09:00,68.3,64.0,30.18,ENE,57,0.0,0.0,86,0.00,,---,0.00,VWS V14.01,2013-07-30 09:09:00,
2013-07-30 05:10:00,68.4,64.1,30.18,ENE,57,0.0,0.0,86,0.00,,---,0.00,VWS V14.01,2013-07-30 09:10:00,
2013-07-30 05:11:00,68.4,64.1,30.19,ENE,57,0.0,0.0,86,0.00,,---,0.00,VWS V14.01,2013-07-30 09:11:00,
2013-07-30 05:12:00,68.4,64.1,30.19,ENE,57,0.0,0.0,86,0.00,,---,0.00,VWS V14.01,2013-07-30 09:12:00,
2013-07-30 05:13:00,68.4,64.1,30.19,NE,55,0.0,0.0,86,0.00,,---,0.00,VWS V14.01,2013-07-30 09:13:00,
2013-07-30 05:14:00,68.5,63.8,30.19,NE,52,0.0,0.0,85,0.00,,---,0.00,VWS V14.01,2013-07-30 09:14:00,
2013-07-30 05:15:00,68.4,63.7,30.19,NE,48,0.0,0.0,85,0.00,,---,0.00,VWS V14.01,2013-07-30 09:15:00,
2013-07-30 05:17:00,68.5,63.8,30.19,NE,39,0.0,0.0,85,0.00,,---,0.00,VWS V14.01,2013-07-30 09:17:00,
2013-07-30 05:18:00,68.5,64.2,30.19,NE,39,0.0,0.0,86,0.00,,---,0.00,VWS V14.01,2013-07-30 09:18:00,
2013-07-30 05:19:00,68.4,64.1,30.19,NE,39,0.0,0.0,86,0.00,,---,0.00,VWS V14.01,2013-07-30 09:19:00,
2013-07-30 05:21:00,68.4,64.1,30.19,NNE,30,0.0,0.0,86,0.00,,---,0.00,VWS V14.01,2013-07-30 09:21:00,
2013-07-30 05:22:00,68.3,64.0,30.19,NNE,29,0.0,0.0,86,0.00,,---,0.00,VWS V14.01,2013-07-30 09:22:00,
2013-07-30 05:23:00,68.3,64.0,30.19,NNE,30,0.0,0.0,86,0.00,,---,0.00,VWS V14.01,2013-07-30 09:23:00,
2013-07-30 05:25:00,68.3,63.6,30.19,NNE,27,2.0,2.0,85,0.00,,---,0.00,VWS V14.01,2013-07-30 09:25:00,
2013-07-30 05:26:00,68.2,63.5,30.19,NNE,29,2.0,3.0,85,0.00,,---,0.00,VWS V14.01,2013-07-30 09:26:00,
2013-07-30 05:27:00,68.2,63.5,30.19,NNE,31,3.0,3.0,85,0.00,,---,0.00,VWS V14.01,2013-07-30 09:27:00,
2013-07-30 05:29:00,68.2,63.5,30.19,NNE,31,1.0,2.0,85,0.00,,---,0.00,VWS V14.01,2013-07-30 09:29:00,
2013-07-30 05:31:00,68.2,63.5,30.19,NNE,31,2.0,2.0,85,0.00,,---,0.00,VWS V14.01,2013-07-30 09:31:00,
2013-07-30 05:32:00,68.2,63.2,30.19,NNE,31,2.0,2.0,84,0.00,,---,0.00,VWS V14.01,2013-07-30 09:32:00,
2013-07-30 05:33:00,68.2,63.2,30.19,NNE,31,2.0,2.0,84,0.00,,---,0.00,VWS V14.01,2013-07-30 09:33:00,
2013-07-30 05:34:00,68.2,63.2,30.19,NNE,31,1.0,2.0,84,0.00,,---,0.00,VWS V14.01,2013-07-30 09:34:00,
2013-07-30 05:35:00,68.2,63.2,30.19,NNE,31,1.0,1.0,84,0.00,,---,0.00,VWS V14.01,2013-07-30 09:35:00,
2013-07-30 05:36:00,68.2,63.2,30.19,NNE,31,1.0,1.0,84,0.00,,---,0.00,VWS V14.01,2013-07-30 09:36:00,
2013-07-30 05:37:00,68.2,63.2,30.19,NNE,31,0.0,1.0,84,0.00,,---,0.00,VWS V14.01,2013-07-30 09:37:00,
2013-07-30 05:38:00,68.2,63.2,30.19,NNE,31,0.0,1.0,84,0.00,,---,0.00,VWS V14.01,2013-07-30 09:38:00,
2013-07-30 05:39:00,68.2,63.2,30.19,NNE,31,0.0,0.0,84,0.00,,---,0.00,VWS V14.01,2013-07-30 09:39:00,
2013-07-30 05:40:00,68.2,63.2,30.19,NNE,31,0.0,1.0,84,0.00,,---,0.00,VWS V14.01,2013-07-30 09:40:00,
2013-07-30 05:41:00,68.1,63.1,30.19,NNE,31,0.0,1.0,84,0.00,,---,0.00,VWS V14.01,2013-07-30 09:41:00,
2013-07-30 05:42:00,68.1,63.1,30.19,NNE,31,0.0,0.0,84,0.00,,---,0.00,VWS V14.01,2013-07-30 09:42:00,
2013-07-30 05:43:00,68.1,63.1,30.19,NNE,31,1.0,1.0,84,0.00,,---,0.00,VWS V14.01,2013-07-30 09:43:00,
2013-07-30 05:44:00,68.0,63.0,30.19,NNE,31,1.0,1.0,84,0.00,,---,0.00,VWS V14.01,2013-07-30 09:44:00,
2013-07-30 05:45:00,68.0,63.0,30.19,NNE,30,2.0,2.0,84,0.00,,---,0.00,VWS V14.01,2013-07-30 09:45:00,
2013-07-30 05:46:00,68.0,63.0,30.19,NNE,31,2.0,2.0,84,0.00,,---,0.00,VWS V14.01,2013-07-30 09:46:00,
2013-07-30 05:47:00,68.0,63.0,30.19,NNE,31,1.0,1.0,84,0.00,,---,0.00,VWS V14.01,2013-07-30 09:47:00,
2013-07-30 05:48:00,68.0,63.0,30.19,NNE,31,1.0,1.0,84,0.00,,---,0.00,VWS V14.01,2013-07-30 09:48:00,
2013-07-30 05:49:00,68.0,62.7,30.19,NNE,31,1.0,2.0,83,0.00,,---,0.00,VWS V14.01,2013-07-30 09:49:00,
2013-07-30 05:50:00,68.0,62.7,30.20,NNE,31,1.0,1.0,83,0.00,,---,0.00,VWS V14.01,2013-07-30 09:50:00,
2013-07-30 05:51:00,68.0,62.7,30.19,NNE,31,1.0,1.0,83,0.00,,---,0.00,VWS V14.01,2013-07-30 09:51:00,
2013-07-30 05:52:00,68.0,62.7,30.20,NNE,31,1.0,1.0,83,0.00,,---,0.00,VWS V14.01,2013-07-30 09:52:00,
2013-07-30 05:53:00,68.0,62.7,30.20,NNE,31,1.0,1.0,83,0.00,,---,0.00,VWS V14.01,2013-07-30 09:53:00,
2013-07-30 05:54:00,67.9,62.5,30.20,NNE,30,1.0,1.0,83,0.00,,---,0.00,VWS V14.01,2013-07-30 09:54:00,
2013-07-30 05:55:00,67.9,62.5,30.20,NNE,31,1.0,1.0,83,0.00,,---,0.00,VWS V14.01,2013-07-30 09:55:00,
2013-07-30 05:56:00,67.9,62.5,30.20,NNE,30,1.0,1.0,83,0.00,,---,0.00,VWS V14.01,2013-07-30 09:56:00,
2013-07-30 05:57:00,67.9,62.5,30.20,NNE,31,1.0,1.0,83,0.00,,---,0.00,VWS V14.01,2013-07-30 09:57:00,
2013-07-30 05:58:00,67.8,62.5,30.20,NNE,31,1.0,1.0,83,0.00,,---,0.00,VWS V14.01,2013-07-30 09:58:00,
2013-07-30 05:59:00,67.8,62.5,30.20,NNE,31,1.0,1.0,83,0.00,,---,0.00,VWS V14.01,2013-07-30 09:59:00,
2013-07-30 06:00:00,67.8,62.5,30.20,NNE,31,1.0,1.0,83,0.00,,---,0.00,VWS V14.01,2013-07-30 10:00:00,
2013-07-30 06:01:00,67.8,62.5,30.20,NNE,31,1.0,1.0,83,0.00,,---,0.00,VWS V14.01,2013-07-30 10:01:00,
2013-07-30 06:02:00,67.7,62.7,30.20,NNE,31,0.0,1.0,84,0.00,,---,0.00,VWS V14.01,2013-07-30 10:02:00,
2013-07-30 06:03:00,67.7,62.7,30.20,NNE,31,0.0,1.0,84,0.00,,---,0.00,VWS V14.01,2013-07-30 10:03:00,
2013-07-30 06:04:00,67.6,62.6,30.20,NNE,31,0.0,0.0,84,0.00,,---,0.00,VWS V14.01,2013-07-30 10:04:00,
2013-07-30 06:05:00,67.5,62.5,30.20,NNE,31,0.0,0.0,84,0.00,,---,0.00,VWS V14.01,2013-07-30 10:05:00,
2013-07-30 06:06:00,67.5,62.5,30.20,NNE,30,0.0,0.0,84,0.00,,---,0.00,VWS V14.01,2013-07-30 10:06:00,
2013-07-30 06:07:00,67.3,62.3,30.20,NNE,31,0.0,0.0,84,0.00,,---,0.00,VWS V14.01,2013-07-30 10:07:00,
2013-07-30 06:08:00,67.4,62.4,30.20,NNE,31,0.0,0.0,84,0.00,,---,0.00,VWS V14.01,2013-07-30 10:08:00,
2013-07-30 06:09:00,67.3,62.3,30.20,NNE,31,0.0,1.0,84,0.00,,---,0.00,VWS V14.01,2013-07-30 10:09:00,
2013-07-30 06:10:00,67.3,62.3,30.20,NNE,31,0.0,0.0,84,0.00,,---,0.00,VWS V14.01,2013-07-30 10:10:00,
2013-07-30 06:11:00,67.2,62.5,30.20,NNE,31,0.0,0.0,85,0.00,,---,0.00,VWS V14.01,2013-07-30 10:11:00,
2013-07-30 06:12:00,67.1,62.5,30.20,NNE,30,1.0,1.0,85,0.00,,---,0.00,VWS V14.01,2013-07-30 10:12:00,
2013-07-30 06:13:00,67.1,62.5,30.20,NNE,31,1.0,1.0,85,0.00,,---,0.00,VWS V14.01,2013-07-30 10:13:00,
2013-07-30 06:14:00,67.0,62.3,30.21,NNE,31,1.0,1.0,85,0.00,,---,0.00,VWS V14.01,2013-07-30 10:14:00,
2013-07-30 06:15:00,67.0,62.3,30.20,NNE,31,1.0,1.0,85,0.00,,---,0.00,VWS V14.01,2013-07-30 10:15:00,
2013-07-30 06:16:00,66.9,62.2,30.20,NNE,31,1.0,1.0,85,0.00,,---,0.00,VWS V14.01,2013-07-30 10:16:00,
2013-07-30 06:17:00,66.8,62.5,30.20,NNE,31,1.0,1.0,86,0.00,,---,0.00,VWS V14.01,2013-07-30 10:17:00,
2013-07-30 06:18:00,66.8,62.5,30.20,NNE,31,1.0,1.0,86,0.00,,---,0.00,VWS V14.01,2013-07-30 10:18:00,
2013-07-30 06:19:00,66.7,62.4,30.21,NNE,31,1.0,1.0,86,0.00,,---,0.00,VWS V14.01,2013-07-30 10:19:00,
2013-07-30 06:20:00,66.7,62.4,30.21,NNE,31,1.0,1.0,86,0.00,,---,0.00,VWS V14.01,2013-07-30 10:20:00,
2013-07-30 06:21:00,66.6,62.3,30.21,NNE,31,1.0,1.0,86,0.00,,---,0.00,VWS V14.01,2013-07-30 10:21:00,
2013-07-30 06:22:00,66.5,62.2,30.21,NNE,31,1.0,1.0,86,0.00,,---,0.00,VWS V14.01,2013-07-30 10:22:00,
2013-07-30 06:23:00,66.5,62.2,30.21,NNE,31,1.0,1.0,86,0.00,,---,0.00,VWS V14.01,2013-07-30 10:23:00,
2013-07-30 06:24:00,66.5,62.2,30.21,NNE,31,2.0,2.0,86,0.00,,---,0.00,VWS V14.01,2013-07-30 10:24:00,
2013-07-30 06:25:00,66.4,62.1,30.21,NNE,31,1.0,2.0,86,0.00,,---,0.00,VWS V14.01,2013-07-30 10:25:00,
2013-07-30 06:26:00,66.4,62.1,30.21,NNE,31,2.0,2.0,86,0.00,,---,0.00,VWS V14.01,2013-07-30 10:26:00,
2013-07-30 06:27:00,66.3,62.0,30.21,NNE,31,2.0,2.0,86,0.00,,---,0.00,VWS V14.01,2013-07-30 10:27:00,
2013-07-30 06:28:00,66.3,62.0,30.21,NNE,31,2.0,2.0,86,0.00,,---,0.00,VWS V14.01,2013-07-30 10:28:00,
2013-07-30 06:29:00,66.3,62.0,30.21,NNE,31,2.0,2.0,86,0.00,,---,0.00,VWS V14.01,2013-07-30 10:29:00,
2013-07-30 06:30:00,66.3,61.7,30.21,NNE,31,2.0,2.0,85,0.00,,---,0.00,VWS V14.01,2013-07-30 10:30:00,
2013-07-30 06:31:00,66.4,61.8,30.22,NNE,31,2.0,2.0,85,0.00,,---,0.00,VWS V14.01,2013-07-30 10:31:00,
2013-07-30 06:32:00,66.4,61.8,30.21,NNE,31,2.0,2.0,85,0.00,,---,0.00,VWS V14.01,2013-07-30 10:32:00,
2013-07-30 06:33:00,66.4,61.8,30.21,NNE,31,2.0,2.0,85,0.00,,---,0.00,VWS V14.01,2013-07-30 10:33:00,
2013-07-30 06:34:00,66.4,61.8,30.22,NNE,31,2.0,2.0,85,0.00,,---,0.00,VWS V14.01,2013-07-30 10:34:00,
2013-07-30 06:35:00,66.4,61.8,30.22,NNE,27,2.0,2.0,85,0.00,,---,0.00,VWS V14.01,2013-07-30 10:35:00,
2013-07-30 06:36:00,66.4,61.8,30.22,NNE,27,2.0,2.0,85,0.00,,---,0.00,VWS V14.01,2013-07-30 10:36:00,
2013-07-30 06:37:00,66.5,61.9,30.22,NNE,27,1.0,1.0,85,0.00,,---,0.00,VWS V14.01,2013-07-30 10:37:00,
2013-07-30 06:38:00,66.4,61.8,30.22,NNE,27,1.0,1.0,85,0.00,,---,0.00,VWS V14.01,2013-07-30 10:38:00,
2013-07-30 06:39:00,66.5,61.9,30.22,NNE,27,1.0,2.0,85,0.00,,---,0.00,VWS V14.01,2013-07-30 10:39:00,
2013-07-30 06:40:00,66.5,61.9,30.22,NNE,27,1.0,2.0,85,0.00,,---,0.00,VWS V14.01,2013-07-30 10:40:00,
2013-07-30 06:41:00,66.5,61.9,30.22,NNE,27,1.0,2.0,85,0.00,,---,0.00,VWS V14.01,2013-07-30 10:41:00,
2013-07-30 06:42:00,66.5,61.9,30.22,NNE,27,1.0,1.0,85,0.00,,---,0.00,VWS V14.01,2013-07-30 10:42:00,
2013-07-30 06:43:00,66.5,61.9,30.22,NNE,27,1.0,1.0,85,0.00,,---,0.00,VWS V14.01,2013-07-30 10:43:00,
2013-07-30 06:44:00,66.5,61.9,30.22,NNE,27,2.0,2.0,85,0.00,,---,0.00,VWS V14.01,2013-07-30 10:44:00,
2013-07-30 06:45:00,66.5,61.9,30.22,NNE,27,1.0,2.0,85,0.00,,---,0.00,VWS V14.01,2013-07-30 10:45:00,
2013-07-30 06:46:00,66.6,62.0,30.22,NNE,27,1.0,1.0,85,0.00,,---,0.00,VWS V14.01,2013-07-30 10:46:00,
2013-07-30 06:47:00,66.6,62.0,30.22,NNE,27,1.0,1.0,85,0.00,,---,0.00,VWS V14.01,2013-07-30 10:47:00,
2013-07-30 06:48:00,66.6,62.0,30.22,NNE,27,1.0,1.0,85,0.00,,---,0.00,VWS V14.01,2013-07-30 10:48:00,
2013-07-30 06:49:00,66.6,62.0,30.22,NNE,27,2.0,2.0,85,0.00,,---,0.00,VWS V14.01,2013-07-30 10:49:00,
2013-07-30 06:50:00,66.7,62.0,30.22,NNE,27,1.0,2.0,85,0.00,,---,0.00,VWS V14.01,2013-07-30 10:50:00,
2013-07-30 06:51:00,66.7,62.0,30.22,NNE,27,2.0,2.0,85,0.00,,---,0.00,VWS V14.01,2013-07-30 10:51:00,
2013-07-30 06:52:00,66.7,62.0,30.22,NNE,27,1.0,2.0,85,0.00,,---,0.00,VWS V14.01,2013-07-30 10:52:00,
2013-07-30 06:53:00,66.8,62.2,30.22,NNE,27,1.0,2.0,85,0.00,,---,0.00,VWS V14.01,2013-07-30 10:53:00,
2013-07-30 06:54:00,66.8,62.2,30.22,NNE,27,1.0,2.0,85,0.00,,---,0.00,VWS V14.01,2013-07-30 10:54:00,
2013-07-30 06:55:00,66.8,62.2,30.22,NNE,27,2.0,2.0,85,0.00,,---,0.00,VWS V14.01,2013-07-30 10:55:00,
2013-07-30 06:56:00,66.8,61.8,30.22,NNE,27,1.0,2.0,84,0.00,,---,0.00,VWS V14.01,2013-07-30 10:56:00,
2013-07-30 06:57:00,66.8,61.8,30.22,NNE,27,1.0,1.0,84,0.00,,---,0.00,VWS V14.01,2013-07-30 10:57:00,
2013-07-30 06:58:00,66.8,61.8,30.22,NNE,27,1.0,1.0,84,0.00,,---,0.00,VWS V14.01,2013-07-30 10:58:00,
2013-07-30 06:59:00,66.8,61.8,30.22,NNE,27,1.0,1.0,84,0.00,,---,0.00,VWS V14.01,2013-07-30 10:59:00,
2013-07-30 07:00:00,66.8,61.8,30.22,NNE,27,1.0,1.0,84,0.00,,---,0.00,VWS V14.01,2013-07-30 11:00:00,
2013-07-30 07:01:00,66.8,61.8,30.22,NNE,28,1.0,1.0,84,0.00,,---,0.00,VWS V14.01,2013-07-30 11:01:00,
2013-07-30 07:02:00,66.9,61.9,30.22,NNE,27,1.0,1.0,84,0.00,,---,0.00,VWS V14.01,2013-07-30 11:02:00,
2013-07-30 07:03:00,66.9,61.9,30.22,NNE,27,1.0,2.0,84,0.00,,---,0.00,VWS V14.01,2013-07-30 11:03:00,
2013-07-30 07:04:00,66.9,61.9,30.22,NNE,27,2.0,2.0,84,0.00,,---,0.00,VWS V14.01,2013-07-30 11:04:00,
2013-07-30 07:05:00,67.1,62.1,30.22,NNE,27,2.0,2.0,84,0.00,,---,0.00,VWS V14.01,2013-07-30 11:05:00,
2013-07-30 07:06:00,67.1,62.1,30.22,NNE,27,2.0,2.0,84,0.00,,---,0.00,VWS V14.01,2013-07-30 11:06:00,
2013-07-30 07:07:00,67.2,62.2,30.22,NE,40,2.0,2.0,84,0.00,,---,0.00,VWS V14.01,2013-07-30 11:07:00,
2013-07-30 07:08:00,67.3,62.3,30.22,NE,40,2.0,2.0,84,0.00,,---,0.00,VWS V14.01,2013-07-30 11:08:00,
2013-07-30 07:09:00,67.3,62.3,30.22,NE,40,2.0,2.0,84,0.00,,---,0.00,VWS V14.01,2013-07-30 11:09:00,
2013-07-30 07:10:00,67.4,62.1,30.22,NNE,25,2.0,2.0,83,0.00,,---,0.00,VWS V14.01,2013-07-30 11:10:00,
2013-07-30 07:11:00,67.4,62.1,30.22,NNE,27,3.0,3.0,83,0.00,,---,0.00,VWS V14.01,2013-07-30 11:11:00,
2013-07-30 07:12:00,67.5,62.2,30.22,NE,36,2.0,2.0,83,0.00,,---,0.00,VWS V14.01,2013-07-30 11:12:00,
2013-07-30 07:13:00,67.5,62.2,30.22,NE,39,1.0,2.0,83,0.00,,---,0.00,VWS V14.01,2013-07-30 11:13:00,
2013-07-30 07:14:00,67.5,62.5,30.22,NE,39,2.0,2.0,84,0.00,,---,0.00,VWS V14.01,2013-07-30 11:14:00,
2013-07-30 07:15:00,67.5,62.5,30.22,NE,39,1.0,2.0,84,0.00,,---,0.00,VWS V14.01,2013-07-30 11:15:00,
2013-07-30 07:16:00,67.6,62.6,30.22,NE,38,1.0,2.0,84,0.00,,---,0.00,VWS V14.01,2013-07-30 11:16:00,
2013-07-30 07:17:00,67.6,62.6,30.22,NE,38,2.0,2.0,84,0.00,,---,0.00,VWS V14.01,2013-07-30 11:17:00,
2013-07-30 07:18:00,67.6,62.6,30.22,NE,39,1.0,2.0,84,0.00,,---,0.00,VWS V14.01,2013-07-30 11:18:00,
2013-07-30 07:19:00,67.7,62.4,30.22,NE,38,1.0,1.0,83,0.00,,---,0.00,VWS V14.01,2013-07-30 11:19:00,
2013-07-30 07:20:00,67.7,62.4,30.22,NE,38,1.0,2.0,83,0.00,,---,0.00,VWS V14.01,2013-07-30 11:20:00,
2013-07-30 07:21:00,67.7,62.4,30.22,NE,35,2.0,2.0,83,0.00,,---,0.00,VWS V14.01,2013-07-30 11:21:00,
2013-07-30 07:22:00,67.7,62.7,30.22,NE,36,2.0,2.0,84,0.00,,---,0.00,VWS V14.01,2013-07-30 11:22:00,
2013-07-30 07:23:00,67.8,62.8,30.22,NE,36,1.0,2.0,84,0.00,,---,0.00,VWS V14.01,2013-07-30 11:23:00,
2013-07-30 07:24:00,67.8,62.5,30.23,NE,36,1.0,2.0,83,0.00,,---,0.00,VWS V14.01,2013-07-30 11:24:00,
2013-07-30 07:25:00,67.9,62.5,30.22,NE,42,1.0,2.0,83,0.00,,---,0.00,VWS V14.01,2013-07-30 11:25:00,
2013-07-30 07:26:00,68.1,62.8,30.23,NNE,31,2.0,2.0,83,0.00,,---,0.00,VWS V14.01,2013-07-30 11:26:00,
2013-07-30 07:27:00,68.2,62.8,30.23,NE,40,1.0,2.0,83,0.00,,---,0.00,VWS V14.01,2013-07-30 11:27:00,
2013-07-30 07:28:00,68.3,62.9,30.23,NE,40,2.0,2.0,83,0.00,,---,0.00,VWS V14.01,2013-07-30 11:28:00,
2013-07-30 07:29:00,68.4,63.0,30.23,NE,40,1.0,2.0,83,0.00,,---,0.00,VWS V14.01,2013-07-30 11:29:00,
2013-07-30 07:30:00,68.5,63.1,30.23,NE,39,2.0,2.0,83,0.00,,---,0.00,VWS V14.01,2013-07-30 11:30:00,
2013-07-30 07:31:00,68.6,63.2,30.23,NE,38,1.0,2.0,83,0.00,,---,0.00,VWS V14.01,2013-07-30 11:31:00,
2013-07-30 07:32:00,68.7,63.0,30.23,NE,36,2.0,2.0,82,0.00,,---,0.00,VWS V14.01,2013-07-30 11:32:00,
2013-07-30 07:33:00,68.7,63.0,30.23,NE,36,1.0,2.0,82,0.00,,---,0.00,VWS V14.01,2013-07-30 11:33:00,
2013-07-30 07:34:00,68.8,63.1,30.23,NE,51,2.0,2.0,82,0.00,,---,0.00,VWS V14.01,2013-07-30 11:34:00,
2013-07-30 07:35:00,68.8,63.1,30.23,NE,51,1.0,2.0,82,0.00,,---,0.00,VWS V14.01,2013-07-30 11:35:00,
2013-07-30 07:36:00,68.8,63.1,30.23,NE,53,2.0,2.0,82,0.00,,---,0.00,VWS V14.01,2013-07-30 11:36:00,
2013-07-30 07:37:00,68.9,63.2,30.23,NE,52,1.0,2.0,82,0.00,,---,0.00,VWS V14.01,2013-07-30 11:37:00,
2013-07-30 07:38:00,68.9,63.2,30.23,NE,52,0.0,2.0,82,0.00,,---,0.00,VWS V14.01,2013-07-30 11:38:00,
2013-07-30 07:39:00,69.0,63.3,30.23,NE,53,1.0,1.0,82,0.00,,---,0.00,VWS V14.01,2013-07-30 11:39:00,
2013-07-30 07:40:00,69.0,63.3,30.23,NE,52,0.0,1.0,82,0.00,,---,0.00,VWS V14.01,2013-07-30 11:40:00,
2013-07-30 07:41:00,69.1,63.4,30.23,NE,53,2.0,2.0,82,0.00,,---,0.00,VWS V14.01,2013-07-30 11:41:00,
2013-07-30 07:42:00,69.2,63.1,30.24,NE,34,2.0,2.0,81,0.00,,---,0.00,VWS V14.01,2013-07-30 11:42:00,
2013-07-30 07:43:00,69.2,63.1,30.24,NE,36,1.0,2.0,81,0.00,,---,0.00,VWS V14.01,2013-07-30 11:43:00,
2013-07-30 07:44:00,69.2,63.1,30.23,NE,36,2.0,2.0,81,0.00,,---,0.00,VWS V14.01,2013-07-30 11:44:00,
2013-07-30 07:45:00,69.3,63.2,30.23,NE,42,2.0,2.0,81,0.00,,---,0.00,VWS V14.01,2013-07-30 11:45:00,
2013-07-30 07:46:00,69.4,63.3,30.24,NNE,26,1.0,2.0,81,0.00,,---,0.00,VWS V14.01,2013-07-30 11:46:00,
2013-07-30 07:47:00,69.6,63.5,30.24,NE,42,1.0,1.0,81,0.00,,---,0.00,VWS V14.01,2013-07-30 11:47:00,
2013-07-30 07:48:00,69.6,63.5,30.24,NE,42,1.0,1.0,81,0.00,,---,0.00,VWS V14.01,2013-07-30 11:48:00,
2013-07-30 07:49:00,69.7,63.6,30.24,NNE,33,2.0,2.0,81,0.00,,---,0.00,VWS V14.01,2013-07-30 11:49:00,
2013-07-30 07:50:00,69.8,63.7,30.24,NE,38,1.0,2.0,81,0.00,,---,0.00,VWS V14.01,2013-07-30 11:50:00,
2013-07-30 07:51:00,69.9,63.8,30.24,NE,38,1.0,1.0,81,0.00,,---,0.00,VWS V14.01,2013-07-30 11:51:00,
2013-07-30 07:52:00,70.2,63.8,30.24,NE,38,1.0,1.0,80,0.00,,---,0.00,VWS V14.01,2013-07-30 11:52:00,
2013-07-30 07:53:00,70.2,63.8,30.24,NE,38,2.0,2.0,80,0.00,,---,0.00,VWS V14.01,2013-07-30 11:53:00,
2013-07-30 07:54:00,70.3,63.8,30.24,NE,39,1.0,2.0,80,0.00,,---,0.00,VWS V14.01,2013-07-30 11:54:00,
2013-07-30 07:55:00,70.4,63.9,30.24,NE,39,1.0,2.0,80,0.00,,---,0.00,VWS V14.01,2013-07-30 11:55:00,
2013-07-30 07:56:00,70.5,63.7,30.24,NE,48,1.0,2.0,79,0.00,,---,0.00,VWS V14.01,2013-07-30 11:56:00,
2013-07-30 07:57:00,70.6,63.8,30.24,NE,42,1.0,2.0,79,0.00,,---,0.00,VWS V14.01,2013-07-30 11:57:00,
2013-07-30 07:58:00,70.7,63.9,30.24,NE,43,2.0,2.0,79,0.00,,---,0.00,VWS V14.01,2013-07-30 11:58:00,
2013-07-30 07:59:00,70.7,63.9,30.24,NNE,30,1.0,3.0,79,0.00,,---,0.00,VWS V14.01,2013-07-30 11:59:00,
2013-07-30 08:00:00,70.7,63.9,30.24,NNE,30,2.0,2.0,79,0.00,,---,0.00,VWS V14.01,2013-07-30 12:00:00,
2013-07-30 08:01:00,70.7,63.9,30.24,NE,34,0.0,2.0,79,0.00,,---,0.00,VWS V14.01,2013-07-30 12:01:00,
2013-07-30 08:02:00,70.7,63.9,30.24,NNE,33,1.0,2.0,79,0.00,,---,0.00,VWS V14.01,2013-07-30 12:02:00,
2013-07-30 08:03:00,70.8,64.0,30.24,NNE,33,0.0,2.0,79,0.00,,---,0.00,VWS V14.01,2013-07-30 12:03:00,
2013-07-30 08:04:00,70.9,64.4,30.24,NE,34,1.0,1.0,80,0.00,,---,0.00,VWS V14.01,2013-07-30 12:04:00,
2013-07-30 08:05:00,71.0,64.5,30.24,NE,34,1.0,1.0,80,0.00,,---,0.00,VWS V14.01,2013-07-30 12:05:00,
2013-07-30 08:06:00,71.1,64.6,30.24,NNE,27,2.0,2.0,80,0.00,,---,0.00,VWS V14.01,2013-07-30 12:06:00,
2013-07-30 08:07:00,71.2,64.4,30.24,NE,40,1.0,1.0,79,0.00,,---,0.00,VWS V14.01,2013-07-30 12:07:00,
2013-07-30 08:08:00,71.2,64.4,30.24,NNE,32,1.0,2.0,79,0.00,,---,0.00,VWS V14.01,2013-07-30 12:08:00,
2013-07-30 08:09:00,71.3,64.1,30.24,NE,36,2.0,2.0,78,0.00,,---,0.00,VWS V14.01,2013-07-30 12:09:00,
2013-07-30 08:10:00,71.4,64.2,30.24,NNE,27,2.0,2.0,78,0.00,,---,0.00,VWS V14.01,2013-07-30 12:10:00,
2013-07-30 08:11:00,71.5,64.3,30.24,NNE,27,1.0,2.0,78,0.00,,---,0.00,VWS V14.01,2013-07-30 12:11:00,
2013-07-30 08:12:00,71.5,63.9,30.24,NNE,23,1.0,2.0,77,0.00,,---,0.00,VWS V14.01,2013-07-30 12:12:00,
2013-07-30 08:13:00,71.5,63.9,30.24,NNE,23,1.0,2.0,77,0.00,,---,0.00,VWS V14.01,2013-07-30 12:13:00,
2013-07-30 08:14:00,71.4,64.2,30.24,NNE,27,1.0,1.0,78,0.00,,---,0.00,VWS V14.01,2013-07-30 12:14:00,
2013-07-30 08:15:00,71.4,64.2,30.24,NNE,27,1.0,1.0,78,0.00,,---,0.00,VWS V14.01,2013-07-30 12:15:00,
2013-07-30 08:16:00,71.4,64.2,30.24,NNE,27,1.0,1.0,78,0.00,,---,0.00,VWS V14.01,2013-07-30 12:16:00,
2013-07-30 08:17:00,71.3,64.1,30.24,NNE,31,1.0,2.0,78,0.00,,---,0.00,VWS V14.01,2013-07-30 12:17:00,
2013-07-30 08:18:00,71.3,64.1,30.24,NNE,23,2.0,3.0,78,0.00,,---,0.00,VWS V14.01,2013-07-30 12:18:00,
2013-07-30 08:19:00,71.2,64.0,30.24,NNE,29,1.0,2.0,78,0.00,,---,0.00,VWS V14.01,2013-07-30 12:19:00,
2013-07-30 08:20:00,71.2,64.0,30.24,NE,36,2.0,2.0,78,0.00,,---,0.00,VWS V14.01,2013-07-30 12:20:00,
2013-07-30 08:21:00,71.2,64.0,30.24,NE,36,1.0,2.0,78,0.00,,---,0.00,VWS V14.01,2013-07-30 12:21:00,
2013-07-30 08:22:00,71.3,64.5,30.24,ENE,57,1.0,1.0,79,0.00,,---,0.00,VWS V14.01,2013-07-30 12:22:00,
2013-07-30 08:23:00,71.3,64.5,30.24,ENE,57,1.0,1.0,79,0.00,,---,0.00,VWS V14.01,2013-07-30 12:23:00,
2013-07-30 08:24:00,71.4,64.2,30.24,ENE,57,0.0,1.0,78,0.00,,---,0.00,VWS V14.01,2013-07-30 12:24:00,
2013-07-30 08:25:00,71.6,64.8,30.24,ENE,57,0.0,0.0,79,0.00,,---,0.00,VWS V14.01,2013-07-30 12:25:00,
2013-07-30 08:26:00,71.8,64.9,30.24,ENE,57,0.0,0.0,79,0.00,,---,0.00,VWS V14.01,2013-07-30 12:26:00,
2013-07-30 08:27:00,72.0,65.1,30.24,ENE,57,0.0,1.0,79,0.00,,---,0.00,VWS V14.01,2013-07-30 12:27:00,
2013-07-30 08:28:00,72.1,65.2,30.24,ENE,57,0.0,1.0,79,0.00,,---,0.00,VWS V14.01,2013-07-30 12:28:00,
2013-07-30 08:29:00,72.3,65.4,30.24,NNE,32,1.0,1.0,79,0.00,,---,0.00,VWS V14.01,2013-07-30 12:29:00,
2013-07-30 08:30:00,72.4,65.5,30.24,NNE,32,0.0,2.0,79,0.00,,---,0.00,VWS V14.01,2013-07-30 12:30:00,
2013-07-30 08:31:00,72.4,64.8,30.24,NE,47,1.0,1.0,77,0.00,,---,0.00,VWS V14.01,2013-07-30 12:31:00,
2013-07-30 08:32:00,72.5,64.9,30.24,ENE,63,2.0,2.0,77,0.00,,---,0.00,VWS V14.01,2013-07-30 12:32:00,
2013-07-30 08:33:00,72.6,65.0,30.24,ENE,63,1.0,2.0,77,0.00,,---,0.00,VWS V14.01,2013-07-30 12:33:00,
2013-07-30 08:34:00,72.6,65.0,30.24,ENE,63,1.0,1.0,77,0.00,,---,0.00,VWS V14.01,2013-07-30 12:34:00,
2013-07-30 08:35:00,72.7,65.1,30.24,ENE,67,1.0,2.0,77,0.00,,---,0.00,VWS V14.01,2013-07-30 12:35:00,
2013-07-30 08:36:00,72.8,65.2,30.24,NNE,24,2.0,2.0,77,0.00,,---,0.00,VWS V14.01,2013-07-30 12:36:00,
2013-07-30 08:37:00,72.8,64.8,30.25,ENE,57,0.0,3.0,76,0.00,,---,0.00,VWS V14.01,2013-07-30 12:37:00,
2013-07-30 08:38:00,72.8,64.8,30.25,NNE,29,4.0,4.0,76,0.00,,---,0.00,VWS V14.01,2013-07-30 12:38:00,
2013-07-30 08:39:00,72.8,64.4,30.24,NE,48,2.0,4.0,75,0.00,,---,0.00,VWS V14.01,2013-07-30 12:39:00,
2013-07-30 08:40:00,72.8,64.4,30.25,NE,42,1.0,3.0,75,0.00,,---,0.00,VWS V14.01,2013-07-30 12:40:00,
2013-07-30 08:41:00,72.8,64.4,30.25,NE,54,2.0,3.0,75,0.00,,---,0.00,VWS V14.01,2013-07-30 12:41:00,
2013-07-30 08:42:00,72.8,64.4,30.24,ENE,59,2.0,2.0,75,0.00,,---,0.00,VWS V14.01,2013-07-30 12:42:00,
2013-07-30 08:43:00,72.8,64.8,30.24,NE,53,3.0,3.0,76,0.00,,---,0.00,VWS V14.01,2013-07-30 12:43:00,
2013-07-30 08:44:00,72.8,64.8,30.24,ENE,57,3.0,4.0,76,0.00,,---,0.00,VWS V14.01,2013-07-30 12:44:00,
2013-07-30 08:45:00,72.8,64.8,30.24,NE,54,2.0,3.0,76,0.00,,---,0.00,VWS V14.01,2013-07-30 12:45:00,
2013-07-30 08:46:00,72.8,64.8,30.24,NE,55,2.0,3.0,76,0.00,,---,0.00,VWS V14.01,2013-07-30 12:46:00,
2013-07-30 08:47:00,72.7,64.7,30.24,NE,49,2.0,2.0,76,0.00,,---,0.00,VWS V14.01,2013-07-30 12:47:00,
2013-07-30 08:48:00,72.8,64.8,30.24,NE,50,2.0,3.0,76,0.00,,---,0.00,VWS V14.01,2013-07-30 12:48:00,
2013-07-30 08:49:00,72.8,64.8,30.24,ENE,57,2.0,2.0,76,0.00,,---,0.00,VWS V14.01,2013-07-30 12:49:00,
2013-07-30 08:50:00,72.9,64.5,30.24,NE,38,1.0,3.0,75,0.00,,---,0.00,VWS V14.01,2013-07-30 12:50:00,
2013-07-30 08:51:00,72.9,64.5,30.24,NE,47,1.0,2.0,75,0.00,,---,0.00,VWS V14.01,2013-07-30 12:51:00,
2013-07-30 08:52:00,73.1,65.1,30.24,ENE,57,2.0,2.0,76,0.00,,---,0.00,VWS V14.01,2013-07-30 12:52:00,
2013-07-30 08:53:00,73.1,65.1,30.24,NE,54,2.0,2.0,76,0.00,,---,0.00,VWS V14.01,2013-07-30 12:53:00,
2013-07-30 08:54:00,73.3,65.3,30.24,NE,47,1.0,3.0,76,0.00,,---,0.00,VWS V14.01,2013-07-30 12:54:00,
2013-07-30 08:55:00,73.4,65.4,30.24,NE,55,1.0,1.0,76,0.00,,---,0.00,VWS V14.01,2013-07-30 12:55:00,
2013-07-30 08:56:00,73.6,65.2,30.24,NE,42,2.0,2.0,75,0.00,,---,0.00,VWS V14.01,2013-07-30 12:56:00,
2013-07-30 08:57:00,73.8,64.6,30.24,NE,38,2.0,2.0,73,0.00,,---,0.00,VWS V14.01,2013-07-30 12:57:00,
2013-07-30 08:58:00,73.9,64.7,30.24,NE,55,3.0,3.0,73,0.00,,---,0.00,VWS V14.01,2013-07-30 12:58:00,
2013-07-30 08:59:00,73.9,64.7,30.24,ENE,61,2.0,4.0,73,0.00,,---,0.00,VWS V14.01,2013-07-30 12:59:00,
2013-07-30 09:00:00,74.0,64.8,30.24,ENE,65,4.0,4.0,73,0.00,,---,0.00,VWS V14.01,2013-07-30 13:00:00,
2013-07-30 09:01:00,74.0,65.2,30.24,NE,54,4.0,4.0,74,0.00,,---,0.00,VWS V14.01,2013-07-30 13:01:00,
2013-07-30 09:02:00,74.1,64.9,30.24,ENE,63,4.0,4.0,73,0.00,,---,0.00,VWS V14.01,2013-07-30 13:02:00,
2013-07-30 09:03:00,74.1,64.9,30.24,ENE,78,2.0,5.0,73,0.00,,---,0.00,VWS V14.01,2013-07-30 13:03:00,
2013-07-30 09:04:00,74.2,65.0,30.24,ENE,61,2.0,3.0,73,0.00,,---,0.00,VWS V14.01,2013-07-30 13:04:00,
2013-07-30 09:05:00,74.3,65.1,30.24,ENE,57,4.0,5.0,73,0.00,,---,0.00,VWS V14.01,2013-07-30 13:05:00,
2013-07-30 09:06:00,74.3,64.7,30.24,NE,46,1.0,4.0,72,0.00,,---,0.00,VWS V14.01,2013-07-30 13:06:00,
2013-07-30 09:07:00,74.3,64.7,30.24,NE,53,2.0,3.0,72,0.00,,---,0.00,VWS V14.01,2013-07-30 13:07:00,
2013-07-30 09:08:00,74.3,64.7,30.24,ENE,70,2.0,3.0,72,0.00,,---,0.00,VWS V14.01,2013-07-30 13:08:00,
2013-07-30 09:09:00,74.3,64.7,30.24,ENE,63,3.0,5.0,72,0.00,,---,0.00,VWS V14.01,2013-07-30 13:09:00,
2013-07-30 09:10:00,74.4,64.8,30.24,ENE,66,4.0,4.0,72,0.00,,---,0.00,VWS V14.01,2013-07-30 13:10:00,
2013-07-30 09:11:00,74.4,64.8,30.24,NE,49,3.0,4.0,72,0.00,,---,0.00,VWS V14.01,2013-07-30 13:11:00,
2013-07-30 09:12:00,74.5,64.9,30.24,ENE,72,1.0,3.0,72,0.00,,---,0.00,VWS V14.01,2013-07-30 13:12:00,
2013-07-30 09:13:00,74.6,65.4,30.24,NE,44,2.0,3.0,73,0.00,,---,0.00,VWS V14.01,2013-07-30 13:13:00,
2013-07-30 09:14:00,74.7,65.1,30.24,NE,44,2.0,2.0,72,0.00,,---,0.00,VWS V14.01,2013-07-30 13:14:00,
2013-07-30 09:15:00,74.8,65.2,30.24,NNE,27,3.0,3.0,72,0.00,,---,0.00,VWS V14.01,2013-07-30 13:15:00,
2013-07-30 09:16:00,74.8,64.8,30.24,NE,46,2.0,3.0,71,0.00,,---,0.00,VWS V14.01,2013-07-30 13:16:00,
2013-07-30 09:17:00,74.9,65.3,30.24,ENE,61,3.0,3.0,72,0.00,,---,0.00,VWS V14.01,2013-07-30 13:17:00,
2013-07-30 09:18:00,74.9,65.3,30.24,ENE,61,2.0,3.0,72,0.00,,---,0.00,VWS V14.01,2013-07-30 13:18:00,
2013-07-30 09:19:00,75.0,65.4,30.24,ENE,65,3.0,3.0,72,0.00,,---,0.00,VWS V14.01,2013-07-30 13:19:00,
2013-07-30 09:20:00,75.0,65.4,30.24,ENE,61,3.0,4.0,72,0.00,,---,0.00,VWS V14.01,2013-07-30 13:20:00,
2013-07-30 09:21:00,75.1,65.1,30.24,NE,55,4.0,5.0,71,0.00,,---,0.00,VWS V14.01,2013-07-30 13:21:00,
2013-07-30 09:22:00,75.1,65.5,30.24,ENE,71,5.0,5.0,72,0.00,,---,0.00,VWS V14.01,2013-07-30 13:22:00,
2013-07-30 09:23:00,75.1,65.5,30.24,ENE,70,4.0,5.0,72,0.00,,---,0.00,VWS V14.01,2013-07-30 13:23:00,
2013-07-30 09:24:00,75.2,65.6,30.24,ENE,72,4.0,6.0,72,0.00,,---,0.00,VWS V14.01,2013-07-30 13:24:00,
2013-07-30 09:25:00,75.3,65.3,30.24,East,89,5.0,5.0,71,0.00,,---,0.00,VWS V14.01,2013-07-30 13:25:00,
2013-07-30 09:26:00,75.4,65.3,30.24,ENE,70,4.0,5.0,71,0.00,,---,0.00,VWS V14.01,2013-07-30 13:26:00,
2013-07-30 09:27:00,75.5,65.4,30.24,ESE,111,4.0,5.0,71,0.00,,---,0.00,VWS V14.01,2013-07-30 13:27:00,
2013-07-30 09:28:00,75.5,65.4,30.24,ESE,107,5.0,7.0,71,0.00,,---,0.00,VWS V14.01,2013-07-30 13:28:00,
2013-07-30 09:29:00,75.6,65.1,30.24,NE,55,2.0,5.0,70,0.00,,---,0.00,VWS V14.01,2013-07-30 13:29:00,
2013-07-30 09:30:00,75.7,65.6,30.24,ENE,65,2.0,3.0,71,0.00,,---,0.00,VWS V14.01,2013-07-30 13:30:00,
2013-07-30 09:31:00,75.8,65.7,30.24,ENE,78,1.0,2.0,71,0.00,,---,0.00,VWS V14.01,2013-07-30 13:31:00,
2013-07-30 09:32:00,76.1,65.6,30.24,ENE,66,2.0,3.0,70,0.00,,---,0.00,VWS V14.01,2013-07-30 13:32:00,
2013-07-30 09:33:00,76.2,65.7,30.24,ENE,71,3.0,4.0,70,0.00,,---,0.00,VWS V14.01,2013-07-30 13:33:00,
2013-07-30 09:34:00,76.4,65.5,30.24,ENE,63,2.0,4.0,69,0.00,,---,0.00,VWS V14.01,2013-07-30 13:34:00,
2013-07-30 09:35:00,76.5,66.0,30.24,NNE,32,1.0,3.0,70,0.00,,---,0.00,VWS V14.01,2013-07-30 13:35:00,
2013-07-30 09:36:00,76.6,65.3,30.24,NE,48,3.0,3.0,68,0.00,,---,0.00,VWS V14.01,2013-07-30 13:36:00,
2013-07-30 09:37:00,76.7,65.3,30.24,ENE,58,5.0,5.0,68,0.00,,---,0.00,VWS V14.01,2013-07-30 13:37:00,
2013-07-30 09:38:00,76.8,65.4,30.24,ENE,74,3.0,5.0,68,0.00,,---,0.00,VWS V14.01,2013-07-30 13:38:00,
2013-07-30 09:39:00,76.8,65.4,30.24,ENE,57,3.0,4.0,68,0.00,,---,0.00,VWS V14.01,2013-07-30 13:39:00,
2013-07-30 09:40:00,76.8,65.4,30.24,NE,52,3.0,4.0,68,0.00,,---,0.00,VWS V14.01,2013-07-30 13:40:00,
2013-07-30 09:41:00,76.8,65.4,30.24,ENE,61,2.0,4.0,68,0.00,,---,0.00,VWS V14.01,2013-07-30 13:41:00,
2013-07-30 09:42:00,76.9,65.1,30.24,ENE,76,3.0,4.0,67,0.00,,---,0.00,VWS V14.01,2013-07-30 13:42:00,
2013-07-30 09:43:00,77.0,65.2,30.24,ENE,61,3.0,4.0,67,0.00,,---,0.00,VWS V14.01,2013-07-30 13:43:00,
2013-07-30 09:44:00,77.2,65.4,30.24,ENE,65,2.0,3.0,67,0.00,,---,0.00,VWS V14.01,2013-07-30 13:44:00,
2013-07-30 09:45:00,77.3,65.5,30.24,ENE,57,2.0,2.0,67,0.00,,---,0.00,VWS V14.01,2013-07-30 13:45:00,
2013-07-30 09:46:00,77.4,65.2,30.24,ENE,70,3.0,3.0,66,0.00,,---,0.00,VWS V14.01,2013-07-30 13:46:00,
2013-07-30 09:47:00,77.6,64.9,30.24,ENE,57,7.0,7.0,65,0.00,,---,0.00,VWS V14.01,2013-07-30 13:47:00,
2013-07-30 09:48:00,77.6,64.5,30.24,East,98,5.0,9.0,64,0.00,,---,0.00,VWS V14.01,2013-07-30 13:48:00,
2013-07-30 09:49:00,77.6,64.5,30.24,ENE,76,5.0,7.0,64,0.00,,---,0.00,VWS V14.01,2013-07-30 13:49:00,
2013-07-30 09:50:00,77.6,64.5,30.24,ENE,65,5.0,7.0,64,0.00,,---,0.00,VWS V14.01,2013-07-30 13:50:00,
2013-07-30 09:51:00,77.6,64.5,30.24,East,80,3.0,5.0,64,0.00,,---,0.00,VWS V14.01,2013-07-30 13:51:00,
2013-07-30 09:52:00,77.7,64.1,30.24,ENE,73,4.0,6.0,63,0.00,,---,0.00,VWS V14.01,2013-07-30 13:52:00,
2013-07-30 09:53:00,77.7,64.1,30.24,East,90,5.0,6.0,63,0.00,,---,0.00,VWS V14.01,2013-07-30 13:53:00,
2013-07-30 09:54:00,77.7,64.6,30.23,NE,49,2.0,5.0,64,0.00,,---,0.00,VWS V14.01,2013-07-30 13:54:00,
2013-07-30 09:55:00,77.8,65.1,30.23,ENE,69,3.0,3.0,65,0.00,,---,0.00,VWS V14.01,2013-07-30 13:55:00,
2013-07-30 09:56:00,77.9,65.2,30.23,ENE,67,3.0,3.0,65,0.00,,---,0.00,VWS V14.01,2013-07-30 13:56:00,
2013-07-30 09:57:00,78.0,65.3,30.23,ENE,61,4.0,4.0,65,0.00,,---,0.00,VWS V14.01,2013-07-30 13:57:00,
2013-07-30 09:58:00,78.0,65.3,30.23,NE,52,2.0,4.0,65,0.00,,---,0.00,VWS V14.01,2013-07-30 13:58:00,
2013-07-30 09:59:00,78.0,64.8,30.23,NE,52,5.0,5.0,64,0.00,,---,0.00,VWS V14.01,2013-07-30 13:59:00,
2013-07-30 10:00:00,78.1,64.5,30.23,ESE,105,4.0,6.0,63,0.00,,---,0.00,VWS V14.01,2013-07-30 14:00:00,
2013-07-30 10:01:00,78.1,64.9,30.23,ENE,59,3.0,5.0,64,0.00,,---,0.00,VWS V14.01,2013-07-30 14:01:00,
2013-07-30 10:02:00,78.1,65.4,30.23,ENE,70,3.0,4.0,65,0.00,,---,0.00,VWS V14.01,2013-07-30 14:02:00,
2013-07-30 10:03:00,78.1,65.4,30.23,East,90,7.0,8.0,65,0.00,,---,0.00,VWS V14.01,2013-07-30 14:03:00,
2013-07-30 10:04:00,78.1,64.9,30.23,ENE,59,2.0,7.0,64,0.00,,---,0.00,VWS V14.01,2013-07-30 14:04:00,
2013-07-30 10:05:00,78.1,64.9,30.23,East,94,7.0,8.0,64,0.00,,---,0.00,VWS V14.01,2013-07-30 14:05:00,
2013-07-30 10:06:00,78.1,64.5,30.23,ESE,102,7.0,7.0,63,0.00,,---,0.00,VWS V14.01,2013-07-30 14:06:00,
2013-07-30 10:07:00,77.9,64.3,30.23,ENE,65,4.0,7.0,63,0.00,,---,0.00,VWS V14.01,2013-07-30 14:07:00,
2013-07-30 10:08:00,77.9,64.3,30.23,East,82,5.0,7.0,63,0.00,,---,0.00,VWS V14.01,2013-07-30 14:08:00,
2013-07-30 10:09:00,77.9,64.8,30.23,ENE,58,3.0,6.0,64,0.00,,---,0.00,VWS V14.01,2013-07-30 14:09:00,
2013-07-30 10:10:00,77.9,64.3,30.24,ENE,69,5.0,7.0,63,0.00,,---,0.00,VWS V14.01,2013-07-30 14:10:00,
2013-07-30 10:11:00,77.9,64.8,30.23,East,80,5.0,6.0,64,0.00,,---,0.00,VWS V14.01,2013-07-30 14:11:00,
2013-07-30 10:12:00,77.9,65.2,30.24,ENE,65,3.0,5.0,65,0.00,,---,0.00,VWS V14.01,2013-07-30 14:12:00,
2013-07-30 10:13:00,77.9,64.8,30.24,NE,55,3.0,5.0,64,0.00,,---,0.00,VWS V14.01,2013-07-30 14:13:00,
2013-07-30 10:14:00,77.9,64.8,30.24,ENE,71,3.0,5.0,64,0.00,,---,0.00,VWS V14.01,2013-07-30 14:14:00,
2013-07-30 10:15:00,77.9,64.3,30.24,ENE,70,5.0,5.0,63,0.00,,---,0.00,VWS V14.01,2013-07-30 14:15:00,
2013-07-30 10:16:00,77.9,63.8,30.24,ENE,57,3.0,5.0,62,0.00,,---,0.00,VWS V14.01,2013-07-30 14:16:00,
2013-07-30 10:17:00,78.0,64.4,30.24,NE,53,3.0,4.0,63,0.00,,---,0.00,VWS V14.01,2013-07-30 14:17:00,
2013-07-30 10:18:00,78.1,64.9,30.24,East,96,3.0,6.0,64,0.00,,---,0.00,VWS V14.01,2013-07-30 14:18:00,
2013-07-30 10:19:00,78.1,64.9,30.24,East,82,5.0,5.0,64,0.00,,---,0.00,VWS V14.01,2013-07-30 14:19:00,
2013-07-30 10:20:00,78.3,65.6,30.24,East,84,5.0,5.0,65,0.00,,---,0.00,VWS V14.01,2013-07-30 14:20:00,
2013-07-30 10:21:00,78.3,65.6,30.24,East,93,3.0,7.0,65,0.00,,---,0.00,VWS V14.01,2013-07-30 14:21:00,
2013-07-30 10:22:00,78.3,65.6,30.24,East,82,3.0,4.0,65,0.00,,---,0.00,VWS V14.01,2013-07-30 14:22:00,
2013-07-30 10:23:00,78.3,65.6,30.24,East,83,5.0,5.0,65,0.00,,---,0.00,VWS V14.01,2013-07-30 14:23:00,
2013-07-30 10:24:00,78.3,66.0,30.24,East,87,5.0,5.0,66,0.00,,---,0.00,VWS V14.01,2013-07-30 14:24:00,
2013-07-30 10:25:00,78.3,65.1,30.24,ESE,112,9.0,10.0,64,0.00,,---,0.00,VWS V14.01,2013-07-30 14:25:00,
2013-07-30 10:26:00,78.2,65.0,30.24,ENE,76,7.0,9.0,64,0.00,,---,0.00,VWS V14.01,2013-07-30 14:26:00,
2013-07-30 10:27:00,78.2,65.0,30.24,East,95,10.0,10.0,64,0.00,,---,0.00,VWS V14.01,2013-07-30 14:27:00,
2013-07-30 10:28:00,78.1,64.9,30.24,ESE,116,9.0,10.0,64,0.00,,---,0.00,VWS V14.01,2013-07-30 14:28:00,
2013-07-30 10:29:00,78.1,64.9,30.24,ESE,105,9.0,10.0,64,0.00,,---,0.00,VWS V14.01,2013-07-30 14:29:00,
2013-07-30 10:30:00,77.9,64.3,30.24,East,87,8.0,9.0,63,0.00,,---,0.00,VWS V14.01,2013-07-30 14:30:00,
2013-07-30 10:31:00,77.9,65.2,30.24,East,84,5.0,8.0,65,0.00,,---,0.00,VWS V14.01,2013-07-30 14:31:00,
2013-07-30 10:32:00,77.9,65.6,30.24,East,80,3.0,6.0,66,0.00,,---,0.00,VWS V14.01,2013-07-30 14:32:00,
2013-07-30 10:33:00,77.9,65.6,30.24,ENE,74,4.0,6.0,66,0.00,,---,0.00,VWS V14.01,2013-07-30 14:33:00,
2013-07-30 10:34:00,77.9,66.5,30.24,ENE,69,4.0,4.0,68,0.00,,---,0.00,VWS V14.01,2013-07-30 14:34:00,
2013-07-30 10:35:00,78.0,66.2,30.24,ENE,76,5.0,5.0,67,0.00,,---,0.00,VWS V14.01,2013-07-30 14:35:00,
2013-07-30 10:36:00,78.1,65.4,30.24,ENE,76,7.0,7.0,65,0.00,,---,0.00,VWS V14.01,2013-07-30 14:36:00,
2013-07-30 10:37:00,78.1,65.4,30.24,ENE,70,3.0,4.0,65,0.00,,---,0.00,VWS V14.01,2013-07-30 14:37:00,
2013-07-30 10:38:00,78.1,65.8,30.24,ENE,67,3.0,4.0,66,0.00,,---,0.00,VWS V14.01,2013-07-30 14:38:00,
2013-07-30 10:39:00,78.2,66.4,30.24,ESE,107,3.0,3.0,67,0.00,,---,0.00,VWS V14.01,2013-07-30 14:39:00,
2013-07-30 10:40:00,78.3,66.4,30.24,ESE,104,4.0,4.0,67,0.00,,---,0.00,VWS V14.01,2013-07-30 14:40:00,
2013-07-30 10:41:00,78.4,67.0,30.24,ENE,74,2.0,4.0,68,0.00,,---,0.00,VWS V14.01,2013-07-30 14:41:00,
2013-07-30 10:42:00,78.6,66.7,30.24,East,92,5.0,5.0,67,0.00,,---,0.00,VWS V14.01,2013-07-30 14:42:00,
2013-07-30 10:43:00,78.6,66.7,30.24,ENE,60,4.0,5.0,67,0.00,,---,0.00,VWS V14.01,2013-07-30 14:43:00,
2013-07-30 10:44:00,78.6,66.3,30.24,ENE,70,5.0,5.0,66,0.00,,---,0.00,VWS V14.01,2013-07-30 14:44:00,
2013-07-30 10:45:00,78.6,66.7,30.24,ENE,66,8.0,8.0,67,0.00,,---,0.00,VWS V14.01,2013-07-30 14:45:00,
2013-07-30 10:46:00,78.6,66.7,30.24,ENE,67,4.0,8.0,67,0.00,,---,0.00,VWS V14.01,2013-07-30 14:46:00,
2013-07-30 10:47:00,78.6,66.7,30.24,ENE,74,3.0,4.0,67,0.00,,---,0.00,VWS V14.01,2013-07-30 14:47:00,
2013-07-30 10:48:00,78.5,67.1,30.24,NE,48,3.0,3.0,68,0.00,,---,0.00,VWS V14.01,2013-07-30 14:48:00,
2013-07-30 10:49:00,78.6,67.2,30.24,ENE,75,3.0,3.0,68,0.00,,---,0.00,VWS V14.01,2013-07-30 14:49:00,
2013-07-30 10:50:00,78.6,67.2,30.24,ENE,74,3.0,5.0,68,0.00,,---,0.00,VWS V14.01,2013-07-30 14:50:00,
2013-07-30 10:51:00,78.8,67.8,30.24,East,86,2.0,3.0,69,0.00,,---,0.00,VWS V14.01,2013-07-30 14:51:00,
2013-07-30 10:52:00,78.8,67.8,30.24,East,80,7.0,7.0,69,0.00,,---,0.00,VWS V14.01,2013-07-30 14:52:00,
2013-07-30 10:53:00,79.0,68.0,30.24,ENE,78,3.0,6.0,69,0.00,,---,0.00,VWS V14.01,2013-07-30 14:53:00,
2013-07-30 10:54:00,79.2,68.2,30.24,East,80,6.0,7.0,69,0.00,,---,0.00,VWS V14.01,2013-07-30 14:54:00,
2013-07-30 10:55:00,79.2,68.2,30.24,East,101,9.0,9.0,69,0.00,,---,0.00,VWS V14.01,2013-07-30 14:55:00,
2013-07-30 10:56:00,79.2,67.3,30.24,ESE,108,9.0,13.0,67,0.00,,---,0.00,VWS V14.01,2013-07-30 14:56:00,
2013-07-30 10:57:00,79.0,67.1,30.24,East,101,5.0,5.0,67,0.00,,---,0.00,VWS V14.01,2013-07-30 14:57:00,
2013-07-30 10:58:00,79.1,67.2,30.24,East,80,13.0,13.0,67,0.00,,---,0.00,VWS V14.01,2013-07-30 14:58:00,
2013-07-30 10:59:00,79.1,67.2,30.24,ENE,63,8.0,13.0,67,0.00,,---,0.00,VWS V14.01,2013-07-30 14:59:00,
2013-07-30 11:01:00,79.0,67.6,30.23,East,91,7.0,10.0,68,0.00,,---,0.00,VWS V14.01,2013-07-30 15:01:00,
2013-07-30 11:02:00,79.0,67.1,30.23,East,98,7.0,9.0,67,0.00,,---,0.00,VWS V14.01,2013-07-30 15:02:00,
2013-07-30 11:03:00,79.0,67.1,30.23,East,84,7.0,9.0,67,0.00,,---,0.00,VWS V14.01,2013-07-30 15:03:00,
2013-07-30 11:04:00,79.1,67.6,30.23,East,91,7.0,8.0,68,0.00,,---,0.00,VWS V14.01,2013-07-30 15:04:00,
2013-07-30 11:05:00,79.1,67.6,30.23,East,86,5.0,7.0,68,0.00,,---,0.00,VWS V14.01,2013-07-30 15:05:00,
2013-07-30 11:06:00,79.3,67.8,30.23,ENE,72,4.0,5.0,68,0.00,,---,0.00,VWS V14.01,2013-07-30 15:06:00,
2013-07-30 11:07:00,79.5,67.6,30.23,East,94,10.0,10.0,67,0.00,,---,0.00,VWS V14.01,2013-07-30 15:07:00,
2013-07-30 11:08:00,79.5,67.6,30.23,ESE,115,5.0,10.0,67,0.00,,---,0.00,VWS V14.01,2013-07-30 15:08:00,
2013-07-30 11:09:00,79.5,67.2,30.23,East,101,8.0,8.0,66,0.00,,---,0.00,VWS V14.01,2013-07-30 15:09:00,
2013-07-30 11:10:00,79.5,67.6,30.23,East,96,7.0,8.0,67,0.00,,---,0.00,VWS V14.01,2013-07-30 15:10:00,
2013-07-30 11:11:00,79.5,68.0,30.23,ESE,117,7.0,7.0,68,0.00,,---,0.00,VWS V14.01,2013-07-30 15:11:00,
2013-07-30 11:12:00,79.6,67.7,30.23,ENE,78,3.0,4.0,67,0.00,,---,0.00,VWS V14.01,2013-07-30 15:12:00,
2013-07-30 11:13:00,79.6,68.1,30.23,ENE,72,4.0,4.0,68,0.00,,---,0.00,VWS V14.01,2013-07-30 15:13:00,
2013-07-30 11:14:00,79.7,67.8,30.23,ESE,116,1.0,4.0,67,0.00,,---,0.00,VWS V14.01,2013-07-30 15:14:00,
2013-07-30 11:15:00,80.0,68.1,30.23,ESE,109,7.0,7.0,67,0.00,,---,0.00,VWS V14.01,2013-07-30 15:15:00,
2013-07-30 11:16:00,80.1,67.7,30.23,East,94,2.0,7.0,66,0.00,,---,0.00,VWS V14.01,2013-07-30 15:16:00,
2013-07-30 11:17:00,80.1,67.7,30.23,East,84,2.0,2.0,66,0.00,,---,0.00,VWS V14.01,2013-07-30 15:17:00,
2013-07-30 11:19:00,80.1,66.8,30.23,ESE,105,7.0,7.0,64,0.00,,---,0.00,VWS V14.01,2013-07-30 15:19:00,
2013-07-30 11:20:00,80.0,67.2,30.23,ESE,107,3.0,7.0,65,0.00,,---,0.00,VWS V14.01,2013-07-30 15:20:00,
2013-07-30 11:21:00,80.2,67.4,30.23,ESE,118,1.0,3.0,65,0.00,,---,0.00,VWS V14.01,2013-07-30 15:21:00,
2013-07-30 11:22:00,80.4,67.1,30.23,ENE,69,4.0,7.0,64,0.00,,---,0.00,VWS V14.01,2013-07-30 15:22:00,
2013-07-30 11:23:00,80.4,67.1,30.23,ENE,62,2.0,7.0,64,0.00,,---,0.00,VWS V14.01,2013-07-30 15:23:00,
2013-07-30 11:24:00,80.5,68.1,30.23,East,85,3.0,3.0,66,0.00,,---,0.00,VWS V14.01,2013-07-30 15:24:00,
2013-07-30 11:25:00,80.6,68.2,30.23,East,86,8.0,8.0,66,0.00,,---,0.00,VWS V14.01,2013-07-30 15:25:00,
2013-07-30 11:26:00,80.6,67.8,30.23,ENE,78,4.0,8.0,65,0.00,,---,0.00,VWS V14.01,2013-07-30 15:26:00,
2013-07-30 11:27:00,80.6,67.8,30.23,East,98,8.0,8.0,65,0.00,,---,0.00,VWS V14.01,2013-07-30 15:27:00,
2013-07-30 11:28:00,80.6,67.8,30.23,East,98,8.0,8.0,65,0.00,,---,0.00,VWS V14.01,2013-07-30 15:28:00,
2013-07-30 11:29:00,80.5,66.3,30.23,East,80,6.0,6.0,62,0.00,,---,0.00,VWS V14.01,2013-07-30 15:29:00,
2013-07-30 11:31:00,80.6,65.9,30.23,East,94,7.0,9.0,61,0.00,,---,0.00,VWS V14.01,2013-07-30 15:31:00,
2013-07-30 11:32:00,80.6,65.9,30.23,East,80,9.0,13.0,61,0.00,,---,0.00,VWS V14.01,2013-07-30 15:32:00,
2013-07-30 11:33:00,80.5,65.8,30.23,ENE,68,7.0,9.0,61,0.00,,---,0.00,VWS V14.01,2013-07-30 15:33:00,
2013-07-30 11:34:00,80.4,66.2,30.23,ENE,67,9.0,9.0,62,0.00,,---,0.00,VWS V14.01,2013-07-30 15:34:00,
2013-07-30 11:35:00,80.4,66.2,30.23,East,80,8.0,9.0,62,0.00,,---,0.00,VWS V14.01,2013-07-30 15:35:00,
2013-07-30 11:36:00,80.4,65.7,30.23,East,90,10.0,11.0,61,0.00,,---,0.00,VWS V14.01,2013-07-30 15:36:00,
2013-07-30 11:37:00,80.3,65.6,30.23,East,80,8.0,10.0,61,0.00,,---,0.00,VWS V14.01,2013-07-30 15:37:00,
2013-07-30 11:38:00,80.4,66.2,30.23,East,80,7.0,8.0,62,0.00,,---,0.00,VWS V14.01,2013-07-30 15:38:00,
2013-07-30 11:39:00,80.4,66.2,30.23,East,91,7.0,7.0,62,0.00,,---,0.00,VWS V14.01,2013-07-30 15:39:00,
2013-07-30 11:40:00,80.4,65.7,30.23,ESE,109,7.0,9.0,61,0.00,,---,0.00,VWS V14.01,2013-07-30 15:40:00,
2013-07-30 11:41:00,80.3,65.6,30.23,East,94,8.0,8.0,61,0.00,,---,0.00,VWS V14.01,2013-07-30 15:41:00,
2013-07-30 11:42:00,80.3,65.2,30.23,East,85,7.0,9.0,60,0.00,,---,0.00,VWS V14.01,2013-07-30 15:42:00,
2013-07-30 11:43:00,80.3,65.2,30.23,East,90,3.0,7.0,60,0.00,,---,0.00,VWS V14.01,2013-07-30 15:43:00,
2013-07-30 11:44:00,80.3,65.6,30.23,East,100,2.0,4.0,61,0.00,,---,0.00,VWS V14.01,2013-07-30 15:44:00,
2013-07-30 11:45:00,80.4,66.2,30.23,ESE,107,1.0,5.0,62,0.00,,---,0.00,VWS V14.01,2013-07-30 15:45:00,
2013-07-30 11:46:00,80.5,65.8,30.23,ESE,111,2.0,2.0,61,0.00,,---,0.00,VWS V14.01,2013-07-30 15:46:00,
2013-07-30 11:47:00,80.7,66.5,30.23,ESE,109,3.0,3.0,62,0.00,,---,0.00,VWS V14.01,2013-07-30 15:47:00,
2013-07-30 11:48:00,80.7,66.9,30.23,ENE,71,5.0,5.0,63,0.00,,---,0.00,VWS V14.01,2013-07-30 15:48:00,
2013-07-30 11:49:00,80.9,66.2,30.23,East,89,6.0,7.0,61,0.00,,---,0.00,VWS V14.01,2013-07-30 15:49:00,
2013-07-30 11:50:00,80.9,65.7,30.23,ENE,61,2.0,6.0,60,0.00,,---,0.00,VWS V14.01,2013-07-30 15:50:00,
2013-07-30 11:51:00,81.0,66.3,30.23,ENE,76,5.0,5.0,61,0.00,,---,0.00,VWS V14.01,2013-07-30 15:51:00,
2013-07-30 11:52:00,81.0,66.3,30.23,East,84,8.0,11.0,61,0.00,,---,0.00,VWS V14.01,2013-07-30 15:52:00,
2013-07-30 11:53:00,80.9,66.2,30.23,East,88,7.0,9.0,61,0.00,,---,0.00,VWS V14.01,2013-07-30 15:53:00,
2013-07-30 11:54:00,80.8,66.6,30.23,ESE,106,5.0,10.0,62,0.00,,---,0.00,VWS V14.01,2013-07-30 15:54:00,
2013-07-30 11:55:00,80.8,66.6,30.23,East,99,3.0,10.0,62,0.00,,---,0.00,VWS V14.01,2013-07-30 15:55:00,
2013-07-30 11:56:00,80.8,67.0,30.23,ESE,104,2.0,3.0,63,0.00,,---,0.00,VWS V14.01,2013-07-30 15:56:00,
2013-07-30 11:57:00,80.9,66.7,30.23,East,89,2.0,6.0,62,0.00,,---,0.00,VWS V14.01,2013-07-30 15:57:00,
2013-07-30 11:58:00,81.0,67.2,30.23,East,89,1.0,2.0,63,0.00,,---,0.00,VWS V14.01,2013-07-30 15:58:00,
2013-07-30 11:59:00,81.1,67.3,30.23,ENE,77,1.0,3.0,63,0.00,,---,0.00,VWS V14.01,2013-07-30 15:59:00,
2013-07-30 12:00:00,81.2,67.4,30.23,East,81,5.0,6.0,63,0.00,,---,0.00,VWS V14.01,2013-07-30 16:00:00,
2013-07-30 12:01:00,81.1,66.9,30.23,ENE,59,2.0,5.0,62,0.00,,---,0.00,VWS V14.01,2013-07-30 16:01:00,
2013-07-30 12:02:00,81.0,66.8,30.23,ENE,65,1.0,3.0,62,0.00,,---,0.00,VWS V14.01,2013-07-30 16:02:00,
2013-07-30 12:03:00,81.1,67.3,30.23,ENE,76,1.0,1.0,63,0.00,,---,0.00,VWS V14.01,2013-07-30 16:03:00,
2013-07-30 12:04:00,81.1,67.3,30.23,ESE,113,2.0,2.0,63,0.00,,---,0.00,VWS V14.01,2013-07-30 16:04:00,
2013-07-30 12:05:00,81.1,67.3,30.23,SE,129,3.0,5.0,63,0.00,,---,0.00,VWS V14.01,2013-07-30 16:05:00,
2013-07-30 12:06:00,81.1,66.9,30.23,East,101,5.0,7.0,62,0.00,,---,0.00,VWS V14.01,2013-07-30 16:06:00,
2013-07-30 12:07:00,81.2,66.9,30.23,ENE,74,4.0,5.0,62,0.00,,---,0.00,VWS V14.01,2013-07-30 16:07:00,
2013-07-30 12:08:00,81.2,66.5,30.23,East,82,3.0,7.0,61,0.00,,---,0.00,VWS V14.01,2013-07-30 16:08:00,
2013-07-30 12:09:00,81.1,66.4,30.23,East,87,2.0,3.0,61,0.00,,---,0.00,VWS V14.01,2013-07-30 16:09:00,
2013-07-30 12:10:00,81.2,66.9,30.23,East,88,6.0,7.0,62,0.00,,---,0.00,VWS V14.01,2013-07-30 16:10:00,
2013-07-30 12:11:00,81.2,66.5,30.23,East,84,3.0,6.0,61,0.00,,---,0.00,VWS V14.01,2013-07-30 16:11:00,
2013-07-30 12:12:00,81.2,66.5,30.23,ENE,76,1.0,3.0,61,0.00,,---,0.00,VWS V14.01,2013-07-30 16:12:00,
2013-07-30 12:13:00,81.2,66.9,30.23,ENE,70,2.0,2.0,62,0.00,,---,0.00,VWS V14.01,2013-07-30 16:13:00,
2013-07-30 12:14:00,81.3,66.6,30.23,ENE,72,2.0,3.0,61,0.00,,---,0.00,VWS V14.01,2013-07-30 16:14:00,
2013-07-30 12:15:00,81.3,67.1,30.23,ENE,70,5.0,5.0,62,0.00,,---,0.00,VWS V14.01,2013-07-30 16:15:00,
2013-07-30 12:16:00,81.3,67.1,30.23,ENE,73,8.0,8.0,62,0.00,,---,0.00,VWS V14.01,2013-07-30 16:16:00,
2013-07-30 12:17:00,81.2,66.9,30.23,ESE,107,7.0,8.0,62,0.00,,---,0.00,VWS V14.01,2013-07-30 16:17:00,
2013-07-30 12:18:00,81.2,66.9,30.23,East,86,7.0,8.0,62,0.00,,---,0.00,VWS V14.01,2013-07-30 16:18:00,
2013-07-30 12:19:00,81.1,66.9,30.23,East,93,7.0,8.0,62,0.00,,---,0.00,VWS V14.01,2013-07-30 16:19:00,
2013-07-30 12:20:00,81.0,66.8,30.23,East,96,6.0,7.0,62,0.00,,---,0.00,VWS V14.01,2013-07-30 16:20:00,
2013-07-30 12:21:00,81.0,67.2,30.23,ENE,78,4.0,6.0,63,0.00,,---,0.00,VWS V14.01,2013-07-30 16:21:00,
2013-07-30 12:22:00,81.0,67.2,30.22,ENE,71,2.0,5.0,63,0.00,,---,0.00,VWS V14.01,2013-07-30 16:22:00,
2013-07-30 12:23:00,81.0,67.2,30.22,ENE,71,2.0,5.0,63,0.00,,---,0.00,VWS V14.01,2013-07-30 16:23:00,
2013-07-30 12:24:00,81.0,67.2,30.23,ENE,73,3.0,4.0,63,0.00,,---,0.00,VWS V14.01,2013-07-30 16:24:00,
2013-07-30 12:25:00,81.1,67.8,30.23,East,97,8.0,8.0,64,0.00,,---,0.00,VWS V14.01,2013-07-30 16:25:00,
2013-07-30 12:26:00,81.1,66.4,30.22,East,101,7.0,8.0,61,0.00,,---,0.00,VWS V14.01,2013-07-30 16:26:00,
2013-07-30 12:27:00,81.2,67.4,30.23,ENE,65,3.0,3.0,63,0.00,,---,0.00,VWS V14.01,2013-07-30 16:27:00,
2013-07-30 12:28:00,81.2,67.4,30.23,ENE,61,3.0,3.0,63,0.00,,---,0.00,VWS V14.01,2013-07-30 16:28:00,
2013-07-30 12:29:00,81.2,66.9,30.22,East,80,5.0,5.0,62,0.00,,---,0.00,VWS V14.01,2013-07-30 16:29:00,
2013-07-30 12:30:00,81.2,66.9,30.22,East,86,6.0,8.0,62,0.00,,---,0.00,VWS V14.01,2013-07-30 16:30:00,
2013-07-30 12:31:00,81.3,67.1,30.22,ESE,103,1.0,6.0,62,0.00,,---,0.00,VWS V14.01,2013-07-30 16:31:00,
2013-07-30 12:32:00,81.4,68.1,30.22,NE,42,2.0,3.0,64,0.00,,---,0.00,VWS V14.01,2013-07-30 16:32:00,
2013-07-30 12:33:00,81.4,68.1,30.22,NE,42,1.0,3.0,64,0.00,,---,0.00,VWS V14.01,2013-07-30 16:33:00,
2013-07-30 12:34:00,81.5,67.7,30.22,ESE,119,2.0,2.0,63,0.00,,---,0.00,VWS V14.01,2013-07-30 16:34:00,
2013-07-30 12:35:00,81.7,67.9,30.22,South,169,3.0,3.0,63,0.00,,---,0.00,VWS V14.01,2013-07-30 16:35:00,
2013-07-30 12:36:00,81.9,67.6,30.22,WSW,250,2.0,4.0,62,0.00,,---,0.00,VWS V14.01,2013-07-30 16:36:00,
2013-07-30 12:37:00,82.2,68.4,30.23,East,100,3.0,3.0,63,0.00,,---,0.00,VWS V14.01,2013-07-30 16:37:00,
2013-07-30 12:38:00,82.3,68.5,30.23,East,100,3.0,3.0,63,0.00,,---,0.00,VWS V14.01,2013-07-30 16:38:00,
2013-07-30 12:39:00,82.4,68.1,30.22,ENE,70,3.0,4.0,62,0.00,,---,0.00,VWS V14.01,2013-07-30 16:39:00,
2013-07-30 12:40:00,82.4,67.6,30.22,East,80,3.0,3.0,61,0.00,,---,0.00,VWS V14.01,2013-07-30 16:40:00,
2013-07-30 12:41:00,82.4,68.1,30.22,ENE,72,3.0,5.0,62,0.00,,---,0.00,VWS V14.01,2013-07-30 16:41:00,
2013-07-30 12:42:00,82.3,68.0,30.22,ENE,78,3.0,4.0,62,0.00,,---,0.00,VWS V14.01,2013-07-30 16:42:00,
2013-07-30 12:43:00,82.3,67.5,30.22,ENE,71,2.0,4.0,61,0.00,,---,0.00,VWS V14.01,2013-07-30 16:43:00,
2013-07-30 12:44:00,82.2,68.4,30.22,SSE,165,1.0,2.0,63,0.00,,---,0.00,VWS V14.01,2013-07-30 16:44:00,
2013-07-30 12:45:00,82.3,68.0,30.22,ENE,66,1.0,1.0,62,0.00,,---,0.00,VWS V14.01,2013-07-30 16:45:00,
2013-07-30 12:46:00,82.4,68.1,30.22,ENE,57,3.0,5.0,62,0.00,,---,0.00,VWS V14.01,2013-07-30 16:46:00,
2013-07-30 12:47:00,82.4,68.1,30.22,East,92,5.0,7.0,62,0.00,,---,0.00,VWS V14.01,2013-07-30 16:47:00,
2013-07-30 12:48:00,82.4,68.1,30.22,East,87,3.0,7.0,62,0.00,,---,0.00,VWS V14.01,2013-07-30 16:48:00,
2013-07-30 12:49:00,82.3,67.5,30.22,East,86,8.0,9.0,61,0.00,,---,0.00,VWS V14.01,2013-07-30 16:49:00,
2013-07-30 12:50:00,82.3,67.5,30.22,East,99,8.0,11.0,61,0.00,,---,0.00,VWS V14.01,2013-07-30 16:50:00,
2013-07-30 12:51:00,82.1,67.3,30.22,East,93,5.0,8.0,61,0.00,,---,0.00,VWS V14.01,2013-07-30 16:51:00,
2013-07-30 12:52:00,82.0,66.8,30.22,ENE,78,7.0,9.0,60,0.00,,---,0.00,VWS V14.01,2013-07-30 16:52:00,
2013-07-30 12:53:00,82.0,66.8,30.22,East,95,6.0,9.0,60,0.00,,---,0.00,VWS V14.01,2013-07-30 16:53:00,
2013-07-30 12:54:00,82.1,67.3,30.22,ENE,74,4.0,7.0,61,0.00,,---,0.00,VWS V14.01,2013-07-30 16:54:00,
2013-07-30 12:55:00,82.1,67.3,30.22,NE,54,1.0,4.0,61,0.00,,---,0.00,VWS V14.01,2013-07-30 16:55:00,
2013-07-30 12:56:00,82.1,66.8,30.22,NNE,27,1.0,2.0,60,0.00,,---,0.00,VWS V14.01,2013-07-30 16:56:00,
2013-07-30 12:57:00,82.3,67.0,30.22,SE,126,3.0,5.0,60,0.00,,---,0.00,VWS V14.01,2013-07-30 16:57:00,
2013-07-30 12:58:00,82.4,67.1,30.22,East,98,6.0,6.0,60,0.00,,---,0.00,VWS V14.01,2013-07-30 16:58:00,
2013-07-30 12:59:00,82.5,66.2,30.22,East,92,7.0,7.0,58,0.00,,---,0.00,VWS V14.01,2013-07-30 16:59:00,
2013-07-30 13:00:00,82.6,64.8,30.22,East,85,6.0,6.0,55,0.00,,---,0.00,VWS V14.01,2013-07-30 17:00:00,
2013-07-30 13:01:00,82.7,64.4,30.22,East,86,3.0,6.0,54,0.00,,---,0.00,VWS V14.01,2013-07-30 17:01:00,
2013-07-30 13:02:00,82.7,65.4,30.22,East,89,2.0,2.0,56,0.00,,---,0.00,VWS V14.01,2013-07-30 17:02:00,
2013-07-30 13:03:00,82.8,65.5,30.22,East,86,2.0,2.0,56,0.00,,---,0.00,VWS V14.01,2013-07-30 17:03:00,
2013-07-30 13:04:00,82.9,66.1,30.22,SSE,162,2.0,4.0,57,0.00,,---,0.00,VWS V14.01,2013-07-30 17:04:00,
2013-07-30 13:05:00,83.1,66.3,30.22,ESE,119,3.0,5.0,57,0.00,,---,0.00,VWS V14.01,2013-07-30 17:05:00,
2013-07-30 13:06:00,83.3,66.0,30.22,East,82,2.0,3.0,56,0.00,,---,0.00,VWS V14.01,2013-07-30 17:06:00,
2013-07-30 13:07:00,83.6,66.8,30.22,SE,138,1.0,2.0,57,0.00,,---,0.00,VWS V14.01,2013-07-30 17:07:00,
2013-07-30 13:08:00,83.7,66.9,30.22,SE,137,1.0,2.0,57,0.00,,---,0.00,VWS V14.01,2013-07-30 17:08:00,
2013-07-30 13:09:00,83.9,67.1,30.22,East,90,2.0,3.0,57,0.00,,---,0.00,VWS V14.01,2013-07-30 17:09:00,
2013-07-30 13:10:00,84.2,66.8,30.22,SSW,209,2.0,2.0,56,0.00,,---,0.00,VWS V14.01,2013-07-30 17:10:00,
2013-07-30 13:11:00,84.4,67.5,30.22,ESE,109,2.0,2.0,57,0.00,,---,0.00,VWS V14.01,2013-07-30 17:11:00,
2013-07-30 13:12:00,84.8,67.4,30.22,South,174,2.0,3.0,56,0.00,,---,0.00,VWS V14.01,2013-07-30 17:12:00,
2013-07-30 13:13:00,84.8,67.4,30.22,SW,233,2.0,3.0,56,0.00,,---,0.00,VWS V14.01,2013-07-30 17:13:00,
2013-07-30 13:14:00,85.0,67.6,30.22,SSE,167,4.0,4.0,56,0.00,,---,0.00,VWS V14.01,2013-07-30 17:14:00,
2013-07-30 13:15:00,85.2,68.3,30.22,East,98,1.0,4.0,57,0.00,,---,0.00,VWS V14.01,2013-07-30 17:15:00,
2013-07-30 13:16:00,85.2,68.3,30.22,ESE,104,1.0,2.0,57,0.00,,---,0.00,VWS V14.01,2013-07-30 17:16:00,
2013-07-30 13:17:00,85.4,68.4,30.22,SE,138,2.0,2.0,57,0.00,,---,0.00,VWS V14.01,2013-07-30 17:17:00,
2013-07-30 13:18:00,85.4,68.4,30.22,ESE,121,1.0,2.0,57,0.00,,---,0.00,VWS V14.01,2013-07-30 17:18:00,
2013-07-30 13:19:00,85.6,68.6,30.21,South,190,2.0,3.0,57,0.00,,---,0.00,VWS V14.01,2013-07-30 17:19:00,
2013-07-30 13:20:00,85.7,68.2,30.21,South,190,3.0,4.0,56,0.00,,---,0.00,VWS V14.01,2013-07-30 17:20:00,
2013-07-30 13:21:00,85.7,67.2,30.22,SSE,163,2.0,4.0,54,0.00,,---,0.00,VWS V14.01,2013-07-30 17:21:00,
2013-07-30 13:22:00,85.7,67.2,30.21,SW,225,0.0,1.0,54,0.00,,---,0.00,VWS V14.01,2013-07-30 17:22:00,
2013-07-30 13:23:00,85.7,67.2,30.21,SW,225,0.0,1.0,54,0.00,,---,0.00,VWS V14.01,2013-07-30 17:23:00,
2013-07-30 13:24:00,85.8,67.8,30.21,ESE,105,1.0,1.0,55,0.00,,---,0.00,VWS V14.01,2013-07-30 17:24:00,
2013-07-30 13:25:00,85.8,68.3,30.21,East,95,2.0,2.0,56,0.00,,---,0.00,VWS V14.01,2013-07-30 17:25:00,
2013-07-30 13:26:00,85.7,67.2,30.21,East,80,6.0,7.0,54,0.00,,---,0.00,VWS V14.01,2013-07-30 17:26:00,
2013-07-30 13:27:00,85.2,66.7,30.21,ESE,107,4.0,7.0,54,0.00,,---,0.00,VWS V14.01,2013-07-30 17:27:00,
2013-07-30 13:28:00,85.1,66.6,30.21,ESE,103,5.0,7.0,54,0.00,,---,0.00,VWS V14.01,2013-07-30 17:28:00,
2013-07-30 13:29:00,84.8,66.8,30.21,ENE,61,5.0,7.0,55,0.00,,---,0.00,VWS V14.01,2013-07-30 17:29:00,
2013-07-30 13:30:00,84.6,67.2,30.21,East,89,6.0,8.0,56,0.00,,---,0.00,VWS V14.01,2013-07-30 17:30:00,
2013-07-30 13:31:00,84.3,67.4,30.21,ESE,103,5.0,7.0,57,0.00,,---,0.00,VWS V14.01,2013-07-30 17:31:00,
2013-07-30 13:32:00,84.0,67.7,30.21,ESE,118,2.0,4.0,58,0.00,,---,0.00,VWS V14.01,2013-07-30 17:32:00,
2013-07-30 13:33:00,84.0,67.7,30.21,ESE,114,3.0,4.0,58,0.00,,---,0.00,VWS V14.01,2013-07-30 17:33:00,
2013-07-30 13:34:00,84.0,67.7,30.21,NE,53,3.0,3.0,58,0.00,,---,0.00,VWS V14.01,2013-07-30 17:34:00,
2013-07-30 13:35:00,84.0,68.1,30.21,ENE,57,2.0,3.0,59,0.00,,---,0.00,VWS V14.01,2013-07-30 17:35:00,
2013-07-30 13:36:00,83.9,67.6,30.21,ENE,67,3.0,4.0,58,0.00,,---,0.00,VWS V14.01,2013-07-30 17:36:00,
2013-07-30 13:37:00,84.0,67.7,30.21,ESE,107,7.0,7.0,58,0.00,,---,0.00,VWS V14.01,2013-07-30 17:37:00,
2013-07-30 13:38:00,84.0,67.7,30.21,East,80,6.0,9.0,58,0.00,,---,0.00,VWS V14.01,2013-07-30 17:38:00,
2013-07-30 13:39:00,84.0,67.1,30.21,SE,125,4.0,7.0,57,0.00,,---,0.00,VWS V14.01,2013-07-30 17:39:00,
2013-07-30 13:40:00,84.0,67.7,30.21,ESE,109,2.0,4.0,58,0.00,,---,0.00,VWS V14.01,2013-07-30 17:40:00,
2013-07-30 13:41:00,83.9,66.5,30.21,ENE,69,4.0,5.0,56,0.00,,---,0.00,VWS V14.01,2013-07-30 17:41:00,
2013-07-30 13:42:00,83.9,67.6,30.21,ESE,102,2.0,2.0,58,0.00,,---,0.00,VWS V14.01,2013-07-30 17:42:00,
2013-07-30 13:43:00,83.9,67.6,30.21,East,94,2.0,2.0,58,0.00,,---,0.00,VWS V14.01,2013-07-30 17:43:00,
2013-07-30 13:44:00,84.0,66.6,30.21,SE,136,2.0,3.0,56,0.00,,---,0.00,VWS V14.01,2013-07-30 17:44:00,
2013-07-30 13:45:00,84.1,67.2,30.21,SE,131,1.0,2.0,57,0.00,,---,0.00,VWS V14.01,2013-07-30 17:45:00,
2013-07-30 13:46:00,84.2,66.8,30.21,East,83,5.0,7.0,56,0.00,,---,0.00,VWS V14.01,2013-07-30 17:46:00,
2013-07-30 13:47:00,84.2,66.8,30.20,ENE,78,2.0,3.0,56,0.00,,---,0.00,VWS V14.01,2013-07-30 17:47:00,
2013-07-30 13:48:00,84.2,66.8,30.20,East,90,2.0,3.0,56,0.00,,---,0.00,VWS V14.01,2013-07-30 17:48:00,
2013-07-30 13:49:00,84.1,66.7,30.20,ENE,74,8.0,8.0,56,0.00,,---,0.00,VWS V14.01,2013-07-30 17:49:00,
2013-07-30 13:50:00,84.1,66.7,30.20,ENE,73,3.0,8.0,56,0.00,,---,0.00,VWS V14.01,2013-07-30 17:50:00,
2013-07-30 13:51:00,84.1,66.2,30.20,East,95,6.0,6.0,55,0.00,,---,0.00,VWS V14.01,2013-07-30 17:51:00,
2013-07-30 13:52:00,84.1,65.7,30.20,NE,54,3.0,5.0,54,0.00,,---,0.00,VWS V14.01,2013-07-30 17:52:00,
2013-07-30 13:53:00,84.1,65.7,30.20,ENE,61,2.0,5.0,54,0.00,,---,0.00,VWS V14.01,2013-07-30 17:53:00,
2013-07-30 13:54:00,84.1,65.7,30.20,ENE,59,2.0,5.0,54,0.00,,---,0.00,VWS V14.01,2013-07-30 17:54:00,
2013-07-30 13:55:00,84.1,66.2,30.20,East,98,2.0,4.0,55,0.00,,---,0.00,VWS V14.01,2013-07-30 17:55:00,
2013-07-30 13:56:00,84.2,64.1,30.20,NE,51,2.0,3.0,51,0.00,,---,0.00,VWS V14.01,2013-07-30 17:56:00,
2013-07-30 13:57:00,84.3,63.7,30.20,ENE,78,0.0,2.0,50,0.00,,---,0.00,VWS V14.01,2013-07-30 17:57:00,
2013-07-30 13:58:00,84.3,63.7,30.20,West,277,1.0,2.0,50,0.00,,---,0.00,VWS V14.01,2013-07-30 17:58:00,
2013-07-30 13:59:00,84.5,65.5,30.20,WSW,257,2.0,2.0,53,0.00,,---,0.00,VWS V14.01,2013-07-30 17:59:00,
2013-07-30 14:00:00,84.8,66.3,30.20,ESE,103,4.0,4.0,54,0.00,,---,0.00,VWS V14.01,2013-07-30 18:00:00,
2013-07-30 14:01:00,85.0,65.4,30.20,ENE,71,2.0,5.0,52,0.00,,---,0.00,VWS V14.01,2013-07-30 18:01:00,
2013-07-30 14:02:00,85.2,66.2,30.20,ESE,112,0.0,3.0,53,0.00,,---,0.00,VWS V14.01,2013-07-30 18:02:00,
2013-07-30 14:03:00,85.4,67.9,30.20,ENE,69,2.0,2.0,56,0.00,,---,0.00,VWS V14.01,2013-07-30 18:03:00,
2013-07-30 14:04:00,85.5,67.5,30.20,SE,126,2.0,6.0,55,0.00,,---,0.00,VWS V14.01,2013-07-30 18:04:00,
2013-07-30 14:05:00,85.4,67.9,30.20,East,93,2.0,3.0,56,0.00,,---,0.00,VWS V14.01,2013-07-30 18:05:00,
2013-07-30 14:06:00,85.3,67.8,30.19,East,98,8.0,8.0,56,0.00,,---,0.00,VWS V14.01,2013-07-30 18:06:00,
2013-07-30 14:07:00,85.1,67.1,30.20,East,80,5.0,8.0,55,0.00,,---,0.00,VWS V14.01,2013-07-30 18:07:00,
2013-07-30 14:08:00,84.8,67.4,30.20,East,89,3.0,5.0,56,0.00,,---,0.00,VWS V14.01,2013-07-30 18:08:00,
2013-07-30 14:09:00,84.6,67.2,30.19,ENE,73,3.0,3.0,56,0.00,,---,0.00,VWS V14.01,2013-07-30 18:09:00,
2013-07-30 14:10:00,84.5,68.1,30.19,ENE,59,2.0,3.0,58,0.00,,---,0.00,VWS V14.01,2013-07-30 18:10:00,
2013-07-30 14:11:00,84.4,67.5,30.19,East,82,5.0,5.0,57,0.00,,---,0.00,VWS V14.01,2013-07-30 18:11:00,
2013-07-30 14:12:00,84.3,67.9,30.20,East,84,6.0,6.0,58,0.00,,---,0.00,VWS V14.01,2013-07-30 18:12:00,
2013-07-30 14:13:00,84.1,66.2,30.19,East,85,5.0,8.0,55,0.00,,---,0.00,VWS V14.01,2013-07-30 18:13:00,
2013-07-30 14:14:00,84.0,66.6,30.19,East,98,7.0,7.0,56,0.00,,---,0.00,VWS V14.01,2013-07-30 18:14:00,
2013-07-30 14:15:00,83.8,65.9,30.19,SE,126,1.0,8.0,55,0.00,,---,0.00,VWS V14.01,2013-07-30 18:15:00,
2013-07-30 14:16:00,83.7,66.3,30.19,East,80,2.0,3.0,56,0.00,,---,0.00,VWS V14.01,2013-07-30 18:16:00,
2013-07-30 14:17:00,83.6,66.3,30.20,East,80,0.0,2.0,56,0.00,,---,0.00,VWS V14.01,2013-07-30 18:17:00,
2013-07-30 14:18:00,83.6,66.3,30.20,East,80,0.0,2.0,56,0.00,,---,0.00,VWS V14.01,2013-07-30 18:18:00,
2013-07-30 14:19:00,83.6,66.3,30.19,SSE,149,1.0,1.0,56,0.00,,---,0.00,VWS V14.01,2013-07-30 18:19:00,
2013-07-30 14:20:00,83.7,66.3,30.19,SSE,162,1.0,2.0,56,0.00,,---,0.00,VWS V14.01,2013-07-30 18:20:00,
2013-07-30 14:21:00,83.9,66.5,30.19,SSE,161,0.0,1.0,56,0.00,,---,0.00,VWS V14.01,2013-07-30 18:21:00,
2013-07-30 14:22:00,84.2,66.8,30.19,East,95,2.0,3.0,56,0.00,,---,0.00,VWS V14.01,2013-07-30 18:22:00,
2013-07-30 14:24:00,84.3,67.4,30.19,East,95,2.0,2.0,57,0.00,,---,0.00,VWS V14.01,2013-07-30 18:24:00,
2013-07-30 14:25:00,84.2,66.3,30.19,ENE,63,4.0,4.0,55,0.00,,---,0.00,VWS V14.01,2013-07-30 18:25:00,
2013-07-30 14:26:00,84.1,66.2,30.19,East,84,5.0,5.0,55,0.00,,---,0.00,VWS V14.01,2013-07-30 18:26:00,
2013-07-30 14:27:00,83.9,65.5,30.19,ENE,66,2.0,3.0,54,0.00,,---,0.00,VWS V14.01,2013-07-30 18:27:00,
2013-07-30 14:28:00,83.9,66.0,30.19,ENE,65,2.0,3.0,55,0.00,,---,0.00,VWS V14.01,2013-07-30 18:28:00,
2013-07-30 14:29:00,83.9,66.0,30.19,ENE,76,3.0,5.0,55,0.00,,---,0.00,VWS V14.01,2013-07-30 18:29:00,
2013-07-30 14:30:00,83.8,66.4,30.19,ENE,61,2.0,3.0,56,0.00,,---,0.00,VWS V14.01,2013-07-30 18:30:00,
2013-07-30 14:31:00,83.7,66.3,30.19,ENE,78,2.0,3.0,56,0.00,,---,0.00,VWS V14.01,2013-07-30 18:31:00,
2013-07-30 14:32:00,83.6,65.7,30.19,East,84,3.0,3.0,55,0.00,,---,0.00,VWS V14.01,2013-07-30 18:32:00,
2013-07-30 14:33:00,83.6,65.7,30.19,East,93,3.0,3.0,55,0.00,,---,0.00,VWS V14.01,2013-07-30 18:33:00,
2013-07-30 14:34:00,83.5,65.7,30.19,ENE,70,2.0,6.0,55,0.00,,---,0.00,VWS V14.01,2013-07-30 18:34:00,
2013-07-30 14:35:00,83.5,65.7,30.19,ENE,70,1.0,2.0,55,0.00,,---,0.00,VWS V14.01,2013-07-30 18:35:00,
2013-07-30 14:36:00,83.5,66.2,30.19,ENE,78,2.0,2.0,56,0.00,,---,0.00,VWS V14.01,2013-07-30 18:36:00,
2013-07-30 14:37:00,83.5,65.1,30.19,SE,125,1.0,2.0,54,0.00,,---,0.00,VWS V14.01,2013-07-30 18:37:00,
2013-07-30 14:38:00,83.5,65.1,30.19,SE,125,0.0,2.0,54,0.00,,---,0.00,VWS V14.01,2013-07-30 18:38:00,
2013-07-30 14:39:00,83.6,65.2,30.19,SE,126,1.0,1.0,54,0.00,,---,0.00,VWS V14.01,2013-07-30 18:39:00,
2013-07-30 14:40:00,83.7,65.3,30.19,SE,125,0.0,1.0,54,0.00,,---,0.00,VWS V14.01,2013-07-30 18:40:00,
2013-07-30 14:41:00,83.9,65.5,30.19,SE,125,0.0,0.0,54,0.00,,---,0.00,VWS V14.01,2013-07-30 18:41:00,
2013-07-30 14:42:00,84.2,64.7,30.18,ESE,123,2.0,3.0,52,0.00,,---,0.00,VWS V14.01,2013-07-30 18:42:00,
2013-07-30 14:43:00,84.2,64.7,30.18,ESE,105,3.0,3.0,52,0.00,,---,0.00,VWS V14.01,2013-07-30 18:43:00,
2013-07-30 14:44:00,84.2,64.7,30.19,ESE,105,1.0,3.0,52,0.00,,---,0.00,VWS V14.01,2013-07-30 18:44:00,
2013-07-30 14:45:00,84.3,64.2,30.19,SSW,194,1.0,1.0,51,0.00,,---,0.00,VWS V14.01,2013-07-30 18:45:00,
2013-07-30 14:46:00,84.4,64.9,30.19,SSW,198,0.0,2.0,52,0.00,,---,0.00,VWS V14.01,2013-07-30 18:46:00,
2013-07-30 14:47:00,84.7,65.7,30.18,East,84,1.0,3.0,53,0.00,,---,0.00,VWS V14.01,2013-07-30 18:47:00,
2013-07-30 14:48:00,84.7,65.7,30.18,East,83,0.0,3.0,53,0.00,,---,0.00,VWS V14.01,2013-07-30 18:48:00,
2013-07-30 14:49:00,84.9,65.9,30.18,SE,127,1.0,1.0,53,0.00,,---,0.00,VWS V14.01,2013-07-30 18:49:00,
2013-07-30 14:50:00,85.1,65.5,30.18,ESE,113,1.0,1.0,52,0.00,,---,0.00,VWS V14.01,2013-07-30 18:50:00,
2013-07-30 14:51:00,85.4,65.8,30.18,East,90,7.0,7.0,52,0.00,,---,0.00,VWS V14.01,2013-07-30 18:51:00,
2013-07-30 14:52:00,85.3,66.2,30.18,East,85,6.0,9.0,53,0.00,,---,0.00,VWS V14.01,2013-07-30 18:52:00,
2013-07-30 14:53:00,85.2,66.2,30.18,ESE,112,4.0,9.0,53,0.00,,---,0.00,VWS V14.01,2013-07-30 18:53:00,
2013-07-30 14:54:00,85.0,66.5,30.18,ESE,114,3.0,6.0,54,0.00,,---,0.00,VWS V14.01,2013-07-30 18:54:00,
2013-07-30 14:55:00,85.0,66.0,30.18,SE,141,1.0,6.0,53,0.00,,---,0.00,VWS V14.01,2013-07-30 18:55:00,
2013-07-30 14:56:00,85.0,66.0,30.18,SSE,159,1.0,1.0,53,0.00,,---,0.00,VWS V14.01,2013-07-30 18:56:00,
2013-07-30 14:57:00,85.3,66.8,30.18,East,100,1.0,1.0,54,0.00,,---,0.00,VWS V14.01,2013-07-30 18:57:00,
2013-07-30 14:58:00,85.3,66.8,30.18,ENE,74,2.0,2.0,54,0.00,,---,0.00,VWS V14.01,2013-07-30 18:58:00,
2013-07-30 14:59:00,85.5,67.0,30.18,East,86,6.0,6.0,54,0.00,,---,0.00,VWS V14.01,2013-07-30 18:59:00,
2013-07-30 15:00:00,85.4,66.3,30.18,East,94,3.0,7.0,53,0.00,,---,0.00,VWS V14.01,2013-07-30 19:00:00,
2013-07-30 15:01:00,85.3,66.2,30.18,East,96,3.0,6.0,53,0.00,,---,0.00,VWS V14.01,2013-07-30 19:01:00,
2013-07-30 15:02:00,85.3,67.3,30.18,ESE,121,3.0,3.0,55,0.00,,---,0.00,VWS V14.01,2013-07-30 19:02:00,
2013-07-30 15:03:00,85.4,67.4,30.18,SSE,148,1.0,3.0,55,0.00,,---,0.00,VWS V14.01,2013-07-30 19:03:00,
2013-07-30 15:04:00,85.6,67.1,30.18,SE,133,0.0,2.0,54,0.00,,---,0.00,VWS V14.01,2013-07-30 19:04:00,
2013-07-30 15:05:00,85.8,66.7,30.18,ENE,78,2.0,4.0,53,0.00,,---,0.00,VWS V14.01,2013-07-30 19:05:00,
2013-07-30 15:06:00,85.9,67.3,30.18,South,190,1.0,2.0,54,0.00,,---,0.00,VWS V14.01,2013-07-30 19:06:00,
2013-07-30 15:07:00,86.1,67.0,30.18,SE,126,2.0,3.0,53,0.00,,---,0.00,VWS V14.01,2013-07-30 19:07:00,
2013-07-30 15:08:00,86.2,67.1,30.18,SW,221,2.0,3.0,53,0.00,,---,0.00,VWS V14.01,2013-07-30 19:08:00,
2013-07-30 15:09:00,86.4,66.7,30.18,WSW,246,1.0,3.0,52,0.00,,---,0.00,VWS V14.01,2013-07-30 19:09:00,
2013-07-30 15:10:00,86.5,66.8,30.18,ESE,109,4.0,6.0,52,0.00,,---,0.00,VWS V14.01,2013-07-30 19:10:00,
2013-07-30 15:11:00,86.5,66.2,30.18,SE,140,3.0,4.0,51,0.00,,---,0.00,VWS V14.01,2013-07-30 19:11:00,
2013-07-30 15:12:00,86.3,66.6,30.17,SE,132,3.0,3.0,52,0.00,,---,0.00,VWS V14.01,2013-07-30 19:12:00,
2013-07-30 15:13:00,86.3,66.6,30.17,ESE,117,2.0,3.0,52,0.00,,---,0.00,VWS V14.01,2013-07-30 19:13:00,
2013-07-30 15:14:00,86.3,65.5,30.17,SE,145,0.0,2.0,50,0.00,,---,0.00,VWS V14.01,2013-07-30 19:14:00,
2013-07-30 15:15:00,86.5,66.2,30.17,SSE,168,3.0,3.0,51,0.00,,---,0.00,VWS V14.01,2013-07-30 19:15:00,
2013-07-30 15:16:00,86.6,66.3,30.17,SSE,165,0.0,3.0,51,0.00,,---,0.00,VWS V14.01,2013-07-30 19:16:00,
2013-07-30 15:17:00,86.8,66.5,30.17,SW,221,1.0,2.0,51,0.00,,---,0.00,VWS V14.01,2013-07-30 19:17:00,
2013-07-30 15:18:00,86.9,66.6,30.17,South,180,1.0,2.0,51,0.00,,---,0.00,VWS V14.01,2013-07-30 19:18:00,
2013-07-30 15:19:00,86.9,66.0,30.17,North,5,2.0,2.0,50,0.00,,---,0.00,VWS V14.01,2013-07-30 19:19:00,
2013-07-30 15:20:00,86.9,66.0,30.17,NE,34,1.0,2.0,50,0.00,,---,0.00,VWS V14.01,2013-07-30 19:20:00,
2013-07-30 15:21:00,86.9,67.2,30.17,NNE,33,0.0,1.0,52,0.00,,---,0.00,VWS V14.01,2013-07-30 19:21:00,
2013-07-30 15:22:00,86.8,67.1,30.17,NNE,33,0.0,0.0,52,0.00,,---,0.00,VWS V14.01,2013-07-30 19:22:00,
2013-07-30 15:23:00,86.8,66.5,30.17,NE,34,1.0,1.0,51,0.00,,---,0.00,VWS V14.01,2013-07-30 19:23:00,
2013-07-30 15:24:00,86.7,68.1,30.17,NNE,33,1.0,1.0,54,0.00,,---,0.00,VWS V14.01,2013-07-30 19:24:00,
2013-07-30 15:25:00,86.7,65.9,30.17,ENE,69,3.0,4.0,50,0.00,,---,0.00,VWS V14.01,2013-07-30 19:25:00,
2013-07-30 15:26:00,86.4,65.0,30.17,ENE,66,4.0,4.0,49,0.00,,---,0.00,VWS V14.01,2013-07-30 19:26:00,
2013-07-30 15:27:00,86.0,64.6,30.17,East,95,3.0,5.0,49,0.00,,---,0.00,VWS V14.01,2013-07-30 19:27:00,
2013-07-30 15:28:00,85.9,65.1,30.17,ESE,106,3.0,5.0,50,0.00,,---,0.00,VWS V14.01,2013-07-30 19:28:00,
2013-07-30 15:29:00,85.8,66.2,30.17,ENE,61,1.0,3.0,52,0.00,,---,0.00,VWS V14.01,2013-07-30 19:29:00,
2013-07-30 15:30:00,85.7,65.5,30.17,ENE,61,2.0,2.0,51,0.00,,---,0.00,VWS V14.01,2013-07-30 19:30:00,
2013-07-30 15:31:00,85.6,66.5,30.17,ENE,69,3.0,3.0,53,0.00,,---,0.00,VWS V14.01,2013-07-30 19:31:00,
2013-07-30 15:32:00,85.6,66.0,30.17,ENE,63,3.0,4.0,52,0.00,,---,0.00,VWS V14.01,2013-07-30 19:32:00,
2013-07-30 15:33:00,85.6,65.4,30.17,East,80,3.0,4.0,51,0.00,,---,0.00,VWS V14.01,2013-07-30 19:33:00,
2013-07-30 15:34:00,85.4,65.2,30.17,East,95,6.0,6.0,51,0.00,,---,0.00,VWS V14.01,2013-07-30 19:34:00,
2013-07-30 15:35:00,85.3,65.7,30.17,ENE,74,4.0,6.0,52,0.00,,---,0.00,VWS V14.01,2013-07-30 19:35:00,
2013-07-30 15:36:00,85.2,65.1,30.17,ENE,78,7.0,7.0,51,0.00,,---,0.00,VWS V14.01,2013-07-30 19:36:00,
2013-07-30 15:37:00,85.0,65.4,30.17,ENE,78,4.0,6.0,52,0.00,,---,0.00,VWS V14.01,2013-07-30 19:37:00,
2013-07-30 15:38:00,85.0,65.4,30.17,East,80,2.0,6.0,52,0.00,,---,0.00,VWS V14.01,2013-07-30 19:38:00,
2013-07-30 15:39:00,84.8,65.2,30.17,East,80,2.0,2.0,52,0.00,,---,0.00,VWS V14.01,2013-07-30 19:39:00,
2013-07-30 15:40:00,84.7,65.1,30.17,East,95,2.0,2.0,52,0.00,,---,0.00,VWS V14.01,2013-07-30 19:40:00,
2013-07-30 15:41:00,84.6,65.6,30.17,East,90,2.0,2.0,53,0.00,,---,0.00,VWS V14.01,2013-07-30 19:41:00,
2013-07-30 15:42:00,84.6,65.6,30.17,East,101,2.0,2.0,53,0.00,,---,0.00,VWS V14.01,2013-07-30 19:42:00,
2013-07-30 15:43:00,84.5,65.5,30.17,ENE,78,2.0,2.0,53,0.00,,---,0.00,VWS V14.01,2013-07-30 19:43:00,
2013-07-30 15:44:00,84.5,65.5,30.17,ESE,106,1.0,2.0,53,0.00,,---,0.00,VWS V14.01,2013-07-30 19:44:00,
2013-07-30 15:45:00,84.5,65.5,30.17,ESE,121,1.0,2.0,53,0.00,,---,0.00,VWS V14.01,2013-07-30 19:45:00,
2013-07-30 15:46:00,84.4,65.9,30.17,ESE,113,1.0,2.0,54,0.00,,---,0.00,VWS V14.01,2013-07-30 19:46:00,
2013-07-30 15:47:00,84.3,64.8,30.17,East,101,3.0,4.0,52,0.00,,---,0.00,VWS V14.01,2013-07-30 19:47:00,
2013-07-30 15:48:00,84.3,64.8,30.17,East,97,2.0,4.0,52,0.00,,---,0.00,VWS V14.01,2013-07-30 19:48:00,
2013-07-30 15:49:00,84.2,65.8,30.17,ESE,118,1.0,2.0,54,0.00,,---,0.00,VWS V14.01,2013-07-30 19:49:00,
2013-07-30 15:50:00,84.2,66.3,30.17,SSE,148,1.0,1.0,55,0.00,,---,0.00,VWS V14.01,2013-07-30 19:50:00,
2013-07-30 15:51:00,84.2,65.2,30.17,SSE,161,1.0,2.0,53,0.00,,---,0.00,VWS V14.01,2013-07-30 19:51:00,
2013-07-30 15:52:00,84.4,65.9,30.17,ESE,116,0.0,0.0,54,0.00,,---,0.00,VWS V14.01,2013-07-30 19:52:00,
2013-07-30 15:53:00,84.4,65.9,30.17,ESE,116,0.0,0.0,54,0.00,,---,0.00,VWS V14.01,2013-07-30 19:53:00,
2013-07-30 15:54:00,84.7,66.8,30.17,East,96,0.0,0.0,55,0.00,,---,0.00,VWS V14.01,2013-07-30 19:54:00,
2013-07-30 15:55:00,84.7,65.7,30.17,East,99,2.0,2.0,53,0.00,,---,0.00,VWS V14.01,2013-07-30 19:55:00,
2013-07-30 15:56:00,84.7,65.1,30.17,East,90,1.0,2.0,52,0.00,,---,0.00,VWS V14.01,2013-07-30 19:56:00,
2013-07-30 15:57:00,84.8,65.8,30.17,East,86,2.0,3.0,53,0.00,,---,0.00,VWS V14.01,2013-07-30 19:57:00,
2013-07-30 15:58:00,84.8,64.7,30.17,East,94,2.0,3.0,51,0.00,,---,0.00,VWS V14.01,2013-07-30 19:58:00,
2013-07-30 15:59:00,84.8,65.2,30.17,East,80,2.0,2.0,52,0.00,,---,0.00,VWS V14.01,2013-07-30 19:59:00,
2013-07-30 16:00:00,84.8,65.2,30.17,East,91,3.0,5.0,52,0.00,,---,0.00,VWS V14.01,2013-07-30 20:00:00,
2013-07-30 16:01:00,84.8,65.2,30.17,East,96,2.0,4.0,52,0.00,,---,0.00,VWS V14.01,2013-07-30 20:01:00,
2013-07-30 16:02:00,84.7,66.2,30.17,ENE,71,2.0,3.0,54,0.00,,---,0.00,VWS V14.01,2013-07-30 20:02:00,
2013-07-30 16:03:00,84.7,65.1,30.17,ENE,70,1.0,3.0,52,0.00,,---,0.00,VWS V14.01,2013-07-30 20:03:00,
2013-07-30 16:04:00,84.7,65.1,30.17,ENE,70,2.0,2.0,52,0.00,,---,0.00,VWS V14.01,2013-07-30 20:04:00,
2013-07-30 16:05:00,84.8,65.2,30.17,ENE,70,2.0,2.0,52,0.00,,---,0.00,VWS V14.01,2013-07-30 20:05:00,
2013-07-30 16:06:00,84.8,65.8,30.17,ENE,78,2.0,2.0,53,0.00,,---,0.00,VWS V14.01,2013-07-30 20:06:00,
2013-07-30 16:07:00,84.9,65.9,30.17,East,92,0.0,1.0,53,0.00,,---,0.00,VWS V14.01,2013-07-30 20:07:00,
2013-07-30 16:08:00,85.0,66.0,30.17,East,86,2.0,2.0,53,0.00,,---,0.00,VWS V14.01,2013-07-30 20:08:00,
2013-07-30 16:09:00,85.1,65.0,30.17,East,91,3.0,5.0,51,0.00,,---,0.00,VWS V14.01,2013-07-30 20:09:00,
2013-07-30 16:10:00,85.2,65.6,30.17,ESE,110,2.0,3.0,52,0.00,,---,0.00,VWS V14.01,2013-07-30 20:10:00,
2013-07-30 16:11:00,85.2,65.1,30.17,ESE,110,2.0,2.0,51,0.00,,---,0.00,VWS V14.01,2013-07-30 20:11:00,
2013-07-30 16:12:00,85.3,65.1,30.17,ESE,107,3.0,5.0,51,0.00,,---,0.00,VWS V14.01,2013-07-30 20:12:00,
2013-07-30 16:13:00,85.4,65.2,30.17,East,84,2.0,5.0,51,0.00,,---,0.00,VWS V14.01,2013-07-30 20:13:00,
2013-07-30 16:14:00,85.4,64.7,30.17,East,96,7.0,7.0,50,0.00,,---,0.00,VWS V14.01,2013-07-30 20:14:00,
2013-07-30 16:15:00,85.4,65.2,30.17,ESE,108,5.0,7.0,51,0.00,,---,0.00,VWS V14.01,2013-07-30 20:15:00,
2013-07-30 16:16:00,85.4,65.2,30.17,ENE,66,2.0,5.0,51,0.00,,---,0.00,VWS V14.01,2013-07-30 20:16:00,
2013-07-30 16:17:00,85.4,65.8,30.17,NE,56,1.0,1.0,52,0.00,,---,0.00,VWS V14.01,2013-07-30 20:17:00,
2013-07-30 16:18:00,85.4,65.8,30.17,East,80,2.0,2.0,52,0.00,,---,0.00,VWS V14.01,2013-07-30 20:18:00,
2013-07-30 16:19:00,85.4,65.2,30.17,SE,131,0.0,3.0,51,0.00,,---,0.00,VWS V14.01,2013-07-30 20:19:00,
2013-07-30 16:20:00,85.5,65.9,30.17,SSE,150,0.0,1.0,52,0.00,,---,0.00,VWS V14.01,2013-07-30 20:20:00,
2013-07-30 16:21:00,85.8,65.6,30.17,SSW,196,4.0,4.0,51,0.00,,---,0.00,VWS V14.01,2013-07-30 20:21:00,
2013-07-30 16:22:00,86.5,66.2,30.17,East,86,0.0,1.0,51,0.00,,---,0.00,VWS V14.01,2013-07-30 20:22:00,
2013-07-30 16:23:00,86.5,66.2,30.17,SW,226,1.0,1.0,51,0.00,,---,0.00,VWS V14.01,2013-07-30 20:23:00,
2013-07-30 16:24:00,86.9,65.5,30.17,SW,225,2.0,3.0,49,0.00,,---,0.00,VWS V14.01,2013-07-30 20:24:00,
2013-07-30 16:25:00,87.1,65.6,30.17,WSW,240,0.0,2.0,49,0.00,,---,0.00,VWS V14.01,2013-07-30 20:25:00,
2013-07-30 16:26:00,87.2,65.7,30.17,West,265,0.0,1.0,49,0.00,,---,0.00,VWS V14.01,2013-07-30 20:26:00,
2013-07-30 16:27:00,87.6,66.1,30.17,West,259,0.0,0.0,49,0.00,,---,0.00,VWS V14.01,2013-07-30 20:27:00,
2013-07-30 16:28:00,87.6,66.1,30.17,SE,132,2.0,2.0,49,0.00,,---,0.00,VWS V14.01,2013-07-30 20:28:00,
2013-07-30 16:29:00,87.9,65.8,30.17,SE,126,2.0,3.0,48,0.00,,---,0.00,VWS V14.01,2013-07-30 20:29:00,
2013-07-30 16:30:00,88.0,65.9,30.17,ESE,109,1.0,2.0,48,0.00,,---,0.00,VWS V14.01,2013-07-30 20:30:00,
2013-07-30 16:31:00,88.1,65.3,30.17,SSE,159,0.0,2.0,47,0.00,,---,0.00,VWS V14.01,2013-07-30 20:31:00,
2013-07-30 16:32:00,88.3,66.1,30.17,West,265,0.0,3.0,48,0.00,,---,0.00,VWS V14.01,2013-07-30 20:32:00,
2013-07-30 16:33:00,88.3,66.1,30.17,West,265,0.0,3.0,48,0.00,,---,0.00,VWS V14.01,2013-07-30 20:33:00,
2013-07-30 16:34:00,88.4,66.8,30.17,East,93,2.0,2.0,49,0.00,,---,0.00,VWS V14.01,2013-07-30 20:34:00,
2013-07-30 16:35:00,88.6,67.6,30.17,East,97,0.0,2.0,50,0.00,,---,0.00,VWS V14.01,2013-07-30 20:35:00,
2013-07-30 16:36:00,88.7,67.1,30.17,ESE,109,3.0,3.0,49,0.00,,---,0.00,VWS V14.01,2013-07-30 20:36:00,
2013-07-30 16:37:00,88.6,67.0,30.17,ESE,110,3.0,4.0,49,0.00,,---,0.00,VWS V14.01,2013-07-30 20:37:00,
2013-07-30 16:38:00,88.5,66.3,30.17,East,97,2.0,4.0,48,0.00,,---,0.00,VWS V14.01,2013-07-30 20:38:00,
2013-07-30 16:39:00,88.3,66.1,30.16,ESE,114,3.0,3.0,48,0.00,,---,0.00,VWS V14.01,2013-07-30 20:39:00,
2013-07-30 16:40:00,88.1,66.0,30.17,East,84,2.0,3.0,48,0.00,,---,0.00,VWS V14.01,2013-07-30 20:40:00,
2013-07-30 16:41:00,87.9,66.4,30.16,ENE,76,2.0,3.0,49,0.00,,---,0.00,VWS V14.01,2013-07-30 20:41:00,
2013-07-30 16:42:00,87.6,66.7,30.16,ESE,107,1.0,2.0,50,0.00,,---,0.00,VWS V14.01,2013-07-30 20:42:00,
2013-07-30 16:43:00,87.5,66.6,30.16,East,86,1.0,2.0,50,0.00,,---,0.00,VWS V14.01,2013-07-30 20:43:00,
2013-07-30 16:44:00,87.5,67.2,30.17,East,82,0.0,1.0,51,0.00,,---,0.00,VWS V14.01,2013-07-30 20:44:00,
2013-07-30 16:45:00,87.6,67.2,30.16,ENE,67,0.0,1.0,51,0.00,,---,0.00,VWS V14.01,2013-07-30 20:45:00,
2013-07-30 16:46:00,87.9,66.4,30.17,NE,51,0.0,1.0,49,0.00,,---,0.00,VWS V14.01,2013-07-30 20:46:00,
2013-07-30 16:47:00,88.3,66.7,30.16,ESE,118,0.0,2.0,49,0.00,,---,0.00,VWS V14.01,2013-07-30 20:47:00,
2013-07-30 16:48:00,88.3,66.7,30.16,ESE,118,0.0,2.0,49,0.00,,---,0.00,VWS V14.01,2013-07-30 20:48:00,
2013-07-30 16:49:00,88.5,66.9,30.16,NE,53,1.0,1.0,49,0.00,,---,0.00,VWS V14.01,2013-07-30 20:49:00,
2013-07-30 16:50:00,88.6,67.0,30.16,NNW,327,0.0,2.0,49,0.00,,---,0.00,VWS V14.01,2013-07-30 20:50:00,
2013-07-30 16:51:00,88.8,67.2,30.16,NNW,327,0.0,0.0,49,0.00,,---,0.00,VWS V14.01,2013-07-30 20:51:00,
2013-07-30 16:52:00,89.0,66.8,30.17,NNE,33,1.0,1.0,48,0.00,,---,0.00,VWS V14.01,2013-07-30 20:52:00,
2013-07-30 16:53:00,89.0,66.8,30.17,NNE,33,1.0,1.0,48,0.00,,---,0.00,VWS V14.01,2013-07-30 20:53:00,
2013-07-30 16:54:00,89.0,67.4,30.17,ESE,116,1.0,1.0,49,0.00,,---,0.00,VWS V14.01,2013-07-30 20:54:00,
2013-07-30 16:55:00,88.7,65.3,30.17,SE,132,1.0,2.0,46,0.00,,---,0.00,VWS V14.01,2013-07-30 20:55:00,
2013-07-30 16:56:00,88.6,65.2,30.17,SE,126,1.0,2.0,46,0.00,,---,0.00,VWS V14.01,2013-07-30 20:56:00,
2013-07-30 16:57:00,88.5,65.1,30.17,WSW,246,2.0,2.0,46,0.00,,---,0.00,VWS V14.01,2013-07-30 20:57:00,
2013-07-30 16:58:00,88.4,65.0,30.17,SW,226,2.0,2.0,46,0.00,,---,0.00,VWS V14.01,2013-07-30 20:58:00,
2013-07-30 16:59:00,88.4,65.6,30.17,West,259,1.0,2.0,47,0.00,,---,0.00,VWS V14.01,2013-07-30 20:59:00,
2013-07-30 17:00:00,88.2,65.4,30.17,SW,232,1.0,3.0,47,0.00,,---,0.00,VWS V14.01,2013-07-30 21:00:00,
2013-07-30 17:01:00,88.2,66.1,30.17,SW,231,0.0,1.0,48,0.00,,---,0.00,VWS V14.01,2013-07-30 21:01:00,
2013-07-30 17:02:00,88.5,66.3,30.17,ESE,109,3.0,3.0,48,0.00,,---,0.00,VWS V14.01,2013-07-30 21:02:00,
2013-07-30 17:03:00,88.6,66.4,30.17,ESE,103,3.0,3.0,48,0.00,,---,0.00,VWS V14.01,2013-07-30 21:03:00,
2013-07-30 17:04:00,88.6,65.8,30.17,ESE,123,0.0,3.0,47,0.00,,---,0.00,VWS V14.01,2013-07-30 21:04:00,
2013-07-30 17:05:00,88.6,65.8,30.17,ENE,76,0.0,2.0,47,0.00,,---,0.00,VWS V14.01,2013-07-30 21:05:00,
2013-07-30 17:06:00,88.6,65.8,30.17,ENE,73,0.0,1.0,47,0.00,,---,0.00,VWS V14.01,2013-07-30 21:06:00,
2013-07-30 17:07:00,88.6,65.2,30.17,ESE,111,3.0,3.0,46,0.00,,---,0.00,VWS V14.01,2013-07-30 21:07:00,
2013-07-30 17:08:00,88.4,66.2,30.16,East,90,3.0,5.0,48,0.00,,---,0.00,VWS V14.01,2013-07-30 21:08:00,
2013-07-30 17:09:00,88.1,65.3,30.17,ESE,103,2.0,5.0,47,0.00,,---,0.00,VWS V14.01,2013-07-30 21:09:00,
2013-07-30 17:10:00,87.9,65.2,30.17,ESE,111,1.0,2.0,47,0.00,,---,0.00,VWS V14.01,2013-07-30 21:10:00,
2013-07-30 17:11:00,87.7,65.0,30.17,ESE,123,1.0,1.0,47,0.00,,---,0.00,VWS V14.01,2013-07-30 21:11:00,
2013-07-30 17:12:00,87.7,65.6,30.16,East,99,0.0,1.0,48,0.00,,---,0.00,VWS V14.01,2013-07-30 21:12:00,
2013-07-30 17:13:00,87.7,65.6,30.16,ESE,106,1.0,1.0,48,0.00,,---,0.00,VWS V14.01,2013-07-30 21:13:00,
2013-07-30 17:14:00,87.9,65.8,30.16,SSE,155,0.0,0.0,48,0.00,,---,0.00,VWS V14.01,2013-07-30 21:14:00,
2013-07-30 17:15:00,88.2,66.1,30.17,East,101,0.0,0.0,48,0.00,,---,0.00,VWS V14.01,2013-07-30 21:15:00,
2013-07-30 17:16:00,88.6,67.6,30.17,East,82,1.0,2.0,50,0.00,,---,0.00,VWS V14.01,2013-07-30 21:16:00,
2013-07-30 17:17:00,88.8,66.6,30.17,East,80,1.0,1.0,48,0.00,,---,0.00,VWS V14.01,2013-07-30 21:17:00,
2013-07-30 17:18:00,88.8,66.6,30.16,East,80,1.0,1.0,48,0.00,,---,0.00,VWS V14.01,2013-07-30 21:18:00,
2013-07-30 17:19:00,88.7,66.5,30.16,East,81,1.0,1.0,48,0.00,,---,0.00,VWS V14.01,2013-07-30 21:19:00,
2013-07-30 17:20:00,88.6,67.0,30.16,ENE,65,1.0,1.0,49,0.00,,---,0.00,VWS V14.01,2013-07-30 21:20:00,
2013-07-30 17:21:00,88.6,67.0,30.16,NE,42,1.0,2.0,49,0.00,,---,0.00,VWS V14.01,2013-07-30 21:21:00,
2013-07-30 17:22:00,88.6,67.6,30.17,WNW,296,1.0,1.0,50,0.00,,---,0.00,VWS V14.01,2013-07-30 21:22:00,
2013-07-30 17:23:00,88.6,67.0,30.16,WNW,288,3.0,3.0,49,0.00,,---,0.00,VWS V14.01,2013-07-30 21:23:00,
2013-07-30 17:24:00,88.7,67.1,30.16,SE,145,1.0,2.0,49,0.00,,---,0.00,VWS V14.01,2013-07-30 21:24:00,
2013-07-30 17:25:00,88.6,65.8,30.17,ESE,109,1.0,3.0,47,0.00,,---,0.00,VWS V14.01,2013-07-30 21:25:00,
2013-07-30 17:26:00,88.5,65.7,30.16,ESE,111,0.0,2.0,47,0.00,,---,0.00,VWS V14.01,2013-07-30 21:26:00,
2013-07-30 17:27:00,88.4,66.2,30.16,ESE,112,0.0,0.0,48,0.00,,---,0.00,VWS V14.01,2013-07-30 21:27:00,
2013-07-30 17:28:00,88.4,67.4,30.16,ESE,112,0.0,0.0,50,0.00,,---,0.00,VWS V14.01,2013-07-30 21:28:00,
2013-07-30 17:29:00,88.4,66.8,30.16,ESE,112,0.0,0.0,49,0.00,,---,0.00,VWS V14.01,2013-07-30 21:29:00,
2013-07-30 17:30:00,88.4,66.8,30.16,ESE,112,0.0,0.0,49,0.00,,---,0.00,VWS V14.01,2013-07-30 21:30:00,
2013-07-30 17:31:00,88.4,66.2,30.16,ESE,111,0.0,2.0,48,0.00,,---,0.00,VWS V14.01,2013-07-30 21:31:00,
2013-07-30 17:32:00,88.5,66.9,30.16,ESE,112,0.0,2.0,49,0.00,,---,0.00,VWS V14.01,2013-07-30 21:32:00,
2013-07-30 17:33:00,88.5,66.9,30.16,South,188,0.0,0.0,49,0.00,,---,0.00,VWS V14.01,2013-07-30 21:33:00,
2013-07-30 17:34:00,88.7,67.1,30.16,South,188,0.0,0.0,49,0.00,,---,0.00,VWS V14.01,2013-07-30 21:34:00,
2013-07-30 17:35:00,88.9,67.9,30.16,ENE,69,1.0,1.0,50,0.00,,---,0.00,VWS V14.01,2013-07-30 21:35:00,
2013-07-30 17:36:00,89.1,66.9,30.16,ENE,71,1.0,1.0,48,0.00,,---,0.00,VWS V14.01,2013-07-30 21:36:00,
2013-07-30 17:37:00,89.1,66.3,30.16,ESE,115,3.0,3.0,47,0.00,,---,0.00,VWS V14.01,2013-07-30 21:37:00,
2013-07-30 17:38:00,88.9,66.1,30.16,SE,129,1.0,3.0,47,0.00,,---,0.00,VWS V14.01,2013-07-30 21:38:00,
2013-07-30 17:39:00,88.5,65.7,30.16,ESE,109,2.0,4.0,47,0.00,,---,0.00,VWS V14.01,2013-07-30 21:39:00,
2013-07-30 17:40:00,88.2,65.4,30.16,ESE,115,3.0,3.0,47,0.00,,---,0.00,VWS V14.01,2013-07-30 21:40:00,
2013-07-30 17:41:00,87.9,65.8,30.16,East,80,2.0,3.0,48,0.00,,---,0.00,VWS V14.01,2013-07-30 21:41:00,
2013-07-30 17:42:00,87.5,66.0,30.16,East,92,1.0,2.0,49,0.00,,---,0.00,VWS V14.01,2013-07-30 21:42:00,
2013-07-30 17:43:00,87.3,65.8,30.16,East,91,0.0,1.0,49,0.00,,---,0.00,VWS V14.01,2013-07-30 21:43:00,
2013-07-30 17:44:00,87.1,65.6,30.16,ESE,109,0.0,1.0,49,0.00,,---,0.00,VWS V14.01,2013-07-30 21:44:00,
2013-07-30 17:45:00,87.0,65.6,30.16,ESE,109,0.0,0.0,49,0.00,,---,0.00,VWS V14.01,2013-07-30 21:45:00,
2013-07-30 17:46:00,86.9,66.0,30.16,ESE,109,0.0,0.0,50,0.00,,---,0.00,VWS V14.01,2013-07-30 21:46:00,
2013-07-30 17:47:00,87.0,66.7,30.16,ESE,109,0.0,0.0,51,0.00,,---,0.00,VWS V14.01,2013-07-30 21:47:00,
2013-07-30 17:48:00,87.1,66.8,30.16,East,86,0.0,0.0,51,0.00,,---,0.00,VWS V14.01,2013-07-30 21:48:00,
2013-07-30 17:49:00,87.3,66.4,30.16,West,263,2.0,2.0,50,0.00,,---,0.00,VWS V14.01,2013-07-30 21:49:00,
2013-07-30 17:50:00,87.3,65.2,30.16,WNW,295,0.0,2.0,48,0.00,,---,0.00,VWS V14.01,2013-07-30 21:50:00,
2013-07-30 17:51:00,87.3,65.8,30.16,WNW,294,0.0,0.0,49,0.00,,---,0.00,VWS V14.01,2013-07-30 21:51:00,
2013-07-30 17:52:00,87.4,65.9,30.16,WNW,294,0.0,1.0,49,0.00,,---,0.00,VWS V14.01,2013-07-30 21:52:00,
2013-07-30 17:53:00,87.4,65.9,30.16,WNW,295,0.0,1.0,49,0.00,,---,0.00,VWS V14.01,2013-07-30 21:53:00,
2013-07-30 17:54:00,87.5,66.0,30.17,WNW,295,0.0,0.0,49,0.00,,---,0.00,VWS V14.01,2013-07-30 21:54:00,
2013-07-30 17:55:00,87.4,65.9,30.17,WNW,298,1.0,2.0,49,0.00,,---,0.00,VWS V14.01,2013-07-30 21:55:00,
2013-07-30 17:56:00,87.4,66.5,30.16,WNW,299,0.0,1.0,50,0.00,,---,0.00,VWS V14.01,2013-07-30 21:56:00,
2013-07-30 17:57:00,87.2,66.3,30.16,WNW,298,0.0,0.0,50,0.00,,---,0.00,VWS V14.01,2013-07-30 21:57:00,
2013-07-30 17:58:00,87.2,66.3,30.16,WNW,299,0.0,1.0,50,0.00,,---,0.00,VWS V14.01,2013-07-30 21:58:00,
2013-07-30 17:59:00,87.1,65.6,30.16,WNW,299,0.0,0.0,49,0.00,,---,0.00,VWS V14.01,2013-07-30 21:59:00,
2013-07-30 18:00:00,87.0,66.7,30.16,West,278,0.0,1.0,51,0.00,,---,0.00,VWS V14.01,2013-07-30 22:00:00,
2013-07-30 18:01:00,86.9,66.6,30.16,West,278,1.0,1.0,51,0.00,,---,0.00,VWS V14.01,2013-07-30 22:01:00,
2013-07-30 18:02:00,86.6,65.8,30.16,West,271,1.0,1.0,50,0.00,,---,0.00,VWS V14.01,2013-07-30 22:02:00,
2013-07-30 18:03:00,86.6,65.8,30.16,West,270,1.0,1.0,50,0.00,,---,0.00,VWS V14.01,2013-07-30 22:03:00,
2013-07-30 18:04:00,86.4,66.2,30.16,West,278,1.0,1.0,51,0.00,,---,0.00,VWS V14.01,2013-07-30 22:04:00,
2013-07-30 18:05:00,86.3,66.1,30.16,WSW,253,3.0,3.0,51,0.00,,---,0.00,VWS V14.01,2013-07-30 22:05:00,
2013-07-30 18:06:00,86.1,65.3,30.16,WSW,254,2.0,3.0,50,0.00,,---,0.00,VWS V14.01,2013-07-30 22:06:00,
2013-07-30 18:07:00,85.9,66.2,30.16,West,271,1.0,1.0,52,0.00,,---,0.00,VWS V14.01,2013-07-30 22:07:00,
2013-07-30 18:08:00,85.9,66.2,30.16,West,270,1.0,1.0,52,0.00,,---,0.00,VWS V14.01,2013-07-30 22:08:00,
2013-07-30 18:09:00,85.7,65.5,30.16,West,267,0.0,1.0,51,0.00,,---,0.00,VWS V14.01,2013-07-30 22:09:00,
2013-07-30 18:10:00,85.7,65.5,30.16,West,268,1.0,1.0,51,0.00,,---,0.00,VWS V14.01,2013-07-30 22:10:00,
2013-07-30 18:11:00,85.7,66.1,30.16,West,274,1.0,2.0,52,0.00,,---,0.00,VWS V14.01,2013-07-30 22:11:00,
2013-07-30 18:12:00,85.6,66.5,30.16,West,275,0.0,0.0,53,0.00,,---,0.00,VWS V14.01,2013-07-30 22:12:00,
2013-07-30 18:13:00,85.6,66.5,30.16,West,274,0.0,0.0,53,0.00,,---,0.00,VWS V14.01,2013-07-30 22:13:00,
2013-07-30 18:14:00,85.6,66.5,30.16,West,275,0.0,0.0,53,0.00,,---,0.00,VWS V14.01,2013-07-30 22:14:00,
2013-07-30 18:15:00,85.6,67.1,30.16,West,275,0.0,0.0,54,0.00,,---,0.00,VWS V14.01,2013-07-30 22:15:00,
2013-07-30 18:16:00,85.6,67.1,30.16,West,274,0.0,0.0,54,0.00,,---,0.00,VWS V14.01,2013-07-30 22:16:00,
2013-07-30 18:17:00,85.6,66.5,30.16,WSW,257,0.0,0.0,53,0.00,,---,0.00,VWS V14.01,2013-07-30 22:17:00,
2013-07-30 18:18:00,85.6,66.5,30.16,West,259,0.0,0.0,53,0.00,,---,0.00,VWS V14.01,2013-07-30 22:18:00,
2013-07-30 18:19:00,85.5,67.0,30.16,WSW,254,1.0,2.0,54,0.00,,---,0.00,VWS V14.01,2013-07-30 22:19:00,
2013-07-30 18:20:00,85.4,66.9,30.16,WSW,254,1.0,2.0,54,0.00,,---,0.00,VWS V14.01,2013-07-30 22:20:00,
2013-07-30 18:21:00,85.3,66.8,30.16,WNW,284,2.0,2.0,54,0.00,,---,0.00,VWS V14.01,2013-07-30 22:21:00,
2013-07-30 18:22:00,85.1,66.6,30.16,WSW,254,2.0,2.0,54,0.00,,---,0.00,VWS V14.01,2013-07-30 22:22:00,
2013-07-30 18:23:00,85.1,67.1,30.16,WSW,254,2.0,2.0,55,0.00,,---,0.00,VWS V14.01,2013-07-30 22:23:00,
2013-07-30 18:24:00,85.0,67.0,30.16,WSW,254,1.0,2.0,55,0.00,,---,0.00,VWS V14.01,2013-07-30 22:24:00,
2013-07-30 18:25:00,84.9,66.9,30.16,West,259,1.0,1.0,55,0.00,,---,0.00,VWS V14.01,2013-07-30 22:25:00,
2013-07-30 18:26:00,84.8,67.4,30.16,West,260,0.0,1.0,56,0.00,,---,0.00,VWS V14.01,2013-07-30 22:26:00,
2013-07-30 18:27:00,84.7,67.8,30.16,West,260,1.0,1.0,57,0.00,,---,0.00,VWS V14.01,2013-07-30 22:27:00,
2013-07-30 18:28:00,84.7,67.8,30.16,WSW,253,0.0,1.0,57,0.00,,---,0.00,VWS V14.01,2013-07-30 22:28:00,
2013-07-30 18:29:00,84.7,66.8,30.16,SSW,202,0.0,1.0,55,0.00,,---,0.00,VWS V14.01,2013-07-30 22:29:00,
2013-07-30 18:30:00,84.7,66.8,30.16,SW,215,1.0,1.0,55,0.00,,---,0.00,VWS V14.01,2013-07-30 22:30:00,
2013-07-30 18:31:00,84.7,67.3,30.16,SW,214,0.0,1.0,56,0.00,,---,0.00,VWS V14.01,2013-07-30 22:31:00,
2013-07-30 18:32:00,84.7,66.8,30.16,SW,215,0.0,1.0,55,0.00,,---,0.00,VWS V14.01,2013-07-30 22:32:00,
2013-07-30 18:33:00,84.7,66.8,30.16,SW,214,0.0,1.0,55,0.00,,---,0.00,VWS V14.01,2013-07-30 22:33:00,
2013-07-30 18:34:00,84.8,67.4,30.16,SW,214,0.0,1.0,56,0.00,,---,0.00,VWS V14.01,2013-07-30 22:34:00,
2013-07-30 18:35:00,84.8,66.8,30.16,SW,214,0.0,1.0,55,0.00,,---,0.00,VWS V14.01,2013-07-30 22:35:00,
2013-07-30 18:36:00,84.9,68.0,30.16,SW,214,0.0,0.0,57,0.00,,---,0.00,VWS V14.01,2013-07-30 22:36:00,
2013-07-30 18:37:00,85.1,68.2,30.16,SW,214,0.0,0.0,57,0.00,,---,0.00,VWS V14.01,2013-07-30 22:37:00,
2013-07-30 18:38:00,85.1,68.2,30.16,SW,215,0.0,0.0,57,0.00,,---,0.00,VWS V14.01,2013-07-30 22:38:00,
2013-07-30 18:39:00,85.2,67.8,30.16,SW,215,0.0,0.0,56,0.00,,---,0.00,VWS V14.01,2013-07-30 22:39:00,
2013-07-30 18:40:00,85.2,68.3,30.16,SW,214,0.0,0.0,57,0.00,,---,0.00,VWS V14.01,2013-07-30 22:40:00,
2013-07-30 18:41:00,85.3,68.4,30.16,SW,214,0.0,0.0,57,0.00,,---,0.00,VWS V14.01,2013-07-30 22:41:00,
2013-07-30 18:42:00,85.4,67.9,30.16,SW,214,0.0,0.0,56,0.00,,---,0.00,VWS V14.01,2013-07-30 22:42:00,
2013-07-30 18:43:00,85.4,67.9,30.16,SW,214,0.0,0.0,56,0.00,,---,0.00,VWS V14.01,2013-07-30 22:43:00,
2013-07-30 18:44:00,85.4,67.9,30.16,SW,214,0.0,0.0,56,0.00,,---,0.00,VWS V14.01,2013-07-30 22:44:00,
2013-07-30 18:45:00,85.4,67.9,30.16,SW,214,0.0,1.0,56,0.00,,---,0.00,VWS V14.01,2013-07-30 22:45:00,
2013-07-30 18:46:00,85.4,67.4,30.16,SE,127,1.0,1.0,55,0.00,,---,0.00,VWS V14.01,2013-07-30 22:46:00,
2013-07-30 18:47:00,85.2,67.2,30.16,ESE,108,0.0,1.0,55,0.00,,---,0.00,VWS V14.01,2013-07-30 22:47:00,
2013-07-30 18:48:00,85.2,67.2,30.16,ESE,108,0.0,1.0,55,0.00,,---,0.00,VWS V14.01,2013-07-30 22:48:00,
2013-07-30 18:49:00,85.1,67.1,30.16,ESE,108,0.0,0.0,55,0.00,,---,0.00,VWS V14.01,2013-07-30 22:49:00,
2013-07-30 18:50:00,85.0,67.0,30.16,ESE,108,0.0,0.0,55,0.00,,---,0.00,VWS V14.01,2013-07-30 22:50:00,
2013-07-30 18:51:00,84.9,67.5,30.16,ESE,107,0.0,0.0,56,0.00,,---,0.00,VWS V14.01,2013-07-30 22:51:00,
2013-07-30 18:52:00,84.9,68.0,30.16,ESE,108,0.0,0.0,57,0.00,,---,0.00,VWS V14.01,2013-07-30 22:52:00,
2013-07-30 18:53:00,84.9,68.5,30.16,ESE,108,0.0,0.0,58,0.00,,---,0.00,VWS V14.01,2013-07-30 22:53:00,
2013-07-30 18:55:00,85.0,68.6,30.16,ESE,107,0.0,1.0,58,0.00,,---,0.00,VWS V14.01,2013-07-30 22:55:00,
2013-07-30 18:57:00,84.8,68.9,30.16,ESE,108,0.0,1.0,59,0.00,,---,0.00,VWS V14.01,2013-07-30 22:57:00,
2013-07-30 18:58:00,84.8,68.9,30.16,ESE,108,0.0,1.0,59,0.00,,---,0.00,VWS V14.01,2013-07-30 22:58:00,
2013-07-30 19:00:00,84.6,69.2,30.16,ESE,108,0.0,1.0,60,0.00,,---,0.00,VWS V14.01,2013-07-30 23:00:00,
2013-07-30 19:01:00,84.5,69.1,30.16,ESE,107,0.0,0.0,60,0.00,,---,0.00,VWS V14.01,2013-07-30 23:01:00,
2013-07-30 19:02:00,84.3,69.4,30.16,South,184,0.0,1.0,61,0.00,,---,0.00,VWS V14.01,2013-07-30 23:02:00,
2013-07-30 19:04:00,84.2,69.8,30.16,South,184,0.0,1.0,62,0.00,,---,0.00,VWS V14.01,2013-07-30 23:04:00,
2013-07-30 19:05:00,84.1,69.2,30.16,South,183,1.0,1.0,61,0.00,,---,0.00,VWS V14.01,2013-07-30 23:05:00,
2013-07-30 19:06:00,84.0,69.1,30.16,SW,232,1.0,1.0,61,0.00,,---,0.00,VWS V14.01,2013-07-30 23:06:00,
2013-07-30 19:07:00,83.9,69.5,30.16,WSW,254,1.0,1.0,62,0.00,,---,0.00,VWS V14.01,2013-07-30 23:07:00,
2013-07-30 19:09:00,83.8,69.9,30.16,WSW,254,0.0,1.0,63,0.00,,---,0.00,VWS V14.01,2013-07-30 23:09:00,
2013-07-30 19:10:00,83.7,69.3,30.16,WSW,254,0.0,0.0,62,0.00,,---,0.00,VWS V14.01,2013-07-30 23:10:00,
2013-07-30 19:11:00,83.6,68.7,30.16,West,260,2.0,2.0,61,0.00,,---,0.00,VWS V14.01,2013-07-30 23:11:00,
2013-07-30 19:12:00,83.4,69.0,30.16,West,260,1.0,1.0,62,0.00,,---,0.00,VWS V14.01,2013-07-30 23:12:00,
2013-07-30 19:13:00,83.4,69.0,30.16,West,260,1.0,1.0,62,0.00,,---,0.00,VWS V14.01,2013-07-30 23:13:00,
2013-07-30 19:14:00,83.3,68.9,30.16,West,260,0.0,1.0,62,0.00,,---,0.00,VWS V14.01,2013-07-30 23:14:00,
2013-07-30 19:15:00,83.3,68.9,30.16,West,260,0.0,0.0,62,0.00,,---,0.00,VWS V14.01,2013-07-30 23:15:00,
2013-07-30 19:17:00,83.1,68.7,30.16,West,260,0.0,0.0,62,0.00,,---,0.00,VWS V14.01,2013-07-30 23:17:00,
2013-07-30 19:18:00,83.1,68.7,30.16,West,259,0.0,0.0,62,0.00,,---,0.00,VWS V14.01,2013-07-30 23:18:00,
2013-07-30 19:19:00,83.1,68.7,30.16,West,260,0.0,1.0,62,0.00,,---,0.00,VWS V14.01,2013-07-30 23:19:00,
2013-07-30 19:20:00,83.0,68.7,30.16,West,260,0.0,0.0,62,0.00,,---,0.00,VWS V14.01,2013-07-30 23:20:00,
2013-07-30 19:21:00,83.0,68.7,30.16,West,260,0.0,0.0,62,0.00,,---,0.00,VWS V14.01,2013-07-30 23:21:00,
2013-07-30 19:22:00,82.9,68.6,30.16,West,260,0.0,0.0,62,0.00,,---,0.00,VWS V14.01,2013-07-30 23:22:00,
2013-07-30 19:23:00,82.9,68.6,30.16,West,260,0.0,0.0,62,0.00,,---,0.00,VWS V14.01,2013-07-30 23:23:00,
2013-07-30 19:24:00,82.9,68.6,30.16,West,260,1.0,1.0,62,0.00,,---,0.00,VWS V14.01,2013-07-30 23:24:00,
2013-07-30 19:25:00,82.8,68.5,30.16,West,260,0.0,1.0,62,0.00,,---,0.00,VWS V14.01,2013-07-30 23:25:00,
2013-07-30 19:26:00,82.8,68.5,30.16,West,259,0.0,0.0,62,0.00,,---,0.00,VWS V14.01,2013-07-30 23:26:00,
2013-07-30 19:27:00,82.7,68.4,30.17,West,260,0.0,0.0,62,0.00,,---,0.00,VWS V14.01,2013-07-30 23:27:00,
2013-07-30 19:28:00,82.7,68.4,30.17,West,260,0.0,0.0,62,0.00,,---,0.00,VWS V14.01,2013-07-30 23:28:00,
2013-07-30 19:29:00,82.7,68.4,30.17,West,259,0.0,0.0,62,0.00,,---,0.00,VWS V14.01,2013-07-30 23:29:00,
2013-07-30 19:30:00,82.6,67.8,30.17,West,260,0.0,0.0,61,0.00,,---,0.00,VWS V14.01,2013-07-30 23:30:00,
2013-07-30 19:31:00,82.6,68.3,30.17,West,259,0.0,0.0,62,0.00,,---,0.00,VWS V14.01,2013-07-30 23:31:00,
2013-07-30 19:32:00,82.5,68.6,30.17,West,260,0.0,0.0,63,0.00,,---,0.00,VWS V14.01,2013-07-30 23:32:00,
2013-07-30 19:33:00,82.5,68.2,30.17,West,260,0.0,0.0,62,0.00,,---,0.00,VWS V14.01,2013-07-30 23:33:00,
2013-07-30 19:34:00,82.5,68.6,30.17,West,260,0.0,0.0,63,0.00,,---,0.00,VWS V14.01,2013-07-30 23:34:00,
2013-07-30 19:35:00,82.4,69.0,30.17,West,259,0.0,0.0,64,0.00,,---,0.00,VWS V14.01,2013-07-30 23:35:00,
2013-07-30 19:36:00,82.4,69.5,30.16,West,260,0.0,0.0,65,0.00,,---,0.00,VWS V14.01,2013-07-30 23:36:00,
2013-07-30 19:37:00,82.3,69.4,30.17,West,259,0.0,0.0,65,0.00,,---,0.00,VWS V14.01,2013-07-30 23:37:00,
2013-07-30 19:38:00,82.3,69.4,30.17,West,259,0.0,0.0,65,0.00,,---,0.00,VWS V14.01,2013-07-30 23:38:00,
2013-07-30 19:39:00,82.2,69.7,30.17,West,260,0.0,0.0,66,0.00,,---,0.00,VWS V14.01,2013-07-30 23:39:00,
2013-07-30 19:40:00,82.2,69.7,30.16,West,260,0.0,0.0,66,0.00,,---,0.00,VWS V14.01,2013-07-30 23:40:00,
2013-07-30 19:41:00,82.1,69.6,30.16,West,259,0.0,0.0,66,0.00,,---,0.00,VWS V14.01,2013-07-30 23:41:00,
2013-07-30 19:42:00,82.1,69.6,30.17,West,260,0.0,0.0,66,0.00,,---,0.00,VWS V14.01,2013-07-30 23:42:00,
2013-07-30 19:43:00,82.1,69.6,30.17,West,260,0.0,0.0,66,0.00,,---,0.00,VWS V14.01,2013-07-30 23:43:00,
2013-07-30 19:44:00,82.1,69.6,30.17,West,259,0.0,0.0,66,0.00,,---,0.00,VWS V14.01,2013-07-30 23:44:00,
2013-07-30 19:45:00,82.0,69.5,30.17,West,259,0.0,0.0,66,0.00,,---,0.00,VWS V14.01,2013-07-30 23:45:00,
2013-07-30 19:46:00,82.0,69.5,30.17,West,259,0.0,0.0,66,0.00,,---,0.00,VWS V14.01,2013-07-30 23:46:00,
2013-07-30 19:47:00,81.9,69.9,30.17,West,260,0.0,0.0,67,0.00,,---,0.00,VWS V14.01,2013-07-30 23:47:00,
2013-07-30 19:48:00,81.9,69.9,30.17,West,260,0.0,0.0,67,0.00,,---,0.00,VWS V14.01,2013-07-30 23:48:00,
2013-07-30 19:49:00,81.8,69.8,30.17,West,260,0.0,0.0,67,0.00,,---,0.00,VWS V14.01,2013-07-30 23:49:00,
2013-07-30 19:50:00,81.7,69.7,30.17,West,260,0.0,0.0,67,0.00,,---,0.00,VWS V14.01,2013-07-30 23:50:00,
2013-07-30 19:51:00,81.6,69.6,30.17,West,260,0.0,0.0,67,0.00,,---,0.00,VWS V14.01,2013-07-30 23:51:00,
2013-07-30 19:52:00,81.5,69.5,30.16,West,260,0.0,0.0,67,0.00,,---,0.00,VWS V14.01,2013-07-30 23:52:00,
2013-07-30 19:53:00,81.5,69.5,30.16,West,260,0.0,0.0,67,0.00,,---,0.00,VWS V14.01,2013-07-30 23:53:00,
2013-07-30 19:54:00,81.4,69.4,30.17,West,260,0.0,0.0,67,0.00,,---,0.00,VWS V14.01,2013-07-30 23:54:00,
2013-07-30 19:55:00,81.3,69.3,30.16,West,260,0.0,0.0,67,0.00,,---,0.00,VWS V14.01,2013-07-30 23:55:00,
2013-07-30 19:56:00,81.3,69.7,30.17,West,260,0.0,0.0,68,0.00,,---,0.00,VWS V14.01,2013-07-30 23:56:00,
2013-07-30 19:57:00,81.2,69.6,30.16,West,260,0.0,0.0,68,0.00,,---,0.00,VWS V14.01,2013-07-30 23:57:00,
2013-07-30 19:58:00,81.2,69.6,30.16,West,259,0.0,0.0,68,0.00,,---,0.00,VWS V14.01,2013-07-30 23:58:00,
2013-07-30 19:59:00,81.1,69.6,30.17,West,260,0.0,0.0,68,0.00,,---,0.00,VWS V14.01,2013-07-30 23:59:00,
2013-07-30 20:00:00,81.1,69.1,30.17,West,259,0.0,0.0,67,0.00,,---,0.00,VWS V14.01,2013-07-31 00:00:00,
2013-07-30 20:01:00,81.0,69.4,30.17,West,259,0.0,0.0,68,0.00,,---,0.00,VWS V14.01,2013-07-31 00:01:00,
2013-07-30 20:02:00,81.0,69.4,30.16,West,260,0.0,0.0,68,0.00,,---,0.00,VWS V14.01,2013-07-31 00:02:00,
2013-07-30 20:04:00,80.9,68.9,30.17,West,260,0.0,0.0,67,0.00,,---,0.00,VWS V14.01,2013-07-31 00:04:00,
2013-07-30 20:05:00,80.9,68.9,30.16,West,259,0.0,0.0,67,0.00,,---,0.00,VWS V14.01,2013-07-31 00:05:00,
2013-07-30 20:06:00,80.8,68.8,30.16,West,259,0.0,0.0,67,0.00,,---,0.00,VWS V14.01,2013-07-31 00:06:00,
2013-07-30 20:07:00,80.7,68.7,30.16,West,260,0.0,0.0,67,0.00,,---,0.00,VWS V14.01,2013-07-31 00:07:00,
2013-07-30 20:08:00,80.7,68.7,30.16,West,260,0.0,0.0,67,0.00,,---,0.00,VWS V14.01,2013-07-31 00:08:00,
2013-07-30 20:09:00,80.7,68.7,30.16,West,260,0.0,0.0,67,0.00,,---,0.00,VWS V14.01,2013-07-31 00:09:00,
2013-07-30 20:10:00,80.6,68.6,30.16,West,260,0.0,0.0,67,0.00,,---,0.00,VWS V14.01,2013-07-31 00:10:00,
2013-07-30 20:11:00,80.6,68.6,30.16,West,259,0.0,0.0,67,0.00,,---,0.00,VWS V14.01,2013-07-31 00:11:00,
2013-07-30 20:12:00,80.6,69.1,30.16,West,260,0.0,0.0,68,0.00,,---,0.00,VWS V14.01,2013-07-31 00:12:00,
2013-07-30 20:13:00,80.5,69.0,30.16,West,260,0.0,0.0,68,0.00,,---,0.00,VWS V14.01,2013-07-31 00:13:00,
2013-07-30 20:14:00,80.5,69.0,30.16,West,260,0.0,0.0,68,0.00,,---,0.00,VWS V14.01,2013-07-31 00:14:00,
2013-07-30 20:15:00,80.5,69.4,30.16,West,260,0.0,0.0,69,0.00,,---,0.00,VWS V14.01,2013-07-31 00:15:00,
2013-07-30 20:16:00,80.4,69.7,30.16,West,259,0.0,0.0,70,0.00,,---,0.00,VWS V14.01,2013-07-31 00:16:00,
2013-07-30 20:17:00,80.3,69.6,30.17,West,260,0.0,0.0,70,0.00,,---,0.00,VWS V14.01,2013-07-31 00:17:00,
2013-07-30 20:18:00,80.3,69.6,30.17,West,260,0.0,0.0,70,0.00,,---,0.00,VWS V14.01,2013-07-31 00:18:00,
2013-07-30 20:19:00,80.3,69.2,30.16,West,260,0.0,0.0,69,0.00,,---,0.00,VWS V14.01,2013-07-31 00:19:00,
2013-07-30 20:20:00,80.2,69.5,30.16,West,260,0.0,0.0,70,0.00,,---,0.00,VWS V14.01,2013-07-31 00:20:00,
2013-07-30 20:21:00,80.1,69.4,30.16,West,259,0.0,0.0,70,0.00,,---,0.00,VWS V14.01,2013-07-31 00:21:00,
2013-07-30 20:22:00,80.0,69.8,30.16,West,259,0.0,0.0,71,0.00,,---,0.00,VWS V14.01,2013-07-31 00:22:00,
2013-07-30 20:23:00,80.0,69.8,30.16,West,259,0.0,0.0,71,0.00,,---,0.00,VWS V14.01,2013-07-31 00:23:00,
2013-07-30 20:24:00,79.9,69.7,30.17,West,260,0.0,0.0,71,0.00,,---,0.00,VWS V14.01,2013-07-31 00:24:00,
2013-07-30 20:25:00,79.8,69.6,30.16,West,260,0.0,0.0,71,0.00,,---,0.00,VWS V14.01,2013-07-31 00:25:00,
2013-07-30 20:26:00,79.7,69.1,30.16,West,260,0.0,0.0,70,0.00,,---,0.00,VWS V14.01,2013-07-31 00:26:00,
2013-07-30 20:27:00,79.6,68.5,30.17,West,260,0.0,0.0,69,0.00,,---,0.00,VWS V14.01,2013-07-31 00:27:00,
2013-07-30 20:28:00,79.6,68.5,30.17,West,259,0.0,0.0,69,0.00,,---,0.00,VWS V14.01,2013-07-31 00:28:00,
2013-07-30 20:29:00,79.5,68.9,30.16,West,260,0.0,0.0,70,0.00,,---,0.00,VWS V14.01,2013-07-31 00:29:00,
2013-07-30 20:30:00,79.5,68.9,30.16,West,259,0.0,0.0,70,0.00,,---,0.00,VWS V14.01,2013-07-31 00:30:00,
2013-07-30 20:31:00,79.4,68.8,30.16,West,259,0.0,0.0,70,0.00,,---,0.00,VWS V14.01,2013-07-31 00:31:00,
2013-07-30 20:32:00,79.3,69.1,30.16,West,260,0.0,0.0,71,0.00,,---,0.00,VWS V14.01,2013-07-31 00:32:00,
2013-07-30 20:33:00,79.3,69.1,30.16,West,259,0.0,0.0,71,0.00,,---,0.00,VWS V14.01,2013-07-31 00:33:00,
2013-07-30 20:34:00,79.2,69.0,30.16,West,260,0.0,0.0,71,0.00,,---,0.00,VWS V14.01,2013-07-31 00:34:00,
2013-07-30 20:35:00,79.2,69.0,30.16,West,260,0.0,0.0,71,0.00,,---,0.00,VWS V14.01,2013-07-31 00:35:00,
2013-07-30 20:36:00,79.2,69.0,30.16,West,260,0.0,0.0,71,0.00,,---,0.00,VWS V14.01,2013-07-31 00:36:00,
2013-07-30 20:37:00,79.1,69.3,30.16,West,260,0.0,0.0,72,0.00,,---,0.00,VWS V14.01,2013-07-31 00:37:00,
2013-07-30 20:38:00,79.1,69.3,30.16,West,259,0.0,0.0,72,0.00,,---,0.00,VWS V14.01,2013-07-31 00:38:00,
2013-07-30 20:39:00,79.0,69.2,30.16,West,260,0.0,0.0,72,0.00,,---,0.00,VWS V14.01,2013-07-31 00:39:00,
2013-07-30 20:40:00,79.0,69.2,30.16,West,260,0.0,0.0,72,0.00,,---,0.00,VWS V14.01,2013-07-31 00:40:00,
2013-07-30 20:41:00,79.0,69.2,30.16,West,260,0.0,0.0,72,0.00,,---,0.00,VWS V14.01,2013-07-31 00:41:00,
2013-07-30 20:42:00,79.0,69.6,30.16,West,260,0.0,0.0,73,0.00,,---,0.00,VWS V14.01,2013-07-31 00:42:00,
2013-07-30 20:43:00,78.9,69.5,30.16,West,260,0.0,0.0,73,0.00,,---,0.00,VWS V14.01,2013-07-31 00:43:00,
2013-07-30 20:44:00,78.9,69.5,30.16,West,260,0.0,0.0,73,0.00,,---,0.00,VWS V14.01,2013-07-31 00:44:00,
2013-07-30 20:45:00,78.8,69.4,30.16,West,260,0.0,0.0,73,0.00,,---,0.00,VWS V14.01,2013-07-31 00:45:00,
2013-07-30 20:46:00,78.8,69.4,30.16,West,260,0.0,0.0,73,0.00,,---,0.00,VWS V14.01,2013-07-31 00:46:00,
2013-07-30 20:47:00,78.7,69.3,30.16,West,259,0.0,0.0,73,0.00,,---,0.00,VWS V14.01,2013-07-31 00:47:00,
2013-07-30 20:48:00,78.7,69.3,30.16,West,260,0.0,0.0,73,0.00,,---,0.00,VWS V14.01,2013-07-31 00:48:00,
2013-07-30 20:49:00,78.6,69.6,30.16,West,259,0.0,0.0,74,0.00,,---,0.00,VWS V14.01,2013-07-31 00:49:00,
2013-07-30 20:50:00,78.6,69.6,30.16,West,260,0.0,0.0,74,0.00,,---,0.00,VWS V14.01,2013-07-31 00:50:00,
2013-07-30 20:51:00,78.6,69.6,30.16,West,260,0.0,0.0,74,0.00,,---,0.00,VWS V14.01,2013-07-31 00:51:00,
2013-07-30 20:52:00,78.5,69.5,30.16,West,260,0.0,0.0,74,0.00,,---,0.00,VWS V14.01,2013-07-31 00:52:00,
2013-07-30 20:53:00,78.5,69.5,30.16,West,259,0.0,0.0,74,0.00,,---,0.00,VWS V14.01,2013-07-31 00:53:00,
2013-07-30 20:54:00,78.4,69.4,30.16,West,260,0.0,0.0,74,0.00,,---,0.00,VWS V14.01,2013-07-31 00:54:00,
2013-07-30 20:55:00,78.4,69.8,30.16,West,259,0.0,0.0,75,0.00,,---,0.00,VWS V14.01,2013-07-31 00:55:00,
2013-07-30 20:56:00,78.3,69.7,30.16,West,260,0.0,0.0,75,0.00,,---,0.00,VWS V14.01,2013-07-31 00:56:00,
2013-07-30 20:57:00,78.3,69.7,30.17,West,260,0.0,0.0,75,0.00,,---,0.00,VWS V14.01,2013-07-31 00:57:00,
2013-07-30 20:58:00,78.3,69.7,30.17,West,260,0.0,0.0,75,0.00,,---,0.00,VWS V14.01,2013-07-31 00:58:00,
2013-07-30 20:59:00,78.2,69.6,30.17,West,259,0.0,0.0,75,0.00,,---,0.00,VWS V14.01,2013-07-31 00:59:00,
2013-07-30 21:00:00,78.2,70.0,30.17,West,259,0.0,0.0,76,0.00,,---,0.00,VWS V14.01,2013-07-31 01:00:00,
2013-07-30 21:01:00,78.2,70.0,30.17,West,260,0.0,0.0,76,0.00,,---,0.00,VWS V14.01,2013-07-31 01:01:00,
2013-07-30 21:02:00,78.2,70.0,30.17,West,259,0.0,0.0,76,0.00,,---,0.00,VWS V14.01,2013-07-31 01:02:00,
2013-07-30 21:03:00,78.2,70.0,30.17,West,260,0.0,0.0,76,0.00,,---,0.00,VWS V14.01,2013-07-31 01:03:00,
2013-07-30 21:04:00,78.2,70.0,30.17,West,260,0.0,0.0,76,0.00,,---,0.00,VWS V14.01,2013-07-31 01:04:00,
2013-07-30 21:05:00,78.2,70.0,30.17,West,260,0.0,0.0,76,0.00,,---,0.00,VWS V14.01,2013-07-31 01:05:00,
2013-07-30 21:06:00,78.1,69.9,30.17,West,260,0.0,0.0,76,0.00,,---,0.00,VWS V14.01,2013-07-31 01:06:00,
2013-07-30 21:07:00,78.1,70.3,30.17,West,259,0.0,0.0,77,0.00,,---,0.00,VWS V14.01,2013-07-31 01:07:00,
2013-07-30 21:08:00,78.1,70.3,30.17,West,260,0.0,0.0,77,0.00,,---,0.00,VWS V14.01,2013-07-31 01:08:00,
2013-07-30 21:09:00,78.1,69.9,30.17,West,259,0.0,0.0,76,0.00,,---,0.00,VWS V14.01,2013-07-31 01:09:00,
2013-07-30 21:10:00,78.1,70.3,30.17,West,259,0.0,0.0,77,0.00,,---,0.00,VWS V14.01,2013-07-31 01:10:00,
2013-07-30 21:11:00,78.1,70.3,30.17,West,260,0.0,0.0,77,0.00,,---,0.00,VWS V14.01,2013-07-31 01:11:00,
2013-07-30 21:12:00,78.0,70.2,30.17,West,260,0.0,0.0,77,0.00,,---,0.00,VWS V14.01,2013-07-31 01:12:00,
2013-07-30 21:13:00,78.0,70.2,30.17,West,260,0.0,0.0,77,0.00,,---,0.00,VWS V14.01,2013-07-31 01:13:00,
2013-07-30 21:14:00,78.0,70.2,30.17,West,260,0.0,0.0,77,0.00,,---,0.00,VWS V14.01,2013-07-31 01:14:00,
2013-07-30 21:15:00,78.0,69.8,30.17,West,260,0.0,0.0,76,0.00,,---,0.00,VWS V14.01,2013-07-31 01:15:00,
2013-07-30 21:16:00,78.0,69.8,30.17,West,260,0.0,0.0,76,0.00,,---,0.00,VWS V14.01,2013-07-31 01:16:00,
2013-07-30 21:17:00,77.9,69.7,30.17,West,260,0.0,0.0,76,0.00,,---,0.00,VWS V14.01,2013-07-31 01:17:00,
2013-07-30 21:18:00,77.9,69.7,30.17,West,260,0.0,0.0,76,0.00,,---,0.00,VWS V14.01,2013-07-31 01:18:00,
2013-07-30 21:19:00,78.0,69.8,30.17,West,260,0.0,0.0,76,0.00,,---,0.00,VWS V14.01,2013-07-31 01:19:00,
2013-07-30 21:20:00,77.9,69.7,30.17,West,260,0.0,0.0,76,0.00,,---,0.00,VWS V14.01,2013-07-31 01:20:00,
2013-07-30 21:21:00,77.9,69.7,30.17,West,259,0.0,0.0,76,0.00,,---,0.00,VWS V14.01,2013-07-31 01:21:00,
2013-07-30 21:22:00,77.9,69.7,30.17,West,260,0.0,0.0,76,0.00,,---,0.00,VWS V14.01,2013-07-31 01:22:00,
2013-07-30 21:23:00,77.9,69.7,30.17,West,259,0.0,0.0,76,0.00,,---,0.00,VWS V14.01,2013-07-31 01:23:00,
2013-07-30 21:24:00,77.9,69.7,30.17,West,260,0.0,0.0,76,0.00,,---,0.00,VWS V14.01,2013-07-31 01:24:00,
2013-07-30 21:25:00,77.8,69.6,30.17,West,260,0.0,0.0,76,0.00,,---,0.00,VWS V14.01,2013-07-31 01:25:00,
2013-07-30 21:26:00,77.8,69.6,30.17,West,260,0.0,0.0,76,0.00,,---,0.00,VWS V14.01,2013-07-31 01:26:00,
2013-07-30 21:27:00,77.8,70.0,30.17,West,260,0.0,0.0,77,0.00,,---,0.00,VWS V14.01,2013-07-31 01:27:00,
2013-07-30 21:28:00,77.8,70.0,30.17,West,260,0.0,0.0,77,0.00,,---,0.00,VWS V14.01,2013-07-31 01:28:00,
2013-07-30 21:29:00,77.8,70.4,30.17,West,260,0.0,0.0,78,0.00,,---,0.00,VWS V14.01,2013-07-31 01:29:00,
2013-07-30 21:30:00,77.7,70.7,30.17,West,259,0.0,0.0,79,0.00,,---,0.00,VWS V14.01,2013-07-31 01:30:00,
2013-07-30 21:31:00,77.7,70.7,30.17,West,260,0.0,0.0,79,0.00,,---,0.00,VWS V14.01,2013-07-31 01:31:00,
2013-07-30 21:32:00,77.5,70.5,30.17,West,260,0.0,0.0,79,0.00,,---,0.00,VWS V14.01,2013-07-31 01:32:00,
2013-07-30 21:33:00,77.5,70.5,30.17,West,260,0.0,0.0,79,0.00,,---,0.00,VWS V14.01,2013-07-31 01:33:00,
2013-07-30 21:34:00,77.4,70.4,30.17,West,260,0.0,0.0,79,0.00,,---,0.00,VWS V14.01,2013-07-31 01:34:00,
2013-07-30 21:35:00,77.4,70.4,30.17,West,260,0.0,0.0,79,0.00,,---,0.00,VWS V14.01,2013-07-31 01:35:00,
2013-07-30 21:36:00,77.3,70.3,30.17,West,260,0.0,0.0,79,0.00,,---,0.00,VWS V14.01,2013-07-31 01:36:00,
2013-07-30 21:37:00,77.2,70.2,30.17,West,259,0.0,0.0,79,0.00,,---,0.00,VWS V14.01,2013-07-31 01:37:00,
2013-07-30 21:38:00,77.1,70.1,30.17,West,259,0.0,0.0,79,0.00,,---,0.00,VWS V14.01,2013-07-31 01:38:00,
2013-07-30 21:39:00,77.1,70.1,30.17,West,260,0.0,0.0,79,0.00,,---,0.00,VWS V14.01,2013-07-31 01:39:00,
2013-07-30 21:40:00,77.0,70.0,30.17,West,260,0.0,0.0,79,0.00,,---,0.00,VWS V14.01,2013-07-31 01:40:00,
2013-07-30 21:41:00,77.0,70.0,30.17,West,260,0.0,0.0,79,0.00,,---,0.00,VWS V14.01,2013-07-31 01:41:00,
2013-07-30 21:42:00,76.8,70.2,30.17,West,260,0.0,0.0,80,0.00,,---,0.00,VWS V14.01,2013-07-31 01:42:00,
2013-07-30 21:43:00,76.8,70.2,30.17,West,260,0.0,0.0,80,0.00,,---,0.00,VWS V14.01,2013-07-31 01:43:00,
2013-07-30 21:44:00,76.8,70.2,30.17,West,260,0.0,0.0,80,0.00,,---,0.00,VWS V14.01,2013-07-31 01:44:00,
2013-07-30 21:45:00,76.8,70.2,30.17,West,260,0.0,0.0,80,0.00,,---,0.00,VWS V14.01,2013-07-31 01:45:00,
2013-07-30 21:46:00,76.7,70.1,30.17,West,259,0.0,0.0,80,0.00,,---,0.00,VWS V14.01,2013-07-31 01:46:00,
2013-07-30 21:47:00,76.7,70.1,30.17,West,259,0.0,0.0,80,0.00,,---,0.00,VWS V14.01,2013-07-31 01:47:00,
2013-07-30 21:48:00,76.7,70.1,30.17,West,259,0.0,0.0,80,0.00,,---,0.00,VWS V14.01,2013-07-31 01:48:00,
2013-07-30 21:49:00,76.6,70.0,30.17,West,260,0.0,0.0,80,0.00,,---,0.00,VWS V14.01,2013-07-31 01:49:00,
2013-07-30 21:50:00,76.6,70.0,30.17,West,259,0.0,0.0,80,0.00,,---,0.00,VWS V14.01,2013-07-31 01:50:00,
2013-07-30 21:51:00,76.6,70.0,30.17,West,259,0.0,0.0,80,0.00,,---,0.00,VWS V14.01,2013-07-31 01:51:00,
2013-07-30 21:52:00,76.5,69.9,30.17,West,260,0.0,0.0,80,0.00,,---,0.00,VWS V14.01,2013-07-31 01:52:00,
2013-07-30 21:53:00,76.5,69.9,30.17,West,260,0.0,0.0,80,0.00,,---,0.00,VWS V14.01,2013-07-31 01:53:00,
2013-07-30 21:54:00,76.5,70.2,30.17,West,260,0.0,0.0,81,0.00,,---,0.00,VWS V14.01,2013-07-31 01:54:00,
2013-07-30 21:55:00,76.5,69.9,30.17,West,260,0.0,0.0,80,0.00,,---,0.00,VWS V14.01,2013-07-31 01:55:00,
2013-07-30 21:56:00,76.5,69.9,30.17,West,260,0.0,0.0,80,0.00,,---,0.00,VWS V14.01,2013-07-31 01:56:00,
2013-07-30 21:57:00,76.5,69.9,30.17,West,260,0.0,0.0,80,0.00,,---,0.00,VWS V14.01,2013-07-31 01:57:00,
2013-07-30 21:58:00,76.5,69.9,30.17,West,260,0.0,0.0,80,0.00,,---,0.00,VWS V14.01,2013-07-31 01:58:00,
2013-07-30 21:59:00,76.5,69.9,30.17,West,260,0.0,0.0,80,0.00,,---,0.00,VWS V14.01,2013-07-31 01:59:00,
2013-07-30 22:00:00,76.5,69.9,30.17,West,259,0.0,0.0,80,0.00,,---,0.00,VWS V14.01,2013-07-31 02:00:00,
2013-07-30 22:01:00,76.5,69.9,30.17,West,260,0.0,0.0,80,0.00,,---,0.00,VWS V14.01,2013-07-31 02:01:00,
2013-07-30 22:02:00,76.5,69.9,30.18,West,259,0.0,0.0,80,0.00,,---,0.00,VWS V14.01,2013-07-31 02:02:00,
2013-07-30 22:03:00,76.5,69.9,30.18,West,260,0.0,0.0,80,0.00,,---,0.00,VWS V14.01,2013-07-31 02:03:00,
2013-07-30 22:04:00,76.5,69.5,30.18,West,260,0.0,0.0,79,0.00,,---,0.00,VWS V14.01,2013-07-31 02:04:00,
2013-07-30 22:05:00,76.5,69.5,30.18,West,259,0.0,0.0,79,0.00,,---,0.00,VWS V14.01,2013-07-31 02:05:00,
2013-07-30 22:06:00,76.5,69.5,30.18,West,260,0.0,1.0,79,0.00,,---,0.00,VWS V14.01,2013-07-31 02:06:00,
2013-07-30 22:07:00,76.5,69.5,30.18,West,260,0.0,0.0,79,0.00,,---,0.00,VWS V14.01,2013-07-31 02:07:00,
2013-07-30 22:08:00,76.5,69.5,30.18,West,260,0.0,0.0,79,0.00,,---,0.00,VWS V14.01,2013-07-31 02:08:00,
2013-07-30 22:09:00,76.6,69.6,30.18,West,260,0.0,0.0,79,0.00,,---,0.00,VWS V14.01,2013-07-31 02:09:00,
2013-07-30 22:10:00,76.6,69.6,30.18,West,260,0.0,0.0,79,0.00,,---,0.00,VWS V14.01,2013-07-31 02:10:00,
2013-07-30 22:11:00,76.6,69.6,30.18,West,260,0.0,0.0,79,0.00,,---,0.00,VWS V14.01,2013-07-31 02:11:00,
2013-07-30 22:12:00,76.6,69.6,30.18,West,260,0.0,0.0,79,0.00,,---,0.00,VWS V14.01,2013-07-31 02:12:00,
2013-07-30 22:13:00,76.6,69.6,30.18,West,260,0.0,0.0,79,0.00,,---,0.00,VWS V14.01,2013-07-31 02:13:00,
2013-07-30 22:14:00,76.5,69.5,30.18,West,260,0.0,0.0,79,0.00,,---,0.00,VWS V14.01,2013-07-31 02:14:00,
2013-07-30 22:15:00,76.5,69.5,30.18,West,260,0.0,0.0,79,0.00,,---,0.00,VWS V14.01,2013-07-31 02:15:00,
2013-07-30 22:16:00,76.5,69.5,30.18,West,260,0.0,0.0,79,0.00,,---,0.00,VWS V14.01,2013-07-31 02:16:00,
2013-07-30 22:17:00,76.5,69.5,30.18,West,260,0.0,0.0,79,0.00,,---,0.00,VWS V14.01,2013-07-31 02:17:00,
2013-07-30 22:18:00,76.5,69.5,30.18,West,260,0.0,0.0,79,0.00,,---,0.00,VWS V14.01,2013-07-31 02:18:00,
2013-07-30 22:19:00,76.5,69.5,30.18,West,259,0.0,0.0,79,0.00,,---,0.00,VWS V14.01,2013-07-31 02:19:00,
2013-07-30 22:20:00,76.5,69.9,30.18,West,260,1.0,1.0,80,0.00,,---,0.00,VWS V14.01,2013-07-31 02:20:00,
2013-07-30 22:21:00,76.4,69.8,30.18,NNE,27,2.0,2.0,80,0.00,,---,0.00,VWS V14.01,2013-07-31 02:21:00,
2013-07-30 22:22:00,76.4,70.1,30.18,NNE,27,1.0,2.0,81,0.00,,---,0.00,VWS V14.01,2013-07-31 02:22:00,
2013-07-30 22:23:00,76.4,70.5,30.18,NNE,27,0.0,2.0,82,0.00,,---,0.00,VWS V14.01,2013-07-31 02:23:00,
2013-07-30 22:24:00,76.3,70.4,30.18,NNE,27,0.0,1.0,82,0.00,,---,0.00,VWS V14.01,2013-07-31 02:24:00,
2013-07-30 22:25:00,76.2,70.7,30.18,NNE,27,0.0,0.0,83,0.00,,---,0.00,VWS V14.01,2013-07-31 02:25:00,
2013-07-30 22:26:00,76.1,70.6,30.18,NNE,27,0.0,0.0,83,0.00,,---,0.00,VWS V14.01,2013-07-31 02:26:00,
2013-07-30 22:27:00,76.0,70.8,30.18,NNE,27,0.0,0.0,84,0.00,,---,0.00,VWS V14.01,2013-07-31 02:27:00,
2013-07-30 22:28:00,75.9,70.4,30.18,NNE,27,0.0,0.0,83,0.00,,---,0.00,VWS V14.01,2013-07-31 02:28:00,
2013-07-30 22:29:00,75.8,70.3,30.18,NNE,27,0.0,0.0,83,0.00,,---,0.00,VWS V14.01,2013-07-31 02:29:00,
2013-07-30 22:30:00,75.7,70.2,30.18,NNE,27,0.0,0.0,83,0.00,,---,0.00,VWS V14.01,2013-07-31 02:30:00,
2013-07-30 22:31:00,75.6,70.1,30.18,NNE,27,0.0,0.0,83,0.00,,---,0.00,VWS V14.01,2013-07-31 02:31:00,
2013-07-30 22:32:00,75.5,70.0,30.18,NNE,27,0.0,0.0,83,0.00,,---,0.00,VWS V14.01,2013-07-31 02:32:00,
2013-07-30 22:33:00,75.5,70.0,30.18,NNE,27,0.0,0.0,83,0.00,,---,0.00,VWS V14.01,2013-07-31 02:33:00,
2013-07-30 22:34:00,75.5,70.0,30.18,NNE,27,0.0,0.0,83,0.00,,---,0.00,VWS V14.01,2013-07-31 02:34:00,
2013-07-30 22:35:00,75.5,70.0,30.18,NNE,27,0.0,0.0,83,0.00,,---,0.00,VWS V14.01,2013-07-31 02:35:00,
2013-07-30 22:36:00,75.5,69.6,30.18,NNE,27,0.0,0.0,82,0.00,,---,0.00,VWS V14.01,2013-07-31 02:36:00,
2013-07-30 22:37:00,75.5,69.6,30.18,NNE,27,0.0,0.0,82,0.00,,---,0.00,VWS V14.01,2013-07-31 02:37:00,
2013-07-30 22:38:00,75.5,69.6,30.18,NNE,27,0.0,0.0,82,0.00,,---,0.00,VWS V14.01,2013-07-31 02:38:00,
2013-07-30 22:39:00,75.5,69.6,30.18,NNE,27,0.0,0.0,82,0.00,,---,0.00,VWS V14.01,2013-07-31 02:39:00,
2013-07-30 22:40:00,75.5,69.3,30.18,NNE,28,0.0,0.0,81,0.00,,---,0.00,VWS V14.01,2013-07-31 02:40:00,
2013-07-30 22:41:00,75.6,69.4,30.18,NNE,28,0.0,0.0,81,0.00,,---,0.00,VWS V14.01,2013-07-31 02:41:00,
2013-07-30 22:42:00,75.6,69.4,30.18,NNE,27,0.0,0.0,81,0.00,,---,0.00,VWS V14.01,2013-07-31 02:42:00,
2013-07-30 22:43:00,75.7,69.1,30.18,NNE,27,0.0,0.0,80,0.00,,---,0.00,VWS V14.01,2013-07-31 02:43:00,
2013-07-30 22:44:00,75.7,69.5,30.18,NNE,27,0.0,0.0,81,0.00,,---,0.00,VWS V14.01,2013-07-31 02:44:00,
2013-07-30 22:45:00,75.7,69.1,30.18,NNE,27,0.0,1.0,80,0.00,,---,0.00,VWS V14.01,2013-07-31 02:45:00,
2013-07-30 22:46:00,75.7,68.7,30.18,NNE,27,0.0,1.0,79,0.00,,---,0.00,VWS V14.01,2013-07-31 02:46:00,
2013-07-30 22:47:00,75.8,68.8,30.18,NNE,27,1.0,1.0,79,0.00,,---,0.00,VWS V14.01,2013-07-31 02:47:00,
2013-07-30 22:48:00,75.8,68.8,30.18,NNE,27,1.0,1.0,79,0.00,,---,0.00,VWS V14.01,2013-07-31 02:48:00,
2013-07-30 22:49:00,75.9,68.9,30.18,NNE,27,0.0,1.0,79,0.00,,---,0.00,VWS V14.01,2013-07-31 02:49:00,
2013-07-30 22:50:00,76.0,69.0,30.18,NNE,27,1.0,1.0,79,0.00,,---,0.00,VWS V14.01,2013-07-31 02:50:00,
2013-07-30 22:51:00,76.0,69.0,30.18,NNE,27,1.0,1.0,79,0.00,,---,0.00,VWS V14.01,2013-07-31 02:51:00,
2013-07-30 22:52:00,76.1,68.8,30.18,NE,36,1.0,1.0,78,0.00,,---,0.00,VWS V14.01,2013-07-31 02:52:00,
2013-07-30 22:53:00,76.2,68.8,30.18,NE,36,1.0,2.0,78,0.00,,---,0.00,VWS V14.01,2013-07-31 02:53:00,
2013-07-30 22:54:00,76.2,68.8,30.18,NE,36,1.0,1.0,78,0.00,,---,0.00,VWS V14.01,2013-07-31 02:54:00,
2013-07-30 22:55:00,76.2,68.8,30.18,NE,36,0.0,1.0,78,0.00,,---,0.00,VWS V14.01,2013-07-31 02:55:00,
2013-07-30 22:56:00,76.3,68.9,30.18,NE,36,0.0,0.0,78,0.00,,---,0.00,VWS V14.01,2013-07-31 02:56:00,
2013-07-30 22:57:00,76.4,69.0,30.18,NE,36,0.0,0.0,78,0.00,,---,0.00,VWS V14.01,2013-07-31 02:57:00,
2013-07-30 22:58:00,76.3,68.9,30.18,NE,36,0.0,0.0,78,0.00,,---,0.00,VWS V14.01,2013-07-31 02:58:00,
2013-07-30 22:59:00,76.4,69.0,30.18,NE,36,0.0,0.0,78,0.00,,---,0.00,VWS V14.01,2013-07-31 02:59:00,
2013-07-30 23:00:00,76.3,68.9,30.18,NE,37,0.0,0.0,78,0.00,,---,0.00,VWS V14.01,2013-07-31 03:00:00,
2013-07-30 23:01:00,76.4,69.0,30.18,NE,36,0.0,0.0,78,0.00,,---,0.00,VWS V14.01,2013-07-31 03:01:00,
2013-07-30 23:02:00,76.3,68.9,30.18,NE,36,0.0,0.0,78,0.00,,---,0.00,VWS V14.01,2013-07-31 03:02:00,
2013-07-30 23:03:00,76.3,68.9,30.18,NE,36,0.0,0.0,78,0.00,,---,0.00,VWS V14.01,2013-07-31 03:03:00,
2013-07-30 23:04:00,76.3,68.9,30.18,NE,36,0.0,0.0,78,0.00,,---,0.00,VWS V14.01,2013-07-31 03:04:00,
2013-07-30 23:05:00,76.3,69.3,30.18,NE,36,0.0,0.0,79,0.00,,---,0.00,VWS V14.01,2013-07-31 03:05:00,
2013-07-30 23:06:00,76.3,69.7,30.18,NE,36,0.0,0.0,80,0.00,,---,0.00,VWS V14.01,2013-07-31 03:06:00,
2013-07-30 23:07:00,76.3,69.7,30.18,NE,36,0.0,0.0,80,0.00,,---,0.00,VWS V14.01,2013-07-31 03:07:00,
2013-07-30 23:08:00,76.3,69.7,30.18,NE,36,0.0,0.0,80,0.00,,---,0.00,VWS V14.01,2013-07-31 03:08:00,
2013-07-30 23:09:00,76.3,69.7,30.18,NE,36,0.0,0.0,80,0.00,,---,0.00,VWS V14.01,2013-07-31 03:09:00,
2013-07-30 23:10:00,76.2,69.9,30.18,NE,36,0.0,0.0,81,0.00,,---,0.00,VWS V14.01,2013-07-31 03:10:00,
2013-07-30 23:11:00,76.2,69.6,30.18,NE,36,0.0,0.0,80,0.00,,---,0.00,VWS V14.01,2013-07-31 03:11:00,
2013-07-30 23:12:00,76.1,69.5,30.18,NE,36,0.0,0.0,80,0.00,,---,0.00,VWS V14.01,2013-07-31 03:12:00,
2013-07-30 23:13:00,76.0,69.4,30.18,NE,36,0.0,0.0,80,0.00,,---,0.00,VWS V14.01,2013-07-31 03:13:00,
2013-07-30 23:14:00,76.0,69.4,30.18,NE,36,0.0,0.0,80,0.00,,---,0.00,VWS V14.01,2013-07-31 03:14:00,
2013-07-30 23:15:00,76.0,69.4,30.18,NE,36,0.0,0.0,80,0.00,,---,0.00,VWS V14.01,2013-07-31 03:15:00,
2013-07-30 23:16:00,75.9,69.3,30.18,NE,36,0.0,0.0,80,0.00,,---,0.00,VWS V14.01,2013-07-31 03:16:00,
2013-07-30 23:17:00,75.9,69.7,30.18,NE,36,0.0,0.0,81,0.00,,---,0.00,VWS V14.01,2013-07-31 03:17:00,
2013-07-30 23:18:00,75.8,69.6,30.18,NE,36,0.0,0.0,81,0.00,,---,0.00,VWS V14.01,2013-07-31 03:18:00,
2013-07-30 23:19:00,75.8,69.2,30.18,NE,36,0.0,0.0,80,0.00,,---,0.00,VWS V14.01,2013-07-31 03:19:00,
2013-07-30 23:20:00,75.8,69.2,30.18,NE,36,0.0,0.0,80,0.00,,---,0.00,VWS V14.01,2013-07-31 03:20:00,
2013-07-30 23:21:00,75.7,69.1,30.18,NE,36,0.0,0.0,80,0.00,,---,0.00,VWS V14.01,2013-07-31 03:21:00,
2013-07-30 23:22:00,75.7,69.1,30.17,NE,52,0.0,0.0,80,0.00,,---,0.00,VWS V14.01,2013-07-31 03:22:00,
2013-07-30 23:23:00,75.7,69.1,30.17,NE,55,0.0,0.0,80,0.00,,---,0.00,VWS V14.01,2013-07-31 03:23:00,
2013-07-30 23:24:00,75.7,68.7,30.17,ENE,76,0.0,0.0,79,0.00,,---,0.00,VWS V14.01,2013-07-31 03:24:00,
2013-07-30 23:25:00,75.7,68.7,30.17,ENE,76,1.0,2.0,79,0.00,,---,0.00,VWS V14.01,2013-07-31 03:25:00,
2013-07-30 23:26:00,75.7,68.4,30.18,ENE,76,1.0,1.0,78,0.00,,---,0.00,VWS V14.01,2013-07-31 03:26:00,
2013-07-30 23:27:00,75.8,68.8,30.18,ENE,76,0.0,0.0,79,0.00,,---,0.00,VWS V14.01,2013-07-31 03:27:00,
2013-07-30 23:28:00,75.9,68.9,30.18,ENE,76,1.0,1.0,79,0.00,,---,0.00,VWS V14.01,2013-07-31 03:28:00,
2013-07-30 23:29:00,75.9,68.9,30.18,East,79,1.0,1.0,79,0.00,,---,0.00,VWS V14.01,2013-07-31 03:29:00,
2013-07-30 23:30:00,75.9,68.9,30.18,East,80,1.0,1.0,79,0.00,,---,0.00,VWS V14.01,2013-07-31 03:30:00,
2013-07-30 23:31:00,75.9,68.9,30.18,East,80,0.0,1.0,79,0.00,,---,0.00,VWS V14.01,2013-07-31 03:31:00,
2013-07-30 23:32:00,75.9,68.9,30.18,East,80,0.0,1.0,79,0.00,,---,0.00,VWS V14.01,2013-07-31 03:32:00,
2013-07-30 23:33:00,75.9,68.9,30.18,East,79,0.0,1.0,79,0.00,,---,0.00,VWS V14.01,2013-07-31 03:33:00,
2013-07-30 23:34:00,75.9,68.9,30.18,East,80,0.0,0.0,79,0.00,,---,0.00,VWS V14.01,2013-07-31 03:34:00,
2013-07-30 23:35:00,75.9,68.9,30.18,East,80,0.0,0.0,79,0.00,,---,0.00,VWS V14.01,2013-07-31 03:35:00,
2013-07-30 23:36:00,75.9,68.9,30.18,East,80,1.0,1.0,79,0.00,,---,0.00,VWS V14.01,2013-07-31 03:36:00,
2013-07-30 23:37:00,75.8,68.8,30.17,East,79,0.0,1.0,79,0.00,,---,0.00,VWS V14.01,2013-07-31 03:37:00,
2013-07-30 23:38:00,75.8,68.8,30.17,East,79,1.0,1.0,79,0.00,,---,0.00,VWS V14.01,2013-07-31 03:38:00,
2013-07-30 23:39:00,75.8,68.5,30.17,East,94,1.0,2.0,78,0.00,,---,0.00,VWS V14.01,2013-07-31 03:39:00,
2013-07-30 23:40:00,75.8,68.5,30.18,East,94,0.0,1.0,78,0.00,,---,0.00,VWS V14.01,2013-07-31 03:40:00,
2013-07-30 23:41:00,75.8,68.8,30.18,East,94,0.0,0.0,79,0.00,,---,0.00,VWS V14.01,2013-07-31 03:41:00,
2013-07-30 23:42:00,75.8,68.5,30.18,East,97,1.0,2.0,78,0.00,,---,0.00,VWS V14.01,2013-07-31 03:42:00,
2013-07-30 23:43:00,75.8,68.5,30.18,East,96,1.0,2.0,78,0.00,,---,0.00,VWS V14.01,2013-07-31 03:43:00,
2013-07-30 23:44:00,75.8,68.5,30.18,East,96,1.0,2.0,78,0.00,,---,0.00,VWS V14.01,2013-07-31 03:44:00,
2013-07-30 23:45:00,75.8,68.5,30.18,East,96,0.0,1.0,78,0.00,,---,0.00,VWS V14.01,2013-07-31 03:45:00,
2013-07-30 23:46:00,75.9,68.6,30.18,East,96,1.0,1.0,78,0.00,,---,0.00,VWS V14.01,2013-07-31 03:46:00,
2013-07-30 23:47:00,75.9,68.6,30.18,East,96,0.0,0.0,78,0.00,,---,0.00,VWS V14.01,2013-07-31 03:47:00,
2013-07-30 23:48:00,75.9,68.6,30.18,East,96,0.0,0.0,78,0.00,,---,0.00,VWS V14.01,2013-07-31 03:48:00,
2013-07-30 23:49:00,75.9,68.6,30.18,East,96,0.0,0.0,78,0.00,,---,0.00,VWS V14.01,2013-07-31 03:49:00,
2013-07-30 23:50:00,75.9,68.9,30.18,East,96,0.0,0.0,79,0.00,,---,0.00,VWS V14.01,2013-07-31 03:50:00,
2013-07-30 23:51:00,75.9,68.9,30.18,East,96,0.0,1.0,79,0.00,,---,0.00,VWS V14.01,2013-07-31 03:51:00,
2013-07-30 23:52:00,75.8,68.8,30.18,East,97,1.0,1.0,79,0.00,,---,0.00,VWS V14.01,2013-07-31 03:52:00,
2013-07-30 23:53:00,75.8,68.8,30.18,East,96,0.0,1.0,79,0.00,,---,0.00,VWS V14.01,2013-07-31 03:53:00,
2013-07-30 23:54:00,75.8,68.8,30.18,East,96,0.0,1.0,79,0.00,,---,0.00,VWS V14.01,2013-07-31 03:54:00,
2013-07-30 23:55:00,75.8,69.2,30.18,East,96,0.0,0.0,80,0.00,,---,0.00,VWS V14.01,2013-07-31 03:55:00,
2013-07-30 23:56:00,75.7,68.7,30.18,East,97,1.0,1.0,79,0.00,,---,0.00,VWS V14.01,2013-07-31 03:56:00,
2013-07-30 23:57:00,75.6,68.6,30.18,East,96,1.0,1.0,79,0.00,,---,0.00,VWS V14.01,2013-07-31 03:57:00,
2013-07-30 23:58:00,75.6,68.6,30.18,East,96,0.0,1.0,79,0.00,,---,0.00,VWS V14.01,2013-07-31 03:58:00,
2013-07-30 23:59:00,75.6,68.6,30.18,East,95,0.0,0.0,79,0.00,,---,0.00,VWS V14.01,2013-07-31 03:59:00,